Wetterdaten: Freitag, 04.11.2016
Datum Zeit Temp. A. Feuchte A. Luftdruck Regen Wind Richtung Richtung Sonnenschein ET UV Solar Taupunkt Windchill Windben Empfang
04.11.2016 00:00 0,7 C 97 % 1021,6 hPa 0,0 l/m 4,2 km/h (1 Bft) O-NO 60 0 min 0,000 mm 0,0 UV-I 0 W/m 0,3 C 0,7 C 6,4 km/h (2 Bft) 100,00 %
04.11.2016 00:02 0,7 C 97 % 1021,6 hPa 0,0 l/m 2,4 km/h (1 Bft) O-NO 60 0 min 0,000 mm 0,0 UV-I 0 W/m 0,3 C 0,7 C 4,8 km/h (1 Bft) 9,09 %
04.11.2016 00:04 0,4 C 97 % 1021,6 hPa 0,0 l/m 2,3 km/h (1 Bft) O-NO 60 0 min 0,000 mm 0,0 UV-I 0 W/m -0,0 C 0,4 C 4,8 km/h (1 Bft) 100,00 %
04.11.2016 00:06 0,3 C 97 % 1021,6 hPa 0,0 l/m 2,5 km/h (1 Bft) O-NO 60 0 min 0,000 mm 0,0 UV-I 0 W/m -0,1 C 0,3 C 4,8 km/h (1 Bft) 100,00 %
04.11.2016 00:08 0,4 C 97 % 1021,6 hPa 0,0 l/m 3,3 km/h (1 Bft) O-NO 60 0 min 0,000 mm 0,0 UV-I 0 W/m -0,0 C 0,4 C 4,8 km/h (1 Bft) 100,00 %
04.11.2016 00:10 0,5 C 97 % 1021,6 hPa 0,0 l/m 2,5 km/h (1 Bft) O-NO 67 0 min 0,000 mm 0,0 UV-I 0 W/m 0,1 C 0,5 C 4,8 km/h (1 Bft) 97,87 %
04.11.2016 00:12 0,4 C 97 % 1021,6 hPa 0,0 l/m 1,9 km/h (1 Bft) O-NO 67 0 min 0,000 mm 0,0 UV-I 0 W/m -0,0 C 0,4 C 3,2 km/h (1 Bft) 97,37 %
04.11.2016 00:14 0,2 C 97 % 1021,6 hPa 0,0 l/m 1,6 km/h (1 Bft) O-NO 67 0 min 0,000 mm 0,0 UV-I 0 W/m -0,2 C 0,2 C 3,2 km/h (1 Bft) 100,00 %
04.11.2016 00:16 0,1 C 97 % 1021,6 hPa 0,0 l/m 2,1 km/h (1 Bft) O-NO 67 0 min 0,000 mm 0,0 UV-I 0 W/m -0,3 C 0,1 C 3,2 km/h (1 Bft) 100,00 %
04.11.2016 00:18 0,0 C 97 % 1021,6 hPa 0,0 l/m 2,2 km/h (1 Bft) O-NO 67 0 min 0,000 mm 0,0 UV-I 0 W/m -0,4 C 0,0 C 3,2 km/h (1 Bft) 98,11 %
04.11.2016 00:20 0,0 C 97 % 1021,6 hPa 0,0 l/m 3,1 km/h (1 Bft) O-NO 67 0 min 0,000 mm 0,0 UV-I 0 W/m -0,4 C 0,0 C 4,8 km/h (1 Bft) 98,04 %
04.11.2016 00:22 0,1 C 97 % 1021,6 hPa 0,0 l/m 3,9 km/h (1 Bft) O-NO 67 0 min 0,000 mm 0,0 UV-I 0 W/m -0,3 C 0,1 C 6,4 km/h (2 Bft) 100,00 %
04.11.2016 00:24 0,3 C 97 % 1021,6 hPa 0,0 l/m 5,5 km/h (1 Bft) O-NO 69 0 min 0,000 mm 0,0 UV-I 0 W/m -0,1 C 0,3 C 8,0 km/h (2 Bft) 100,00 %
04.11.2016 00:26 0,3 C 97 % 1021,5 hPa 0,0 l/m 5,6 km/h (1 Bft) O-NO 66 0 min 0,000 mm 0,0 UV-I 0 W/m -0,1 C 0,3 C 8,0 km/h (2 Bft) 100,00 %
04.11.2016 00:28 0,4 C 97 % 1021,5 hPa 0,0 l/m 4,5 km/h (1 Bft) O-NO 64 0 min 0,000 mm 0,0 UV-I 0 W/m -0,0 C 0,4 C 6,4 km/h (2 Bft) 100,00 %
04.11.2016 00:30 0,4 C 97 % 1021,4 hPa 0,0 l/m 4,2 km/h (1 Bft) O-NO 67 0 min 0,000 mm 0,0 UV-I 0 W/m -0,0 C 0,4 C 6,4 km/h (2 Bft) 100,00 %
04.11.2016 00:32 0,5 C 97 % 1021,4 hPa 0,0 l/m 4,9 km/h (1 Bft) O-NO 71 0 min 0,000 mm 0,0 UV-I 0 W/m 0,1 C 0,5 C 8,0 km/h (2 Bft) 100,00 %
04.11.2016 00:34 0,5 C 97 % 1021,3 hPa 0,0 l/m 5,6 km/h (1 Bft) O 79 0 min 0,000 mm 0,0 UV-I 0 W/m 0,1 C 0,5 C 6,4 km/h (2 Bft) 100,00 %
04.11.2016 00:36 0,5 C 97 % 1021,3 hPa 0,0 l/m 6,1 km/h (2 Bft) O-NO 70 0 min 0,000 mm 0,0 UV-I 0 W/m 0,1 C 0,5 C 9,7 km/h (2 Bft) 100,00 %
04.11.2016 00:38 0,6 C 97 % 1021,3 hPa 0,0 l/m 5,6 km/h (1 Bft) O-NO 74 0 min 0,000 mm 0,0 UV-I 0 W/m 0,2 C 0,6 C 8,0 km/h (2 Bft) 98,04 %
04.11.2016 00:40 0,6 C 97 % 1021,3 hPa 0,0 l/m 5,8 km/h (2 Bft) O 82 0 min 0,000 mm 0,0 UV-I 0 W/m 0,2 C 0,6 C 11,3 km/h (2 Bft) 97,14 %
04.11.2016 00:42 0,7 C 97 % 1021,2 hPa 0,0 l/m 5,2 km/h (1 Bft) O-NO 68 0 min 0,000 mm 0,0 UV-I 0 W/m 0,3 C 0,7 C 6,4 km/h (2 Bft) 96,43 %
04.11.2016 00:44 0,6 C 97 % 1021,2 hPa 0,0 l/m 4,9 km/h (1 Bft) O-NO 69 0 min 0,000 mm 0,0 UV-I 0 W/m 0,2 C 0,6 C 6,4 km/h (2 Bft) 92,11 %
04.11.2016 00:46 0,6 C 97 % 1021,2 hPa 0,0 l/m 4,0 km/h (1 Bft) O-NO 64 0 min 0,000 mm 0,0 UV-I 0 W/m 0,2 C 0,6 C 6,4 km/h (2 Bft) 98,00 %
04.11.2016 00:48 0,6 C 97 % 1021,3 hPa 0,0 l/m 2,4 km/h (1 Bft) O-NO 64 0 min 0,000 mm 0,0 UV-I 0 W/m 0,2 C 0,6 C 4,8 km/h (1 Bft) 98,11 %
04.11.2016 00:50 0,3 C 97 % 1021,2 hPa 0,0 l/m 2,7 km/h (1 Bft) O-NO 59 0 min 0,000 mm 0,0 UV-I 0 W/m -0,1 C 0,3 C 4,8 km/h (1 Bft) 98,00 %
04.11.2016 00:52 -0,1 C 96 % 1021,3 hPa 0,0 l/m 3,4 km/h (1 Bft) O-NO 58 0 min 0,000 mm 0,0 UV-I 0 W/m -0,7 C -0,1 C 4,8 km/h (1 Bft) 95,74 %
04.11.2016 00:54 -0,2 C 96 % 1021,2 hPa 0,0 l/m 2,9 km/h (1 Bft) O-NO 58 0 min 0,000 mm 0,0 UV-I 0 W/m -0,8 C -0,2 C 3,2 km/h (1 Bft) 100,00 %
04.11.2016 00:56 -0,3 C 96 % 1021,2 hPa 0,0 l/m 4,2 km/h (1 Bft) NO 56 0 min 0,000 mm 0,0 UV-I 0 W/m -0,9 C -0,3 C 6,4 km/h (2 Bft) 96,00 %
04.11.2016 00:58 -0,3 C 97 % 1021,2 hPa 0,0 l/m 4,8 km/h (1 Bft) NO 41 0 min 0,000 mm 0,0 UV-I 0 W/m -0,7 C -0,3 C 6,4 km/h (2 Bft) 94,00 %
04.11.2016 01:00 -0,3 C 97 % 1021,2 hPa 0,0 l/m 4,3 km/h (1 Bft) NO 41 0 min 0,000 mm 0,0 UV-I 0 W/m -0,7 C -0,3 C 6,4 km/h (2 Bft) 97,56 %
04.11.2016 01:02 -0,3 C 97 % 1021,2 hPa 0,0 l/m 4,4 km/h (1 Bft) NO 41 0 min 0,000 mm 0,0 UV-I 0 W/m -0,7 C -0,3 C 6,4 km/h (2 Bft) 95,24 %
04.11.2016 01:04 -0,2 C 97 % 1021,2 hPa 0,0 l/m 3,7 km/h (1 Bft) NO 41 0 min 0,000 mm 0,0 UV-I 0 W/m -0,6 C -0,2 C 4,8 km/h (1 Bft) 96,55 %
04.11.2016 01:06 -0,2 C 97 % 1021,2 hPa 0,0 l/m 3,7 km/h (1 Bft) NO 41 0 min 0,000 mm 0,0 UV-I 0 W/m -0,6 C -0,2 C 4,8 km/h (1 Bft) 97,87 %
04.11.2016 01:08 -0,2 C 97 % 1021,2 hPa 0,0 l/m 3,6 km/h (1 Bft) NO 42 0 min 0,000 mm 0,0 UV-I 0 W/m -0,6 C -0,2 C 4,8 km/h (1 Bft) 97,22 %
04.11.2016 01:10 -0,1 C 97 % 1021,2 hPa 0,0 l/m 4,0 km/h (1 Bft) NO 52 0 min 0,000 mm 0,0 UV-I 0 W/m -0,5 C -0,1 C 4,8 km/h (1 Bft) 90,91 %
04.11.2016 01:12 0,0 C 97 % 1021,2 hPa 0,0 l/m 3,9 km/h (1 Bft) NO 52 0 min 0,000 mm 0,0 UV-I 0 W/m -0,4 C 0,0 C 4,8 km/h (1 Bft) 96,00 %
04.11.2016 01:14 0,0 C 97 % 1021,2 hPa 0,0 l/m 4,5 km/h (1 Bft) NO 53 0 min 0,000 mm 0,0 UV-I 0 W/m -0,4 C 0,0 C 6,4 km/h (2 Bft) 96,00 %
04.11.2016 01:16 0,0 C 97 % 1021,2 hPa 0,0 l/m 4,2 km/h (1 Bft) NO 53 0 min 0,000 mm 0,0 UV-I 0 W/m -0,4 C 0,0 C 6,4 km/h (2 Bft) 100,00 %
04.11.2016 01:18 -0,1 C 97 % 1021,2 hPa 0,0 l/m 3,9 km/h (1 Bft) O-NO 62 0 min 0,000 mm 0,0 UV-I 0 W/m -0,5 C -0,1 C 6,4 km/h (2 Bft) 100,00 %
04.11.2016 01:20 -0,1 C 97 % 1021,3 hPa 0,0 l/m 4,4 km/h (1 Bft) O-NO 64 0 min 0,000 mm 0,0 UV-I 0 W/m -0,5 C -0,1 C 6,4 km/h (2 Bft) 100,00 %
04.11.2016 01:22 -0,1 C 97 % 1021,3 hPa 0,0 l/m 4,9 km/h (1 Bft) O-NO 66 0 min 0,000 mm 0,0 UV-I 0 W/m -0,5 C -0,1 C 6,4 km/h (2 Bft) 100,00 %
04.11.2016 01:24 -0,1 C 97 % 1021,3 hPa 0,0 l/m 4,7 km/h (1 Bft) O-NO 68 0 min 0,000 mm 0,0 UV-I 0 W/m -0,5 C -0,1 C 6,4 km/h (2 Bft) 100,00 %
04.11.2016 01:26 -0,2 C 97 % 1021,2 hPa 0,0 l/m 3,6 km/h (1 Bft) NO 53 0 min 0,000 mm 0,0 UV-I 0 W/m -0,6 C -0,2 C 6,4 km/h (2 Bft) 100,00 %
04.11.2016 01:28 -0,3 C 97 % 1021,2 hPa 0,0 l/m 4,0 km/h (1 Bft) NO 52 0 min 0,000 mm 0,0 UV-I 0 W/m -0,7 C -0,3 C 6,4 km/h (2 Bft) 97,87 %
04.11.2016 01:30 -0,3 C 97 % 1021,3 hPa 0,0 l/m 3,6 km/h (1 Bft) NO 52 0 min 0,000 mm 0,0 UV-I 0 W/m -0,7 C -0,3 C 6,4 km/h (2 Bft) 100,00 %
04.11.2016 01:32 -0,4 C 97 % 1021,3 hPa 0,0 l/m 3,2 km/h (1 Bft) NO 52 0 min 0,000 mm 0,0 UV-I 0 W/m -0,8 C -0,4 C 4,8 km/h (1 Bft) 100,00 %
04.11.2016 01:34 -0,6 C 97 % 1021,2 hPa 0,0 l/m 3,2 km/h (1 Bft) NO 52 0 min 0,000 mm 0,0 UV-I 0 W/m -1,0 C -0,6 C 4,8 km/h (1 Bft) 97,87 %
04.11.2016 01:36 -0,7 C 97 % 1021,2 hPa 0,0 l/m 2,7 km/h (1 Bft) NO 52 0 min 0,000 mm 0,0 UV-I 0 W/m -1,1 C -0,7 C 4,8 km/h (1 Bft) 100,00 %
04.11.2016 01:38 -0,7 C 97 % 1021,2 hPa 0,0 l/m 3,0 km/h (1 Bft) NO 52 0 min 0,000 mm 0,0 UV-I 0 W/m -1,1 C -0,7 C 4,8 km/h (1 Bft) 100,00 %
04.11.2016 01:40 -0,7 C 97 % 1021,2 hPa 0,0 l/m 2,7 km/h (1 Bft) NO 52 0 min 0,000 mm 0,0 UV-I 0 W/m -1,1 C -0,7 C 4,8 km/h (1 Bft) 100,00 %
04.11.2016 01:42 -0,7 C 97 % 1021,2 hPa 0,0 l/m 1,9 km/h (1 Bft) NO 52 0 min 0,000 mm 0,0 UV-I 0 W/m -1,1 C -0,7 C 3,2 km/h (1 Bft) 97,56 %
04.11.2016 01:44 -0,6 C 97 % 1021,2 hPa 0,0 l/m 2,0 km/h (1 Bft) NO 52 0 min 0,000 mm 0,0 UV-I 0 W/m -1,0 C -0,6 C 3,2 km/h (1 Bft) 100,00 %
04.11.2016 01:46 -0,7 C 97 % 1021,2 hPa 0,0 l/m 1,3 km/h (1 Bft) NO 52 0 min 0,000 mm 0,0 UV-I 0 W/m -1,1 C -0,7 C 3,2 km/h (1 Bft) 100,00 %
04.11.2016 01:48 -0,7 C 97 % 1021,3 hPa 0,0 l/m 1,1 km/h (1 Bft) NO 52 0 min 0,000 mm 0,0 UV-I 0 W/m -1,1 C -0,7 C 3,2 km/h (1 Bft) 100,00 %
04.11.2016 01:50 -0,8 C 97 % 1021,2 hPa 0,0 l/m 1,5 km/h (1 Bft) NO 52 0 min 0,000 mm 0,0 UV-I 0 W/m -1,2 C -0,8 C 3,2 km/h (1 Bft) 97,87 %
04.11.2016 01:52 -0,9 C 97 % 1021,2 hPa 0,0 l/m 1,0 km/h (0 Bft) NO 52 0 min 0,000 mm 0,0 UV-I 0 W/m -1,3 C -0,9 C 3,2 km/h (1 Bft) 100,00 %
04.11.2016 01:54 -1,1 C 97 % 1021,2 hPa 0,0 l/m 1,1 km/h (1 Bft) NO 52 0 min 0,000 mm 0,0 UV-I 0 W/m -1,5 C -1,1 C 3,2 km/h (1 Bft) 97,73 %
04.11.2016 01:56 -1,1 C 97 % 1021,2 hPa 0,0 l/m 1,5 km/h (1 Bft) NO 52 0 min 0,000 mm 0,0 UV-I 0 W/m -1,5 C -1,1 C 3,2 km/h (1 Bft) 100,00 %
04.11.2016 01:58 -1,1 C 97 % 1021,2 hPa 0,0 l/m 0,9 km/h (0 Bft) NO 52 0 min 0,000 mm 0,0 UV-I 0 W/m -1,5 C -1,1 C 1,6 km/h (1 Bft) 100,00 %
04.11.2016 02:00 -1,0 C 97 % 1021,2 hPa 0,0 l/m 2,3 km/h (1 Bft) O-NO 58 0 min 0,000 mm 0,0 UV-I 0 W/m -1,4 C -1,0 C 4,8 km/h (1 Bft) 100,00 %
04.11.2016 02:02 -0,8 C 97 % 1021,2 hPa 0,0 l/m 2,5 km/h (1 Bft) O-NO 58 0 min 0,000 mm 0,0 UV-I 0 W/m -1,2 C -0,8 C 4,8 km/h (1 Bft) 100,00 %
04.11.2016 02:04 -0,6 C 98 % 1021,2 hPa 0,0 l/m 1,4 km/h (1 Bft) O-NO 58 0 min 0,000 mm 0,0 UV-I 0 W/m -0,9 C -0,6 C 3,2 km/h (1 Bft) 95,74 %
04.11.2016 02:06 -0,5 C 98 % 1021,2 hPa 0,0 l/m 1,8 km/h (1 Bft) O-NO 58 0 min 0,000 mm 0,0 UV-I 0 W/m -0,8 C -0,5 C 3,2 km/h (1 Bft) 97,56 %
04.11.2016 02:08 -0,4 C 98 % 1021,2 hPa 0,0 l/m 0,5 km/h (0 Bft) O-NO 58 0 min 0,000 mm 0,0 UV-I 0 W/m -0,7 C -0,4 C 1,6 km/h (1 Bft) 100,00 %
04.11.2016 02:10 -0,5 C 98 % 1021,1 hPa 0,0 l/m 0,0 km/h (0 Bft) O-NO 58 0 min 0,000 mm 0,0 UV-I 0 W/m -0,8 C -0,5 C 1,6 km/h (1 Bft) 97,87 %
04.11.2016 02:12 -0,7 C 98 % 1021,1 hPa 0,0 l/m 0,3 km/h (0 Bft) O-NO 58 0 min 0,000 mm 0,0 UV-I 0 W/m -1,0 C -0,7 C 1,6 km/h (1 Bft) 100,00 %
04.11.2016 02:14 -0,8 C 97 % 1021,1 hPa 0,0 l/m 0,1 km/h (0 Bft) O-NO 58 0 min 0,000 mm 0,0 UV-I 0 W/m -1,2 C -0,8 C 1,6 km/h (1 Bft) 100,00 %
04.11.2016 02:16 -0,8 C 97 % 1021,1 hPa 0,0 l/m 2,3 km/h (1 Bft) O-NO 58 0 min 0,000 mm 0,0 UV-I 0 W/m -1,2 C -0,8 C 4,8 km/h (1 Bft) 100,00 %
04.11.2016 02:18 -0,9 C 97 % 1021,1 hPa 0,0 l/m 1,4 km/h (1 Bft) O-NO 58 0 min 0,000 mm 0,0 UV-I 0 W/m -1,3 C -0,9 C 3,2 km/h (1 Bft) 97,87 %
04.11.2016 02:20 -1,1 C 97 % 1021,1 hPa 0,0 l/m 1,6 km/h (1 Bft) O-NO 58 0 min 0,000 mm 0,0 UV-I 0 W/m -1,5 C -1,1 C 3,2 km/h (1 Bft) 100,00 %
04.11.2016 02:22 -1,0 C 97 % 1021,1 hPa 0,0 l/m 1,3 km/h (1 Bft) O-NO 58 0 min 0,000 mm 0,0 UV-I 0 W/m -1,4 C -1,0 C 1,6 km/h (1 Bft) 100,00 %
04.11.2016 02:24 -0,9 C 97 % 1021,1 hPa 0,0 l/m 1,0 km/h (0 Bft) O-NO 58 0 min 0,000 mm 0,0 UV-I 0 W/m -1,3 C -0,9 C 3,2 km/h (1 Bft) 100,00 %
04.11.2016 02:26 -0,8 C 97 % 1021,1 hPa 0,0 l/m 1,6 km/h (1 Bft) O-NO 58 0 min 0,000 mm 0,0 UV-I 0 W/m -1,2 C -0,8 C 3,2 km/h (1 Bft) 100,00 %
04.11.2016 02:28 -0,7 C 97 % 1021,1 hPa 0,0 l/m 2,5 km/h (1 Bft) O-NO 58 0 min 0,000 mm 0,0 UV-I 0 W/m -1,1 C -0,7 C 3,2 km/h (1 Bft) 100,00 %
04.11.2016 02:30 -0,8 C 97 % 1021,0 hPa 0,0 l/m 2,6 km/h (1 Bft) O-NO 58 0 min 0,000 mm 0,0 UV-I 0 W/m -1,2 C -0,8 C 3,2 km/h (1 Bft) 100,00 %
04.11.2016 02:32 -0,9 C 97 % 1021,0 hPa 0,0 l/m 2,5 km/h (1 Bft) O-NO 58 0 min 0,000 mm 0,0 UV-I 0 W/m -1,3 C -0,9 C 3,2 km/h (1 Bft) 100,00 %
04.11.2016 02:35 -1,0 C 97 % 1021,0 hPa 0,0 l/m 2,7 km/h (1 Bft) O-NO 58 0 min 0,000 mm 0,0 UV-I 0 W/m -1,4 C -1,0 C 4,8 km/h (1 Bft) 100,00 %
04.11.2016 02:36 -1,0 C 97 % 1021,0 hPa 0,0 l/m 3,1 km/h (1 Bft) O-NO 58 0 min 0,000 mm 0,0 UV-I 0 W/m -1,4 C -1,0 C 3,2 km/h (1 Bft) 100,00 %
04.11.2016 02:40 -1,1 C 97 % 1020,9 hPa 0,0 l/m 2,9 km/h (1 Bft) O-NO 58 0 min 0,000 mm 0,0 UV-I 0 W/m -1,5 C -1,1 C 4,8 km/h (1 Bft) 98,97 %
04.11.2016 02:42 -1,2 C 97 % 1020,9 hPa 0,0 l/m 3,3 km/h (1 Bft) O-NO 58 0 min 0,000 mm 0,0 UV-I 0 W/m -1,6 C -1,2 C 4,8 km/h (1 Bft) 100,00 %
04.11.2016 02:44 -1,2 C 97 % 1020,9 hPa 0,0 l/m 4,1 km/h (1 Bft) O-NO 58 0 min 0,000 mm 0,0 UV-I 0 W/m -1,6 C -1,2 C 4,8 km/h (1 Bft) 100,00 %
04.11.2016 02:46 -1,2 C 97 % 1020,9 hPa 0,0 l/m 3,9 km/h (1 Bft) O-NO 58 0 min 0,000 mm 0,0 UV-I 0 W/m -1,6 C -1,2 C 4,8 km/h (1 Bft) 97,56 %
04.11.2016 02:48 -1,2 C 97 % 1020,9 hPa 0,0 l/m 4,3 km/h (1 Bft) NO 51 0 min 0,000 mm 0,0 UV-I 0 W/m -1,6 C -1,2 C 6,4 km/h (2 Bft) 100,00 %
04.11.2016 02:50 -1,2 C 97 % 1020,9 hPa 0,0 l/m 4,6 km/h (1 Bft) NO 48 0 min 0,000 mm 0,0 UV-I 0 W/m -1,6 C -1,2 C 6,4 km/h (2 Bft) 95,74 %
04.11.2016 02:52 -1,3 C 97 % 1020,8 hPa 0,0 l/m 4,5 km/h (1 Bft) NO 45 0 min 0,000 mm 0,0 UV-I 0 W/m -1,7 C -1,3 C 6,4 km/h (2 Bft) 93,62 %
04.11.2016 02:54 -1,3 C 97 % 1020,9 hPa 0,0 l/m 4,3 km/h (1 Bft) N-NO 29 0 min 0,000 mm 0,0 UV-I 0 W/m -1,7 C -1,3 C 6,4 km/h (2 Bft) 98,00 %
04.11.2016 02:56 -1,3 C 97 % 1020,8 hPa 0,0 l/m 4,7 km/h (1 Bft) N-NO 26 0 min 0,000 mm 0,0 UV-I 0 W/m -1,7 C -1,3 C 6,4 km/h (2 Bft) 96,00 %
04.11.2016 02:58 -1,3 C 97 % 1020,8 hPa 0,0 l/m 5,2 km/h (1 Bft) N-NO 25 0 min 0,000 mm 0,0 UV-I 0 W/m -1,7 C -1,3 C 6,4 km/h (2 Bft) 97,56 %
04.11.2016 03:00 -1,3 C 97 % 1020,8 hPa 0,0 l/m 4,7 km/h (1 Bft) NO 34 0 min 0,000 mm 0,0 UV-I 0 W/m -1,7 C -1,3 C 6,4 km/h (2 Bft) 96,00 %
04.11.2016 03:02 -1,3 C 97 % 1020,8 hPa 0,0 l/m 4,1 km/h (1 Bft) NO 35 0 min 0,000 mm 0,0 UV-I 0 W/m -1,7 C -1,3 C 6,4 km/h (2 Bft) 98,00 %
04.11.2016 03:04 -1,4 C 97 % 1020,8 hPa 0,0 l/m 3,3 km/h (1 Bft) NO 35 0 min 0,000 mm 0,0 UV-I 0 W/m -1,8 C -1,4 C 4,8 km/h (1 Bft) 92,11 %
04.11.2016 03:06 -1,4 C 97 % 1020,7 hPa 0,0 l/m 2,6 km/h (1 Bft) NO 35 0 min 0,000 mm 0,0 UV-I 0 W/m -1,8 C -1,4 C 3,2 km/h (1 Bft) 97,22 %
04.11.2016 03:08 -1,4 C 97 % 1020,8 hPa 0,0 l/m 2,2 km/h (1 Bft) NO 35 0 min 0,000 mm 0,0 UV-I 0 W/m -1,8 C -1,4 C 3,2 km/h (1 Bft) 98,39 %
04.11.2016 03:10 -1,4 C 97 % 1020,7 hPa 0,0 l/m 2,2 km/h (1 Bft) NO 35 0 min 0,000 mm 0,0 UV-I 0 W/m -1,8 C -1,4 C 3,2 km/h (1 Bft) 97,96 %
04.11.2016 03:12 -1,4 C 97 % 1020,7 hPa 0,0 l/m 2,8 km/h (1 Bft) NO 35 0 min 0,000 mm 0,0 UV-I 0 W/m -1,8 C -1,4 C 3,2 km/h (1 Bft) 94,87 %
04.11.2016 03:14 -1,4 C 97 % 1020,7 hPa 0,0 l/m 1,8 km/h (1 Bft) NO 35 0 min 0,000 mm 0,0 UV-I 0 W/m -1,8 C -1,4 C 3,2 km/h (1 Bft) 96,23 %
04.11.2016 03:16 -1,4 C 98 % 1020,7 hPa 0,0 l/m 0,5 km/h (0 Bft) NO 35 0 min 0,000 mm 0,0 UV-I 0 W/m -1,7 C -1,4 C 1,6 km/h (1 Bft) 97,56 %
04.11.2016 03:18 -1,4 C 98 % 1020,7 hPa 0,0 l/m 0,1 km/h (0 Bft) NO 35 0 min 0,000 mm 0,0 UV-I 0 W/m -1,7 C -1,4 C 1,6 km/h (1 Bft) 97,87 %
04.11.2016 03:20 -1,4 C 98 % 1020,6 hPa 0,0 l/m 0,0 km/h (0 Bft) NO 35 0 min 0,000 mm 0,0 UV-I 0 W/m -1,7 C -1,4 C 1,6 km/h (1 Bft) 96,00 %
04.11.2016 03:22 -1,4 C 98 % 1020,6 hPa 0,0 l/m 0,0 km/h (0 Bft) NO 35 0 min 0,000 mm 0,0 UV-I 0 W/m -1,7 C -1,4 C 0,0 km/h (0 Bft) 97,87 %
04.11.2016 03:24 -1,4 C 98 % 1020,6 hPa 0,0 l/m 0,0 km/h (0 Bft) NO 35 0 min 0,000 mm 0,0 UV-I 0 W/m -1,7 C -1,4 C 0,0 km/h (0 Bft) 97,87 %
04.11.2016 03:26 -1,4 C 98 % 1020,7 hPa 0,0 l/m 0,0 km/h (0 Bft) NO 35 0 min 0,000 mm 0,0 UV-I 0 W/m -1,7 C -1,4 C 0,0 km/h (0 Bft) 100,00 %
04.11.2016 03:28 -1,4 C 98 % 1020,6 hPa 0,0 l/m 0,3 km/h (0 Bft) NO 35 0 min 0,000 mm 0,0 UV-I 0 W/m -1,7 C -1,4 C 1,6 km/h (1 Bft) 100,00 %
04.11.2016 03:30 -1,4 C 98 % 1020,7 hPa 0,0 l/m 0,9 km/h (0 Bft) NO 35 0 min 0,000 mm 0,0 UV-I 0 W/m -1,7 C -1,4 C 1,6 km/h (1 Bft) 100,00 %
04.11.2016 03:32 -1,3 C 97 % 1020,7 hPa 0,0 l/m 0,4 km/h (0 Bft) NO 35 0 min 0,000 mm 0,0 UV-I 0 W/m -1,7 C -1,3 C 1,6 km/h (1 Bft) 100,00 %
04.11.2016 03:34 -1,3 C 98 % 1020,7 hPa 0,0 l/m 0,0 km/h (0 Bft) NO 35 0 min 0,000 mm 0,0 UV-I 0 W/m -1,6 C -1,3 C 0,0 km/h (0 Bft) 100,00 %
04.11.2016 03:36 -1,2 C 98 % 1020,6 hPa 0,0 l/m 0,1 km/h (0 Bft) NO 35 0 min 0,000 mm 0,0 UV-I 0 W/m -1,5 C -1,2 C 1,6 km/h (1 Bft) 98,11 %
04.11.2016 03:38 -1,2 C 98 % 1020,7 hPa 0,0 l/m 0,8 km/h (0 Bft) O-NO 75 0 min 0,000 mm 0,0 UV-I 0 W/m -1,5 C -1,2 C 3,2 km/h (1 Bft) 100,00 %
04.11.2016 03:40 -1,1 C 98 % 1020,7 hPa 0,0 l/m 0,0 km/h (0 Bft) O-NO 75 0 min 0,000 mm 0,0 UV-I 0 W/m -1,4 C -1,1 C 1,6 km/h (1 Bft) 100,00 %
04.11.2016 03:42 -1,0 C 98 % 1020,6 hPa 0,0 l/m 0,2 km/h (0 Bft) O-NO 75 0 min 0,000 mm 0,0 UV-I 0 W/m -1,3 C -1,0 C 1,6 km/h (1 Bft) 100,00 %
04.11.2016 03:44 -1,0 C 98 % 1020,6 hPa 0,0 l/m 0,2 km/h (0 Bft) O-NO 75 0 min 0,000 mm 0,0 UV-I 0 W/m -1,3 C -1,0 C 1,6 km/h (1 Bft) 100,00 %
04.11.2016 03:46 -0,9 C 98 % 1020,6 hPa 0,0 l/m 0,2 km/h (0 Bft) O-NO 75 0 min 0,000 mm 0,0 UV-I 0 W/m -1,2 C -0,9 C 1,6 km/h (1 Bft) 100,00 %
04.11.2016 03:48 -0,9 C 98 % 1020,6 hPa 0,0 l/m 0,1 km/h (0 Bft) O-NO 75 0 min 0,000 mm 0,0 UV-I 0 W/m -1,2 C -0,9 C 1,6 km/h (1 Bft) 100,00 %
04.11.2016 03:50 -0,9 C 98 % 1020,6 hPa 0,0 l/m 0,3 km/h (0 Bft) O-NO 75 0 min 0,000 mm 0,0 UV-I 0 W/m -1,2 C -0,9 C 1,6 km/h (1 Bft) 97,87 %
04.11.2016 03:52 -1,0 C 98 % 1020,6 hPa 0,0 l/m 1,3 km/h (1 Bft) O-NO 75 0 min 0,000 mm 0,0 UV-I 0 W/m -1,3 C -1,0 C 3,2 km/h (1 Bft) 94,44 %
04.11.2016 03:54 -1,0 C 98 % 1020,6 hPa 0,0 l/m 2,3 km/h (1 Bft) O-NO 74 0 min 0,000 mm 0,0 UV-I 0 W/m -1,3 C -1,0 C 4,8 km/h (1 Bft) 100,00 %
04.11.2016 03:56 -1,0 C 98 % 1020,6 hPa 0,0 l/m 3,7 km/h (1 Bft) NO 54 0 min 0,000 mm 0,0 UV-I 0 W/m -1,3 C -1,0 C 4,8 km/h (1 Bft) 100,00 %
04.11.2016 03:58 -1,0 C 98 % 1020,6 hPa 0,0 l/m 2,8 km/h (1 Bft) NO 53 0 min 0,000 mm 0,0 UV-I 0 W/m -1,3 C -1,0 C 4,8 km/h (1 Bft) 96,77 %
04.11.2016 04:00 -1,1 C 98 % 1020,6 hPa 0,0 l/m 4,5 km/h (1 Bft) NO 55 0 min 0,000 mm 0,0 UV-I 0 W/m -1,4 C -1,1 C 6,4 km/h (2 Bft) 96,23 %
04.11.2016 04:02 -1,1 C 98 % 1020,6 hPa 0,0 l/m 4,0 km/h (1 Bft) NO 55 0 min 0,000 mm 0,0 UV-I 0 W/m -1,4 C -1,1 C 4,8 km/h (1 Bft) 100,00 %
04.11.2016 04:04 -1,2 C 98 % 1020,6 hPa 0,0 l/m 4,0 km/h (1 Bft) O-NO 59 0 min 0,000 mm 0,0 UV-I 0 W/m -1,5 C -1,2 C 6,4 km/h (2 Bft) 97,14 %
04.11.2016 04:06 -1,2 C 98 % 1020,6 hPa 0,0 l/m 5,3 km/h (1 Bft) NO 49 0 min 0,000 mm 0,0 UV-I 0 W/m -1,5 C -1,2 C 6,4 km/h (2 Bft) 98,00 %
04.11.2016 04:08 -1,2 C 98 % 1020,6 hPa 0,0 l/m 4,4 km/h (1 Bft) NO 55 0 min 0,000 mm 0,0 UV-I 0 W/m -1,5 C -1,2 C 6,4 km/h (2 Bft) 100,00 %
04.11.2016 04:10 -1,3 C 97 % 1020,6 hPa 0,0 l/m 4,2 km/h (1 Bft) O-NO 59 0 min 0,000 mm 0,0 UV-I 0 W/m -1,7 C -1,3 C 4,8 km/h (1 Bft) 97,37 %
04.11.2016 04:12 -1,3 C 97 % 1020,5 hPa 0,0 l/m 3,2 km/h (1 Bft) O-NO 59 0 min 0,000 mm 0,0 UV-I 0 W/m -1,7 C -1,3 C 4,8 km/h (1 Bft) 98,00 %
04.11.2016 04:14 -1,3 C 98 % 1020,5 hPa 0,0 l/m 4,7 km/h (1 Bft) O-NO 69 0 min 0,000 mm 0,0 UV-I 0 W/m -1,6 C -1,3 C 6,4 km/h (2 Bft) 100,00 %
04.11.2016 04:16 -1,3 C 98 % 1020,5 hPa 0,0 l/m 5,0 km/h (1 Bft) O 81 0 min 0,000 mm 0,0 UV-I 0 W/m -1,6 C -1,3 C 6,4 km/h (2 Bft) 98,00 %
04.11.2016 04:18 -1,3 C 98 % 1020,5 hPa 0,0 l/m 4,8 km/h (1 Bft) O-NO 63 0 min 0,000 mm 0,0 UV-I 0 W/m -1,6 C -1,3 C 8,0 km/h (2 Bft) 100,00 %
04.11.2016 04:20 -1,3 C 98 % 1020,5 hPa 0,0 l/m 3,7 km/h (1 Bft) O-NO 69 0 min 0,000 mm 0,0 UV-I 0 W/m -1,6 C -1,3 C 6,4 km/h (2 Bft) 100,00 %
04.11.2016 04:22 -1,3 C 98 % 1020,5 hPa 0,0 l/m 3,1 km/h (1 Bft) O-NO 65 0 min 0,000 mm 0,0 UV-I 0 W/m -1,6 C -1,3 C 4,8 km/h (1 Bft) 100,00 %
04.11.2016 04:24 -1,3 C 98 % 1020,5 hPa 0,0 l/m 3,1 km/h (1 Bft) O-NO 64 0 min 0,000 mm 0,0 UV-I 0 W/m -1,6 C -1,3 C 4,8 km/h (1 Bft) 98,11 %
04.11.2016 04:26 -1,2 C 98 % 1020,5 hPa 0,0 l/m 2,7 km/h (1 Bft) O-NO 64 0 min 0,000 mm 0,0 UV-I 0 W/m -1,5 C -1,2 C 4,8 km/h (1 Bft) 100,00 %
04.11.2016 04:28 -1,2 C 98 % 1020,5 hPa 0,0 l/m 2,6 km/h (1 Bft) O-NO 64 0 min 0,000 mm 0,0 UV-I 0 W/m -1,5 C -1,2 C 4,8 km/h (1 Bft) 100,00 %
04.11.2016 04:30 -1,2 C 98 % 1020,5 hPa 0,0 l/m 2,9 km/h (1 Bft) O-NO 64 0 min 0,000 mm 0,0 UV-I 0 W/m -1,5 C -1,2 C 3,2 km/h (1 Bft) 100,00 %
04.11.2016 04:32 -1,2 C 98 % 1020,4 hPa 0,0 l/m 4,0 km/h (1 Bft) O-NO 62 0 min 0,000 mm 0,0 UV-I 0 W/m -1,5 C -1,2 C 6,4 km/h (2 Bft) 100,00 %
04.11.2016 04:34 -1,1 C 98 % 1020,4 hPa 0,0 l/m 4,3 km/h (1 Bft) O-NO 59 0 min 0,000 mm 0,0 UV-I 0 W/m -1,4 C -1,1 C 6,4 km/h (2 Bft) 100,00 %
04.11.2016 04:36 -1,1 C 98 % 1020,4 hPa 0,0 l/m 3,9 km/h (1 Bft) O-NO 59 0 min 0,000 mm 0,0 UV-I 0 W/m -1,4 C -1,1 C 6,4 km/h (2 Bft) 100,00 %
04.11.2016 04:38 -1,1 C 98 % 1020,4 hPa 0,0 l/m 4,6 km/h (1 Bft) NO 49 0 min 0,000 mm 0,0 UV-I 0 W/m -1,4 C -1,1 C 6,4 km/h (2 Bft) 100,00 %
04.11.2016 04:40 -1,1 C 98 % 1020,4 hPa 0,0 l/m 3,1 km/h (1 Bft) NO 49 0 min 0,000 mm 0,0 UV-I 0 W/m -1,4 C -1,1 C 4,8 km/h (1 Bft) 100,00 %
04.11.2016 04:42 -1,1 C 98 % 1020,3 hPa 0,0 l/m 3,8 km/h (1 Bft) O-NO 67 0 min 0,000 mm 0,0 UV-I 0 W/m -1,4 C -1,1 C 6,4 km/h (2 Bft) 100,00 %
04.11.2016 04:44 -1,1 C 98 % 1020,3 hPa 0,0 l/m 2,3 km/h (1 Bft) O-NO 67 0 min 0,000 mm 0,0 UV-I 0 W/m -1,4 C -1,1 C 3,2 km/h (1 Bft) 98,00 %
04.11.2016 04:46 -1,0 C 98 % 1020,4 hPa 0,0 l/m 3,4 km/h (1 Bft) O-NO 69 0 min 0,000 mm 0,0 UV-I 0 W/m -1,3 C -1,0 C 4,8 km/h (1 Bft) 100,00 %
04.11.2016 04:48 -0,9 C 98 % 1020,4 hPa 0,0 l/m 3,1 km/h (1 Bft) O-NO 61 0 min 0,000 mm 0,0 UV-I 0 W/m -1,2 C -0,9 C 4,8 km/h (1 Bft) 100,00 %
04.11.2016 04:50 -0,9 C 98 % 1020,5 hPa 0,0 l/m 2,1 km/h (1 Bft) O-SO 109 0 min 0,000 mm 0,0 UV-I 0 W/m -1,2 C -0,9 C 3,2 km/h (1 Bft) 100,00 %
04.11.2016 04:52 -0,9 C 98 % 1020,4 hPa 0,0 l/m 3,2 km/h (1 Bft) O 89 0 min 0,000 mm 0,0 UV-I 0 W/m -1,2 C -0,9 C 4,8 km/h (1 Bft) 100,00 %
04.11.2016 04:54 -0,9 C 98 % 1020,4 hPa 0,0 l/m 3,9 km/h (1 Bft) O-NO 60 0 min 0,000 mm 0,0 UV-I 0 W/m -1,2 C -0,9 C 4,8 km/h (1 Bft) 97,14 %
04.11.2016 04:56 -0,9 C 98 % 1020,4 hPa 0,0 l/m 1,8 km/h (1 Bft) O-NO 60 0 min 0,000 mm 0,0 UV-I 0 W/m -1,2 C -0,9 C 3,2 km/h (1 Bft) 98,11 %
04.11.2016 04:58 -0,9 C 98 % 1020,5 hPa 0,0 l/m 0,3 km/h (0 Bft) O-NO 60 0 min 0,000 mm 0,0 UV-I 0 W/m -1,2 C -0,9 C 1,6 km/h (1 Bft) 96,23 %
04.11.2016 05:00 -0,9 C 98 % 1020,4 hPa 0,0 l/m 1,0 km/h (0 Bft) O-NO 60 0 min 0,000 mm 0,0 UV-I 0 W/m -1,2 C -0,9 C 3,2 km/h (1 Bft) 97,37 %
04.11.2016 05:02 -0,9 C 98 % 1020,3 hPa 0,0 l/m 1,4 km/h (1 Bft) O-NO 60 0 min 0,000 mm 0,0 UV-I 0 W/m -1,2 C -0,9 C 3,2 km/h (1 Bft) 98,00 %
04.11.2016 05:04 -0,9 C 98 % 1020,3 hPa 0,0 l/m 2,1 km/h (1 Bft) O-NO 71 0 min 0,000 mm 0,0 UV-I 0 W/m -1,2 C -0,9 C 3,2 km/h (1 Bft) 96,00 %
04.11.2016 05:06 -0,9 C 98 % 1020,3 hPa 0,0 l/m 1,1 km/h (1 Bft) O-NO 71 0 min 0,000 mm 0,0 UV-I 0 W/m -1,2 C -0,9 C 3,2 km/h (1 Bft) 94,87 %
04.11.2016 05:08 -0,9 C 98 % 1020,3 hPa 0,0 l/m 0,8 km/h (0 Bft) O-NO 71 0 min 0,000 mm 0,0 UV-I 0 W/m -1,2 C -0,9 C 3,2 km/h (1 Bft) 98,00 %
04.11.2016 05:10 -0,9 C 98 % 1020,2 hPa 0,0 l/m 0,0 km/h (0 Bft) O-NO 71 0 min 0,000 mm 0,0 UV-I 0 W/m -1,2 C -0,9 C 0,0 km/h (0 Bft) 93,62 %
04.11.2016 05:12 -0,9 C 98 % 1020,2 hPa 0,0 l/m 0,0 km/h (0 Bft) O-NO 71 0 min 0,000 mm 0,0 UV-I 0 W/m -1,2 C -0,9 C 0,0 km/h (0 Bft) 98,00 %
04.11.2016 05:14 -0,9 C 98 % 1020,2 hPa 0,0 l/m 0,3 km/h (0 Bft) O-NO 71 0 min 0,000 mm 0,0 UV-I 0 W/m -1,2 C -0,9 C 1,6 km/h (1 Bft) 95,74 %
04.11.2016 05:16 -0,9 C 98 % 1020,2 hPa 0,0 l/m 0,2 km/h (0 Bft) O-NO 71 0 min 0,000 mm 0,0 UV-I 0 W/m -1,2 C -0,9 C 1,6 km/h (1 Bft) 97,56 %
04.11.2016 05:18 -0,9 C 98 % 1020,2 hPa 0,0 l/m 0,3 km/h (0 Bft) O-NO 71 0 min 0,000 mm 0,0 UV-I 0 W/m -1,2 C -0,9 C 1,6 km/h (1 Bft) 97,87 %
04.11.2016 05:20 -0,9 C 98 % 1020,1 hPa 0,0 l/m 0,0 km/h (0 Bft) O-NO 71 0 min 0,000 mm 0,0 UV-I 0 W/m -1,2 C -0,9 C 0,0 km/h (0 Bft) 95,74 %
04.11.2016 05:22 -0,9 C 98 % 1020,1 hPa 0,0 l/m 1,2 km/h (1 Bft) O-NO 71 0 min 0,000 mm 0,0 UV-I 0 W/m -1,2 C -0,9 C 3,2 km/h (1 Bft) 98,11 %
04.11.2016 05:24 -0,9 C 98 % 1020,2 hPa 0,0 l/m 1,1 km/h (1 Bft) O-NO 71 0 min 0,000 mm 0,0 UV-I 0 W/m -1,2 C -0,9 C 3,2 km/h (1 Bft) 97,87 %
04.11.2016 05:26 -0,9 C 98 % 1020,1 hPa 0,0 l/m 1,8 km/h (1 Bft) O-NO 71 0 min 0,000 mm 0,0 UV-I 0 W/m -1,2 C -0,9 C 3,2 km/h (1 Bft) 97,87 %
04.11.2016 05:28 -0,9 C 98 % 1020,1 hPa 0,0 l/m 2,2 km/h (1 Bft) O-NO 71 0 min 0,000 mm 0,0 UV-I 0 W/m -1,2 C -0,9 C 4,8 km/h (1 Bft) 97,56 %
04.11.2016 05:30 -0,9 C 98 % 1020,0 hPa 0,0 l/m 3,2 km/h (1 Bft) O-NO 71 0 min 0,000 mm 0,0 UV-I 0 W/m -1,2 C -0,9 C 4,8 km/h (1 Bft) 100,00 %
04.11.2016 05:32 -1,0 C 98 % 1020,0 hPa 0,0 l/m 1,5 km/h (1 Bft) O-NO 71 0 min 0,000 mm 0,0 UV-I 0 W/m -1,3 C -1,0 C 3,2 km/h (1 Bft) 98,00 %
04.11.2016 05:34 -1,0 C 98 % 1020,0 hPa 0,0 l/m 1,1 km/h (1 Bft) O-NO 74 0 min 0,000 mm 0,0 UV-I 0 W/m -1,3 C -1,0 C 3,2 km/h (1 Bft) 100,00 %
04.11.2016 05:36 -1,0 C 98 % 1020,1 hPa 0,0 l/m 1,5 km/h (1 Bft) O-SO 117 0 min 0,000 mm 0,0 UV-I 0 W/m -1,3 C -1,0 C 3,2 km/h (1 Bft) 98,15 %
04.11.2016 05:38 -1,1 C 98 % 1020,1 hPa 0,0 l/m 0,6 km/h (0 Bft) O-SO 117 0 min 0,000 mm 0,0 UV-I 0 W/m -1,4 C -1,1 C 1,6 km/h (1 Bft) 100,00 %
04.11.2016 05:40 -1,1 C 98 % 1020,1 hPa 0,0 l/m 0,8 km/h (0 Bft) SO 129 0 min 0,000 mm 0,0 UV-I 0 W/m -1,4 C -1,1 C 3,2 km/h (1 Bft) 100,00 %
04.11.2016 05:42 -1,1 C 98 % 1020,1 hPa 0,0 l/m 0,1 km/h (0 Bft) SO 129 0 min 0,000 mm 0,0 UV-I 0 W/m -1,4 C -1,1 C 1,6 km/h (1 Bft) 97,56 %
04.11.2016 05:44 -1,1 C 98 % 1020,1 hPa 0,0 l/m 1,0 km/h (0 Bft) SO 130 0 min 0,000 mm 0,0 UV-I 0 W/m -1,4 C -1,1 C 3,2 km/h (1 Bft) 100,00 %
04.11.2016 05:46 -1,1 C 98 % 1020,1 hPa 0,0 l/m 1,4 km/h (1 Bft) SO 131 0 min 0,000 mm 0,0 UV-I 0 W/m -1,4 C -1,1 C 3,2 km/h (1 Bft) 100,00 %
04.11.2016 05:48 -1,1 C 98 % 1020,1 hPa 0,0 l/m 0,1 km/h (0 Bft) SO 130 0 min 0,000 mm 0,0 UV-I 0 W/m -1,4 C -1,1 C 1,6 km/h (1 Bft) 100,00 %
04.11.2016 05:50 -1,1 C 98 % 1020,1 hPa 0,0 l/m 0,6 km/h (0 Bft) S 182 0 min 0,000 mm 0,0 UV-I 0 W/m -1,4 C -1,1 C 3,2 km/h (1 Bft) 100,00 %
04.11.2016 05:52 -1,0 C 98 % 1020,0 hPa 0,0 l/m 2,6 km/h (1 Bft) S 188 0 min 0,000 mm 0,0 UV-I 0 W/m -1,3 C -1,0 C 4,8 km/h (1 Bft) 100,00 %
04.11.2016 05:54 -1,0 C 98 % 1020,1 hPa 0,0 l/m 2,0 km/h (1 Bft) S 189 0 min 0,000 mm 0,0 UV-I 0 W/m -1,3 C -1,0 C 4,8 km/h (1 Bft) 100,00 %
04.11.2016 05:56 -1,1 C 98 % 1020,1 hPa 0,0 l/m 2,8 km/h (1 Bft) S 189 0 min 0,000 mm 0,0 UV-I 0 W/m -1,4 C -1,1 C 4,8 km/h (1 Bft) 97,37 %
04.11.2016 05:58 -1,1 C 98 % 1020,0 hPa 0,0 l/m 0,5 km/h (0 Bft) S 189 0 min 0,000 mm 0,0 UV-I 0 W/m -1,4 C -1,1 C 1,6 km/h (1 Bft) 100,00 %
04.11.2016 06:00 -1,2 C 98 % 1020,0 hPa 0,0 l/m 0,2 km/h (0 Bft) S 189 0 min 0,000 mm 0,0 UV-I 0 W/m -1,5 C -1,2 C 1,6 km/h (1 Bft) 97,56 %
04.11.2016 06:02 -1,2 C 98 % 1020,0 hPa 0,0 l/m 1,2 km/h (1 Bft) S 189 0 min 0,000 mm 0,0 UV-I 0 W/m -1,5 C -1,2 C 3,2 km/h (1 Bft) 97,87 %
04.11.2016 06:04 -1,3 C 98 % 1020,0 hPa 0,0 l/m 1,4 km/h (1 Bft) S 189 0 min 0,000 mm 0,0 UV-I 0 W/m -1,6 C -1,3 C 3,2 km/h (1 Bft) 97,87 %
04.11.2016 06:06 -1,3 C 98 % 1019,9 hPa 0,0 l/m 1,3 km/h (1 Bft) S 189 0 min 0,000 mm 0,0 UV-I 0 W/m -1,6 C -1,3 C 3,2 km/h (1 Bft) 100,00 %
04.11.2016 06:08 -1,3 C 98 % 1019,9 hPa 0,0 l/m 2,6 km/h (1 Bft) S 189 0 min 0,000 mm 0,0 UV-I 0 W/m -1,6 C -1,3 C 4,8 km/h (1 Bft) 100,00 %
04.11.2016 06:10 -1,3 C 98 % 1019,9 hPa 0,0 l/m 2,5 km/h (1 Bft) S 189 0 min 0,000 mm 0,0 UV-I 0 W/m -1,6 C -1,3 C 3,2 km/h (1 Bft) 97,56 %
04.11.2016 06:12 -1,3 C 98 % 1019,9 hPa 0,0 l/m 1,9 km/h (1 Bft) S 191 0 min 0,000 mm 0,0 UV-I 0 W/m -1,6 C -1,3 C 4,8 km/h (1 Bft) 98,00 %
04.11.2016 06:14 -1,3 C 98 % 1019,9 hPa 0,0 l/m 0,5 km/h (0 Bft) S 191 0 min 0,000 mm 0,0 UV-I 0 W/m -1,6 C -1,3 C 1,6 km/h (1 Bft) 97,50 %
04.11.2016 06:16 -1,4 C 98 % 1019,9 hPa 0,0 l/m 0,1 km/h (0 Bft) S 191 0 min 0,000 mm 0,0 UV-I 0 W/m -1,7 C -1,4 C 1,6 km/h (1 Bft) 100,00 %
04.11.2016 06:18 -1,3 C 98 % 1019,9 hPa 0,0 l/m 0,0 km/h (0 Bft) S 191 0 min 0,000 mm 0,0 UV-I 0 W/m -1,6 C -1,3 C 0,0 km/h (0 Bft) 100,00 %
04.11.2016 06:20 -1,4 C 98 % 1019,9 hPa 0,0 l/m 0,0 km/h (0 Bft) S 191 0 min 0,000 mm 0,0 UV-I 0 W/m -1,7 C -1,4 C 0,0 km/h (0 Bft) 100,00 %
04.11.2016 06:22 -1,4 C 98 % 1019,8 hPa 0,0 l/m 0,0 km/h (0 Bft) S 190 0 min 0,000 mm 0,0 UV-I 0 W/m -1,7 C -1,4 C 0,0 km/h (0 Bft) 98,11 %
04.11.2016 06:24 -1,4 C 98 % 1019,8 hPa 0,0 l/m 0,0 km/h (0 Bft) S 190 0 min 0,000 mm 0,0 UV-I 0 W/m -1,7 C -1,4 C 0,0 km/h (0 Bft) 100,00 %
04.11.2016 06:26 -1,4 C 98 % 1019,7 hPa 0,0 l/m 0,0 km/h (0 Bft) S 190 0 min 0,000 mm 0,0 UV-I 0 W/m -1,7 C -1,4 C 1,6 km/h (1 Bft) 97,44 %
04.11.2016 06:28 -1,4 C 98 % 1019,7 hPa 0,0 l/m 0,0 km/h (0 Bft) S 190 0 min 0,000 mm 0,0 UV-I 0 W/m -1,7 C -1,4 C 1,6 km/h (1 Bft) 100,00 %
04.11.2016 06:30 -1,5 C 98 % 1019,8 hPa 0,0 l/m 0,5 km/h (0 Bft) S 190 0 min 0,000 mm 0,0 UV-I 0 W/m -1,8 C -1,5 C 1,6 km/h (1 Bft) 98,00 %
04.11.2016 06:32 -1,5 C 98 % 1019,8 hPa 0,0 l/m 1,5 km/h (1 Bft) S 190 0 min 0,000 mm 0,0 UV-I 0 W/m -1,8 C -1,5 C 3,2 km/h (1 Bft) 100,00 %
04.11.2016 06:34 -1,4 C 98 % 1019,9 hPa 0,0 l/m 0,4 km/h (0 Bft) S 191 0 min 0,000 mm 0,0 UV-I 0 W/m -1,7 C -1,4 C 1,6 km/h (1 Bft) 100,00 %
04.11.2016 06:36 -1,5 C 98 % 1019,9 hPa 0,0 l/m 0,3 km/h (0 Bft) S 190 0 min 0,000 mm 0,0 UV-I 0 W/m -1,8 C -1,5 C 1,6 km/h (1 Bft) 100,00 %
04.11.2016 06:38 -1,5 C 98 % 1019,9 hPa 0,0 l/m 2,4 km/h (1 Bft) S 191 0 min 0,000 mm 0,0 UV-I 0 W/m -1,8 C -1,5 C 4,8 km/h (1 Bft) 100,00 %
04.11.2016 06:40 -1,4 C 98 % 1019,9 hPa 0,0 l/m 2,1 km/h (1 Bft) S 190 0 min 0,000 mm 0,0 UV-I 0 W/m -1,7 C -1,4 C 3,2 km/h (1 Bft) 100,00 %
04.11.2016 06:42 -1,4 C 98 % 1019,9 hPa 0,0 l/m 0,0 km/h (0 Bft) S 191 0 min 0,000 mm 0,0 UV-I 0 W/m -1,7 C -1,4 C 0,0 km/h (0 Bft) 100,00 %
04.11.2016 06:44 -1,5 C 98 % 1019,9 hPa 0,0 l/m 0,2 km/h (0 Bft) S 191 0 min 0,000 mm 0,0 UV-I 0 W/m -1,8 C -1,5 C 1,6 km/h (1 Bft) 100,00 %
04.11.2016 06:46 -1,6 C 98 % 1019,8 hPa 0,0 l/m 0,1 km/h (0 Bft) S 190 0 min 0,000 mm 0,0 UV-I 0 W/m -1,9 C -1,6 C 1,6 km/h (1 Bft) 97,87 %
04.11.2016 06:48 -1,6 C 98 % 1019,9 hPa 0,0 l/m 0,0 km/h (0 Bft) S 190 0 min 0,000 mm 0,0 UV-I 1 W/m -1,9 C -1,6 C 0,0 km/h (0 Bft) 100,00 %
04.11.2016 06:50 -1,6 C 98 % 1019,9 hPa 0,0 l/m 0,2 km/h (0 Bft) S 190 0 min 0,000 mm 0,0 UV-I 5 W/m -1,9 C -1,6 C 1,6 km/h (1 Bft) 100,00 %
04.11.2016 06:52 -1,6 C 98 % 1019,9 hPa 0,0 l/m 1,1 km/h (1 Bft) S 191 0 min 0,000 mm 0,0 UV-I 5 W/m -1,9 C -1,6 C 3,2 km/h (1 Bft) 100,00 %
04.11.2016 06:54 -1,6 C 98 % 1019,9 hPa 0,0 l/m 1,2 km/h (1 Bft) S 191 0 min 0,000 mm 0,0 UV-I 5 W/m -1,9 C -1,6 C 1,6 km/h (1 Bft) 97,56 %
04.11.2016 06:56 -1,6 C 98 % 1019,9 hPa 0,0 l/m 0,2 km/h (0 Bft) S 191 0 min 0,000 mm 0,0 UV-I 6 W/m -1,9 C -1,6 C 1,6 km/h (1 Bft) 98,21 %
04.11.2016 06:58 -1,6 C 98 % 1019,9 hPa 0,0 l/m 0,0 km/h (0 Bft) S 190 0 min 0,000 mm 0,0 UV-I 7 W/m -1,9 C -1,6 C 0,0 km/h (0 Bft) 97,87 %
04.11.2016 07:00 -1,6 C 98 % 1019,9 hPa 0,0 l/m 1,3 km/h (1 Bft) W-SW 252 0 min 0,000 mm 0,0 UV-I 7 W/m -1,9 C -1,6 C 3,2 km/h (1 Bft) 93,62 %
04.11.2016 07:02 -1,5 C 98 % 1019,8 hPa 0,0 l/m 2,1 km/h (1 Bft) W-SW 252 0 min 0,000 mm 0,0 UV-I 9 W/m -1,8 C -1,5 C 4,8 km/h (1 Bft) 100,00 %
04.11.2016 07:04 -1,5 C 98 % 1019,8 hPa 0,0 l/m 0,0 km/h (0 Bft) W-SW 252 0 min 0,000 mm 0,0 UV-I 9 W/m -1,8 C -1,5 C 0,0 km/h (0 Bft) 96,23 %
04.11.2016 07:06 -1,5 C 98 % 1019,8 hPa 0,0 l/m 0,6 km/h (0 Bft) W-SW 252 2 min 0,000 mm 0,0 UV-I 11 W/m -1,8 C -1,5 C 3,2 km/h (1 Bft) 97,87 %
04.11.2016 07:08 -1,6 C 98 % 1019,8 hPa 0,0 l/m 1,0 km/h (0 Bft) W-SW 252 0 min 0,000 mm 0,0 UV-I 11 W/m -1,9 C -1,6 C 3,2 km/h (1 Bft) 98,00 %
04.11.2016 07:10 -1,6 C 98 % 1019,7 hPa 0,0 l/m 0,1 km/h (0 Bft) W-SW 252 0 min 0,000 mm 0,0 UV-I 11 W/m -1,9 C -1,6 C 1,6 km/h (1 Bft) 98,11 %
04.11.2016 07:12 -1,6 C 98 % 1019,8 hPa 0,0 l/m 1,1 km/h (1 Bft) W-SW 252 0 min 0,000 mm 0,0 UV-I 12 W/m -1,9 C -1,6 C 3,2 km/h (1 Bft) 97,87 %
04.11.2016 07:14 -1,6 C 98 % 1019,8 hPa 0,0 l/m 0,2 km/h (0 Bft) W-SW 252 0 min 0,000 mm 0,0 UV-I 12 W/m -1,9 C -1,6 C 1,6 km/h (1 Bft) 97,37 %
04.11.2016 07:16 -1,7 C 98 % 1019,8 hPa 0,0 l/m 0,0 km/h (0 Bft) W-SW 252 0 min 0,000 mm 0,0 UV-I 14 W/m -2,0 C -1,7 C 0,0 km/h (0 Bft) 97,87 %
04.11.2016 07:18 -1,7 C 98 % 1019,8 hPa 0,0 l/m 0,0 km/h (0 Bft) W-SW 252 0 min 0,000 mm 0,0 UV-I 14 W/m -2,0 C -1,7 C 0,0 km/h (0 Bft) 93,62 %
04.11.2016 07:20 -1,7 C 98 % 1019,7 hPa 0,0 l/m 0,2 km/h (0 Bft) W-SW 252 0 min 0,000 mm 0,0 UV-I 14 W/m -2,0 C -1,7 C 1,6 km/h (1 Bft) 98,00 %
04.11.2016 07:22 -1,7 C 98 % 1019,8 hPa 0,0 l/m 0,0 km/h (0 Bft) W-SW 252 0 min 0,000 mm 0,0 UV-I 14 W/m -2,0 C -1,7 C 0,0 km/h (0 Bft) 98,00 %
04.11.2016 07:24 -1,6 C 98 % 1019,8 hPa 0,0 l/m 0,0 km/h (0 Bft) W-SW 252 0 min 0,000 mm 0,0 UV-I 14 W/m -1,9 C -1,6 C 1,6 km/h (1 Bft) 97,37 %
04.11.2016 07:26 -1,7 C 98 % 1019,9 hPa 0,0 l/m 0,0 km/h (0 Bft) W-SW 252 0 min 0,000 mm 0,0 UV-I 14 W/m -2,0 C -1,7 C 0,0 km/h (0 Bft) 94,64 %
04.11.2016 07:28 -1,7 C 98 % 1019,9 hPa 0,0 l/m 0,0 km/h (0 Bft) W-SW 252 0 min 0,000 mm 0,0 UV-I 15 W/m -2,0 C -1,7 C 0,0 km/h (0 Bft) 97,87 %
04.11.2016 07:30 -1,7 C 98 % 1020,0 hPa 0,0 l/m 0,0 km/h (0 Bft) W-SW 252 0 min 0,000 mm 0,0 UV-I 19 W/m -2,0 C -1,7 C 0,0 km/h (0 Bft) 97,87 %
04.11.2016 07:32 -1,7 C 98 % 1020,0 hPa 0,0 l/m 0,0 km/h (0 Bft) W-SW 252 0 min 0,000 mm 0,0 UV-I 19 W/m -2,0 C -1,7 C 0,0 km/h (0 Bft) 100,00 %
04.11.2016 07:34 -1,7 C 98 % 1020,0 hPa 0,0 l/m 0,0 km/h (0 Bft) W-SW 252 0 min 0,000 mm 0,0 UV-I 20 W/m -2,0 C -1,7 C 0,0 km/h (0 Bft) 98,00 %
04.11.2016 07:36 -1,7 C 98 % 1020,0 hPa 0,0 l/m 0,2 km/h (0 Bft) W-SW 254 0 min 0,000 mm 0,0 UV-I 21 W/m -2,0 C -1,7 C 3,2 km/h (1 Bft) 100,00 %
04.11.2016 07:38 -1,7 C 98 % 1019,9 hPa 0,0 l/m 1,8 km/h (1 Bft) W 278 0 min 0,000 mm 0,0 UV-I 20 W/m -2,0 C -1,7 C 3,2 km/h (1 Bft) 100,00 %
04.11.2016 07:40 -1,7 C 98 % 1019,9 hPa 0,0 l/m 2,5 km/h (1 Bft) N-NO 21 0 min 0,000 mm 0,0 UV-I 27 W/m -2,0 C -1,7 C 4,8 km/h (1 Bft) 100,00 %
04.11.2016 07:42 -1,7 C 98 % 1019,9 hPa 0,0 l/m 1,5 km/h (1 Bft) N-NO 21 0 min 0,000 mm 0,0 UV-I 29 W/m -2,0 C -1,7 C 3,2 km/h (1 Bft) 100,00 %
04.11.2016 07:44 -1,7 C 98 % 1020,0 hPa 0,0 l/m 1,1 km/h (1 Bft) N-NO 21 0 min 0,000 mm 0,0 UV-I 25 W/m -2,0 C -1,7 C 3,2 km/h (1 Bft) 100,00 %
04.11.2016 07:46 -1,7 C 98 % 1020,0 hPa 0,0 l/m 0,0 km/h (0 Bft) N-NO 21 0 min 0,000 mm 0,0 UV-I 22 W/m -2,0 C -1,7 C 1,6 km/h (1 Bft) 100,00 %
04.11.2016 07:48 -1,7 C 98 % 1020,0 hPa 0,0 l/m 0,5 km/h (0 Bft) N-NO 26 0 min 0,000 mm 0,0 UV-I 29 W/m -2,0 C -1,7 C 1,6 km/h (1 Bft) 100,00 %
04.11.2016 07:50 -1,7 C 98 % 1019,9 hPa 0,0 l/m 0,4 km/h (0 Bft) N-NO 26 0 min 0,000 mm 0,0 UV-I 24 W/m -2,0 C -1,7 C 1,6 km/h (1 Bft) 100,00 %
04.11.2016 07:52 -1,7 C 98 % 1020,0 hPa 0,0 l/m 0,0 km/h (0 Bft) N-NO 26 0 min 0,000 mm 0,0 UV-I 26 W/m -2,0 C -1,7 C 0,0 km/h (0 Bft) 100,00 %
04.11.2016 07:54 -1,7 C 98 % 1019,9 hPa 0,0 l/m 0,0 km/h (0 Bft) N-NO 26 0 min 0,000 mm 0,0 UV-I 37 W/m -2,0 C -1,7 C 0,0 km/h (0 Bft) 100,00 %
04.11.2016 07:56 -1,7 C 98 % 1020,0 hPa 0,0 l/m 0,0 km/h (0 Bft) N-NO 26 0 min 0,000 mm 0,0 UV-I 41 W/m -2,0 C -1,7 C 0,0 km/h (0 Bft) 100,00 %
04.11.2016 07:58 -1,7 C 98 % 1019,9 hPa 0,0 l/m 1,7 km/h (1 Bft) W-NW 293 0 min 0,000 mm 0,0 UV-I 38 W/m -2,0 C -1,7 C 3,2 km/h (1 Bft) 100,00 %
04.11.2016 08:00 -1,7 C 98 % 1020,0 hPa 0,0 l/m 1,0 km/h (0 Bft) W-NW 293 0 min 0,000 mm 0,0 UV-I 46 W/m -2,0 C -1,7 C 3,2 km/h (1 Bft) 100,00 %
04.11.2016 08:02 -1,8 C 98 % 1020,0 hPa 0,0 l/m 0,2 km/h (0 Bft) W-NW 293 0 min 0,000 mm 0,0 UV-I 48 W/m -2,1 C -1,8 C 1,6 km/h (1 Bft) 100,00 %
04.11.2016 08:04 -1,8 C 98 % 1019,9 hPa 0,0 l/m 0,0 km/h (0 Bft) W-NW 293 0 min 0,000 mm 0,0 UV-I 41 W/m -2,1 C -1,8 C 0,0 km/h (0 Bft) 97,87 %
04.11.2016 08:06 -1,8 C 98 % 1019,9 hPa 0,0 l/m 0,1 km/h (0 Bft) W-NW 293 0 min 0,000 mm 0,0 UV-I 45 W/m -2,1 C -1,8 C 1,6 km/h (1 Bft) 97,56 %
04.11.2016 08:08 -1,8 C 98 % 1019,9 hPa 0,0 l/m 0,0 km/h (0 Bft) W-NW 293 0 min 0,000 mm 0,0 UV-I 59 W/m -2,1 C -1,8 C 0,0 km/h (0 Bft) 100,00 %
04.11.2016 08:10 -1,8 C 98 % 1019,9 hPa 0,0 l/m 0,1 km/h (0 Bft) W-NW 293 0 min 0,000 mm 0,0 UV-I 58 W/m -2,1 C -1,8 C 1,6 km/h (1 Bft) 100,00 %
04.11.2016 08:12 -1,7 C 98 % 1019,8 hPa 0,0 l/m 1,8 km/h (1 Bft) N-NW 336 0 min 0,000 mm 0,0 UV-I 61 W/m -2,0 C -1,7 C 3,2 km/h (1 Bft) 100,00 %
04.11.2016 08:14 -1,7 C 98 % 1019,8 hPa 0,0 l/m 1,8 km/h (1 Bft) N-NO 30 0 min 0,000 mm 0,0 UV-I 63 W/m -2,0 C -1,7 C 3,2 km/h (1 Bft) 100,00 %
04.11.2016 08:16 -1,7 C 98 % 1019,8 hPa 0,0 l/m 1,9 km/h (1 Bft) NO 34 0 min 0,000 mm 0,0 UV-I 64 W/m -2,0 C -1,7 C 3,2 km/h (1 Bft) 100,00 %
04.11.2016 08:18 -1,7 C 98 % 1019,8 hPa 0,0 l/m 1,8 km/h (1 Bft) NO 34 0 min 0,000 mm 0,0 UV-I 68 W/m -2,0 C -1,7 C 3,2 km/h (1 Bft) 100,00 %
04.11.2016 08:20 -1,8 C 98 % 1019,8 hPa 0,0 l/m 0,7 km/h (0 Bft) NO 34 0 min 0,000 mm 0,0 UV-I 71 W/m -2,1 C -1,8 C 1,6 km/h (1 Bft) 100,00 %
04.11.2016 08:22 -1,7 C 98 % 1019,8 hPa 0,0 l/m 0,4 km/h (0 Bft) NO 34 0 min 0,000 mm 0,0 UV-I 77 W/m -2,0 C -1,7 C 1,6 km/h (1 Bft) 100,00 %
04.11.2016 08:24 -1,6 C 98 % 1019,7 hPa 0,0 l/m 0,0 km/h (0 Bft) NO 34 0 min 0,000 mm 0,0 UV-I 80 W/m -1,9 C -1,6 C 1,6 km/h (1 Bft) 97,37 %
04.11.2016 08:26 -1,6 C 98 % 1019,8 hPa 0,0 l/m 1,0 km/h (0 Bft) NO 34 0 min 0,000 mm 0,0 UV-I 81 W/m -1,9 C -1,6 C 1,6 km/h (1 Bft) 100,00 %
04.11.2016 08:28 -1,7 C 98 % 1019,8 hPa 0,0 l/m 0,0 km/h (0 Bft) NO 34 0 min 0,000 mm 0,0 UV-I 90 W/m -2,0 C -1,7 C 0,0 km/h (0 Bft) 100,00 %
04.11.2016 08:30 -1,6 C 98 % 1019,8 hPa 0,0 l/m 0,0 km/h (0 Bft) NO 34 0 min 0,000 mm 0,0 UV-I 96 W/m -1,9 C -1,6 C 0,0 km/h (0 Bft) 100,00 %
04.11.2016 08:32 -1,5 C 98 % 1019,8 hPa 0,0 l/m 0,6 km/h (0 Bft) NO 34 0 min 0,000 mm 0,0 UV-I 91 W/m -1,8 C -1,5 C 3,2 km/h (1 Bft) 100,00 %
04.11.2016 08:34 -1,5 C 98 % 1019,7 hPa 0,0 l/m 0,7 km/h (0 Bft) NO 34 0 min 0,000 mm 0,0 UV-I 92 W/m -1,8 C -1,5 C 1,6 km/h (1 Bft) 100,00 %
04.11.2016 08:36 -1,4 C 98 % 1019,7 hPa 0,0 l/m 1,6 km/h (1 Bft) NO 34 0 min 0,000 mm 0,0 UV-I 96 W/m -1,7 C -1,4 C 3,2 km/h (1 Bft) 98,00 %
04.11.2016 08:38 -1,3 C 98 % 1019,7 hPa 0,0 l/m 2,3 km/h (1 Bft) NO 46 0 min 0,000 mm 0,0 UV-I 97 W/m -1,6 C -1,3 C 4,8 km/h (1 Bft) 98,00 %
04.11.2016 08:40 -1,3 C 98 % 1019,6 hPa 0,0 l/m 3,5 km/h (1 Bft) O-NO 69 0 min 0,000 mm 0,0 UV-I 102 W/m -1,6 C -1,3 C 4,8 km/h (1 Bft) 100,00 %
04.11.2016 08:42 -1,4 C 98 % 1019,6 hPa 0,0 l/m 2,7 km/h (1 Bft) O-NO 78 0 min 0,000 mm 0,0 UV-I 105 W/m -1,7 C -1,4 C 4,8 km/h (1 Bft) 100,00 %
04.11.2016 08:44 -1,4 C 98 % 1019,6 hPa 0,0 l/m 1,6 km/h (1 Bft) O-NO 78 0 min 0,000 mm 0,0 UV-I 106 W/m -1,7 C -1,4 C 3,2 km/h (1 Bft) 100,00 %
04.11.2016 08:46 -1,4 C 98 % 1019,6 hPa 0,0 l/m 1,8 km/h (1 Bft) O-NO 57 0 min 0,000 mm 0,0 UV-I 113 W/m -1,7 C -1,4 C 4,8 km/h (1 Bft) 100,00 %
04.11.2016 08:48 -1,3 C 98 % 1019,6 hPa 0,0 l/m 3,4 km/h (1 Bft) NO 54 0 min 0,000 mm 0,0 UV-I 93 W/m -1,6 C -1,3 C 6,4 km/h (2 Bft) 100,00 %
04.11.2016 08:50 -1,4 C 98 % 1019,6 hPa 0,0 l/m 0,2 km/h (0 Bft) NO 54 0 min 0,000 mm 0,0 UV-I 83 W/m -1,7 C -1,4 C 1,6 km/h (1 Bft) 100,00 %
04.11.2016 08:52 -1,4 C 98 % 1019,6 hPa 0,0 l/m 0,0 km/h (0 Bft) NO 54 0 min 0,000 mm 0,0 UV-I 101 W/m -1,7 C -1,4 C 0,0 km/h (0 Bft) 100,00 %
04.11.2016 08:54 -1,4 C 98 % 1019,6 hPa 0,0 l/m 0,0 km/h (0 Bft) NO 54 0 min 0,000 mm 0,0 UV-I 95 W/m -1,7 C -1,4 C 0,0 km/h (0 Bft) 97,87 %
04.11.2016 08:56 -1,4 C 98 % 1019,6 hPa 0,0 l/m 0,4 km/h (0 Bft) NO 54 0 min 0,000 mm 0,0 UV-I 89 W/m -1,7 C -1,4 C 1,6 km/h (1 Bft) 100,00 %
04.11.2016 08:58 -1,6 C 98 % 1019,6 hPa 0,0 l/m 0,3 km/h (0 Bft) NO 54 0 min 0,000 mm 0,0 UV-I 107 W/m -1,9 C -1,6 C 1,6 km/h (1 Bft) 100,00 %
04.11.2016 09:00 -1,5 C 98 % 1019,6 hPa 0,0 l/m 0,0 km/h (0 Bft) NO 54 0 min 0,025 mm 0,0 UV-I 88 W/m -1,8 C -1,5 C 0,0 km/h (0 Bft) 98,00 %
04.11.2016 09:02 -1,4 C 98 % 1019,6 hPa 0,0 l/m 0,0 km/h (0 Bft) NO 54 0 min 0,000 mm 0,0 UV-I 81 W/m -1,7 C -1,4 C 0,0 km/h (0 Bft) 97,22 %
04.11.2016 09:04 -1,4 C 98 % 1019,6 hPa 0,0 l/m 1,0 km/h (0 Bft) NO 54 0 min 0,000 mm 0,0 UV-I 97 W/m -1,7 C -1,4 C 3,2 km/h (1 Bft) 92,00 %
04.11.2016 09:06 -1,4 C 98 % 1019,6 hPa 0,0 l/m 3,0 km/h (1 Bft) NO 54 0 min 0,000 mm 0,0 UV-I 106 W/m -1,7 C -1,4 C 4,8 km/h (1 Bft) 98,28 %
04.11.2016 09:08 -1,3 C 98 % 1019,6 hPa 0,0 l/m 2,0 km/h (1 Bft) NO 54 0 min 0,000 mm 0,0 UV-I 106 W/m -1,6 C -1,3 C 3,2 km/h (1 Bft) 94,87 %
04.11.2016 09:10 -1,2 C 98 % 1019,5 hPa 0,0 l/m 2,6 km/h (1 Bft) NO 54 0 min 0,000 mm 0,0 UV-I 109 W/m -1,5 C -1,2 C 4,8 km/h (1 Bft) 96,23 %
04.11.2016 09:12 -1,2 C 98 % 1019,6 hPa 0,0 l/m 2,5 km/h (1 Bft) O-NO 76 0 min 0,000 mm 0,0 UV-I 132 W/m -1,5 C -1,2 C 3,2 km/h (1 Bft) 95,45 %
04.11.2016 09:14 -1,2 C 98 % 1019,6 hPa 0,0 l/m 1,3 km/h (1 Bft) O-NO 76 0 min 0,000 mm 0,0 UV-I 145 W/m -1,5 C -1,2 C 3,2 km/h (1 Bft) 95,74 %
04.11.2016 09:16 -1,2 C 98 % 1019,6 hPa 0,0 l/m 2,4 km/h (1 Bft) N-NO 33 0 min 0,000 mm 0,0 UV-I 138 W/m -1,5 C -1,2 C 4,8 km/h (1 Bft) 95,74 %
04.11.2016 09:18 -1,1 C 98 % 1019,6 hPa 0,0 l/m 1,8 km/h (1 Bft) N-NO 28 0 min 0,000 mm 0,0 UV-I 140 W/m -1,4 C -1,1 C 4,8 km/h (1 Bft) 96,00 %
04.11.2016 09:20 -1,0 C 98 % 1019,5 hPa 0,0 l/m 0,0 km/h (0 Bft) N-NO 28 0 min 0,000 mm 0,0 UV-I 151 W/m -1,3 C -1,0 C 1,6 km/h (1 Bft) 97,56 %
04.11.2016 09:22 -1,0 C 98 % 1019,5 hPa 0,0 l/m 0,3 km/h (0 Bft) N-NO 28 0 min 0,000 mm 0,0 UV-I 116 W/m -1,3 C -1,0 C 1,6 km/h (1 Bft) 95,74 %
04.11.2016 09:24 -1,1 C 98 % 1019,4 hPa 0,0 l/m 0,6 km/h (0 Bft) N-NO 28 0 min 0,000 mm 0,0 UV-I 137 W/m -1,4 C -1,1 C 1,6 km/h (1 Bft) 98,00 %
04.11.2016 09:26 -1,1 C 98 % 1019,4 hPa 0,0 l/m 0,0 km/h (0 Bft) N-NO 28 0 min 0,000 mm 0,0 UV-I 166 W/m -1,4 C -1,1 C 1,6 km/h (1 Bft) 97,87 %
04.11.2016 09:28 -1,0 C 98 % 1019,4 hPa 0,0 l/m 0,2 km/h (0 Bft) N-NO 28 0 min 0,000 mm 0,0 UV-I 171 W/m -1,3 C -1,0 C 1,6 km/h (1 Bft) 97,87 %
04.11.2016 09:30 -0,9 C 98 % 1019,4 hPa 0,0 l/m 0,5 km/h (0 Bft) N-NO 28 0 min 0,000 mm 0,0 UV-I 167 W/m -1,2 C -0,9 C 3,2 km/h (1 Bft) 95,74 %
04.11.2016 09:32 -0,9 C 98 % 1019,4 hPa 0,2 l/m 2,4 km/h (1 Bft) O-NO 59 0 min 0,000 mm 0,0 UV-I 173 W/m -1,2 C -0,9 C 3,2 km/h (1 Bft) 98,11 %
04.11.2016 09:34 -0,8 C 98 % 1019,4 hPa 0,0 l/m 1,8 km/h (1 Bft) O-NO 59 0 min 0,000 mm 0,0 UV-I 173 W/m -1,1 C -0,8 C 3,2 km/h (1 Bft) 95,74 %
04.11.2016 09:36 -0,8 C 98 % 1019,4 hPa 0,0 l/m 3,0 km/h (1 Bft) O-NO 74 0 min 0,000 mm 0,0 UV-I 156 W/m -1,1 C -0,8 C 4,8 km/h (1 Bft) 100,00 %
04.11.2016 09:38 -0,7 C 98 % 1019,4 hPa 0,0 l/m 2,0 km/h (1 Bft) O-NO 74 0 min 0,000 mm 0,0 UV-I 148 W/m -1,0 C -0,7 C 3,2 km/h (1 Bft) 100,00 %
04.11.2016 09:40 -0,7 C 98 % 1019,4 hPa 0,0 l/m 1,5 km/h (1 Bft) O-NO 74 0 min 0,000 mm 0,0 UV-I 143 W/m -1,0 C -0,7 C 3,2 km/h (1 Bft) 100,00 %
04.11.2016 09:42 -0,7 C 98 % 1019,4 hPa 0,0 l/m 2,4 km/h (1 Bft) O 92 0 min 0,000 mm 0,0 UV-I 155 W/m -1,0 C -0,7 C 4,8 km/h (1 Bft) 100,00 %
04.11.2016 09:44 -0,7 C 98 % 1019,4 hPa 0,0 l/m 1,3 km/h (1 Bft) O 92 0 min 0,000 mm 0,0 UV-I 168 W/m -1,0 C -0,7 C 3,2 km/h (1 Bft) 95,83 %
04.11.2016 09:46 -0,7 C 98 % 1019,4 hPa 0,0 l/m 0,3 km/h (0 Bft) O 92 0 min 0,000 mm 0,0 UV-I 142 W/m -1,0 C -0,7 C 1,6 km/h (1 Bft) 100,00 %
04.11.2016 09:48 -0,8 C 98 % 1019,4 hPa 0,0 l/m 0,0 km/h (0 Bft) O 92 0 min 0,000 mm 0,0 UV-I 117 W/m -1,1 C -0,8 C 0,0 km/h (0 Bft) 100,00 %
04.11.2016 09:50 -0,8 C 98 % 1019,4 hPa 0,0 l/m 0,0 km/h (0 Bft) O 92 0 min 0,000 mm 0,0 UV-I 94 W/m -1,1 C -0,8 C 0,0 km/h (0 Bft) 97,87 %
04.11.2016 09:52 -0,7 C 98 % 1019,4 hPa 0,0 l/m 1,0 km/h (0 Bft) O 92 0 min 0,000 mm 0,0 UV-I 95 W/m -1,0 C -0,7 C 3,2 km/h (1 Bft) 100,00 %
04.11.2016 09:54 -0,6 C 98 % 1019,4 hPa 0,0 l/m 0,9 km/h (0 Bft) O 92 0 min 0,000 mm 0,0 UV-I 89 W/m -0,9 C -0,6 C 3,2 km/h (1 Bft) 100,00 %
04.11.2016 09:56 -0,6 C 98 % 1019,5 hPa 0,0 l/m 3,3 km/h (1 Bft) O-NO 73 0 min 0,000 mm 0,0 UV-I 84 W/m -0,9 C -0,6 C 4,8 km/h (1 Bft) 100,00 %
04.11.2016 09:58 -0,5 C 98 % 1019,4 hPa 0,0 l/m 3,5 km/h (1 Bft) O-NO 66 0 min 0,000 mm 0,0 UV-I 91 W/m -0,8 C -0,5 C 4,8 km/h (1 Bft) 97,87 %
04.11.2016 10:00 -0,4 C 98 % 1019,4 hPa 0,0 l/m 3,2 km/h (1 Bft) O-NO 65 0 min 0,000 mm 0,0 UV-I 100 W/m -0,7 C -0,4 C 4,8 km/h (1 Bft) 100,00 %
04.11.2016 10:02 -0,5 C 98 % 1019,4 hPa 0,0 l/m 2,5 km/h (1 Bft) O-NO 65 0 min 0,051 mm 0,0 UV-I 103 W/m -0,8 C -0,5 C 4,8 km/h (1 Bft) 100,00 %
04.11.2016 10:04 -0,5 C 98 % 1019,4 hPa 0,0 l/m 2,1 km/h (1 Bft) NO 42 0 min 0,000 mm 0,0 UV-I 112 W/m -0,8 C -0,5 C 4,8 km/h (1 Bft) 100,00 %
04.11.2016 10:06 -0,4 C 98 % 1019,4 hPa 0,0 l/m 1,2 km/h (1 Bft) NO 40 0 min 0,000 mm 0,0 UV-I 119 W/m -0,7 C -0,4 C 4,8 km/h (1 Bft) 100,00 %
04.11.2016 10:08 -0,4 C 98 % 1019,4 hPa 0,0 l/m 1,2 km/h (1 Bft) NO 40 0 min 0,000 mm 0,0 UV-I 137 W/m -0,7 C -0,4 C 3,2 km/h (1 Bft) 100,00 %
04.11.2016 10:10 -0,5 C 98 % 1019,4 hPa 0,0 l/m 1,1 km/h (1 Bft) NO 40 0 min 0,000 mm 0,0 UV-I 161 W/m -0,8 C -0,5 C 3,2 km/h (1 Bft) 100,00 %
04.11.2016 10:12 -0,5 C 98 % 1019,4 hPa 0,0 l/m 1,3 km/h (1 Bft) NO 41 0 min 0,000 mm 0,0 UV-I 154 W/m -0,8 C -0,5 C 3,2 km/h (1 Bft) 100,00 %
04.11.2016 10:14 -0,5 C 98 % 1019,3 hPa 0,0 l/m 0,4 km/h (0 Bft) NO 40 0 min 0,000 mm 0,1 UV-I 162 W/m -0,8 C -0,5 C 1,6 km/h (1 Bft) 100,00 %
04.11.2016 10:16 -0,3 C 98 % 1019,4 hPa 0,0 l/m 1,9 km/h (1 Bft) NO 40 0 min 0,000 mm 0,4 UV-I 162 W/m -0,6 C -0,3 C 3,2 km/h (1 Bft) 100,00 %
04.11.2016 10:18 -0,3 C 98 % 1019,4 hPa 0,0 l/m 2,4 km/h (1 Bft) NO 47 0 min 0,000 mm 0,2 UV-I 151 W/m -0,6 C -0,3 C 3,2 km/h (1 Bft) 100,00 %
04.11.2016 10:20 -0,3 C 98 % 1019,4 hPa 0,0 l/m 2,5 km/h (1 Bft) NO 47 0 min 0,000 mm 0,5 UV-I 146 W/m -0,6 C -0,3 C 3,2 km/h (1 Bft) 100,00 %
04.11.2016 10:22 -0,2 C 98 % 1019,5 hPa 0,0 l/m 2,7 km/h (1 Bft) NO 37 0 min 0,000 mm 0,5 UV-I 142 W/m -0,5 C -0,2 C 6,4 km/h (2 Bft) 100,00 %
04.11.2016 10:24 -0,2 C 98 % 1019,5 hPa 0,0 l/m 2,8 km/h (1 Bft) NO 36 0 min 0,000 mm 0,5 UV-I 145 W/m -0,5 C -0,2 C 6,4 km/h (2 Bft) 100,00 %
04.11.2016 10:26 -0,1 C 98 % 1019,6 hPa 0,0 l/m 4,1 km/h (1 Bft) N-NO 27 0 min 0,000 mm 0,5 UV-I 150 W/m -0,4 C -0,1 C 6,4 km/h (2 Bft) 100,00 %
04.11.2016 10:28 -0,1 C 98 % 1019,6 hPa 0,0 l/m 0,6 km/h (0 Bft) N-NO 27 0 min 0,000 mm 0,5 UV-I 138 W/m -0,4 C -0,1 C 3,2 km/h (1 Bft) 98,00 %
04.11.2016 10:30 -0,2 C 98 % 1019,5 hPa 0,0 l/m 0,0 km/h (0 Bft) N-NO 27 0 min 0,000 mm 0,5 UV-I 124 W/m -0,5 C -0,2 C 0,0 km/h (0 Bft) 98,00 %
04.11.2016 10:32 -0,2 C 98 % 1019,5 hPa 0,0 l/m 0,0 km/h (0 Bft) N-NO 27 0 min 0,000 mm 0,0 UV-I 127 W/m -0,5 C -0,2 C 0,0 km/h (0 Bft) 100,00 %
04.11.2016 10:34 -0,3 C 98 % 1019,6 hPa 0,0 l/m 1,7 km/h (1 Bft) N-NO 27 0 min 0,000 mm 0,0 UV-I 115 W/m -0,6 C -0,3 C 4,8 km/h (1 Bft) 100,00 %
04.11.2016 10:36 -0,2 C 98 % 1019,5 hPa 0,0 l/m 2,0 km/h (1 Bft) N-NO 27 0 min 0,000 mm 0,0 UV-I 117 W/m -0,5 C -0,2 C 4,8 km/h (1 Bft) 100,00 %
04.11.2016 10:38 -0,2 C 98 % 1019,4 hPa 0,0 l/m 6,4 km/h (2 Bft) N-NO 32 0 min 0,000 mm 0,5 UV-I 144 W/m -0,5 C -0,2 C 9,7 km/h (2 Bft) 98,00 %
04.11.2016 10:40 -0,1 C 98 % 1019,5 hPa 0,0 l/m 4,3 km/h (1 Bft) N-NO 22 0 min 0,000 mm 0,6 UV-I 180 W/m -0,4 C -0,1 C 8,0 km/h (2 Bft) 100,00 %
04.11.2016 10:42 -0,1 C 98 % 1019,4 hPa 0,0 l/m 1,6 km/h (1 Bft) N-NO 22 0 min 0,000 mm 0,6 UV-I 222 W/m -0,4 C -0,1 C 3,2 km/h (1 Bft) 97,87 %
04.11.2016 10:44 -0,1 C 98 % 1019,3 hPa 0,0 l/m 1,8 km/h (1 Bft) N-NO 22 0 min 0,000 mm 0,6 UV-I 206 W/m -0,4 C -0,1 C 3,2 km/h (1 Bft) 100,00 %
04.11.2016 10:46 -0,1 C 98 % 1019,3 hPa 0,0 l/m 3,1 km/h (1 Bft) NO 55 0 min 0,000 mm 0,5 UV-I 153 W/m -0,4 C -0,1 C 6,4 km/h (2 Bft) 100,00 %
04.11.2016 10:48 0,0 C 98 % 1019,3 hPa 0,0 l/m 3,5 km/h (1 Bft) N-NO 32 0 min 0,000 mm 0,5 UV-I 151 W/m -0,3 C 0,0 C 6,4 km/h (2 Bft) 100,00 %
04.11.2016 10:50 0,1 C 98 % 1019,2 hPa 0,0 l/m 3,8 km/h (1 Bft) NO 39 0 min 0,000 mm 0,5 UV-I 136 W/m -0,2 C 0,1 C 4,8 km/h (1 Bft) 100,00 %
04.11.2016 10:52 0,1 C 98 % 1019,2 hPa 0,0 l/m 4,1 km/h (1 Bft) NO 42 0 min 0,000 mm 0,5 UV-I 150 W/m -0,2 C 0,1 C 6,4 km/h (2 Bft) 98,00 %
04.11.2016 10:54 0,1 C 98 % 1019,1 hPa 0,0 l/m 4,4 km/h (1 Bft) NO 51 0 min 0,000 mm 0,5 UV-I 162 W/m -0,2 C 0,1 C 6,4 km/h (2 Bft) 100,00 %
04.11.2016 10:56 0,1 C 98 % 1019,1 hPa 0,0 l/m 4,3 km/h (1 Bft) NO 46 0 min 0,000 mm 0,5 UV-I 151 W/m -0,2 C 0,1 C 6,4 km/h (2 Bft) 100,00 %
04.11.2016 11:00 0,1 C 98 % 1019,1 hPa 0,0 l/m 6,9 km/h (2 Bft) O-NO 64 0 min 0,051 mm 0,5 UV-I 135 W/m -0,2 C -0,4 C 12,9 km/h (3 Bft) 100,00 %
04.11.2016 11:02 0,1 C 98 % 1019,1 hPa 0,0 l/m 8,2 km/h (2 Bft) O 79 0 min 0,000 mm 0,6 UV-I 155 W/m -0,2 C -1,7 C 14,5 km/h (3 Bft) 100,00 %
04.11.2016 11:04 -0,1 C 98 % 1019,1 hPa 0,0 l/m 8,1 km/h (2 Bft) O-NO 69 0 min 0,000 mm 0,7 UV-I 157 W/m -0,4 C -1,8 C 11,3 km/h (2 Bft) 97,56 %
04.11.2016 11:06 -0,1 C 98 % 1019,1 hPa 0,0 l/m 4,8 km/h (1 Bft) O 84 0 min 0,000 mm 0,6 UV-I 137 W/m -0,4 C -0,1 C 8,0 km/h (2 Bft) 98,11 %
04.11.2016 11:08 -0,1 C 98 % 1019,1 hPa 0,0 l/m 4,0 km/h (1 Bft) O-NO 60 0 min 0,000 mm 0,5 UV-I 130 W/m -0,4 C -0,1 C 6,4 km/h (2 Bft) 96,00 %
04.11.2016 11:10 -0,1 C 98 % 1019,0 hPa 0,0 l/m 4,8 km/h (1 Bft) NO 44 0 min 0,000 mm 0,5 UV-I 127 W/m -0,4 C -0,1 C 8,0 km/h (2 Bft) 95,24 %
04.11.2016 11:12 0,0 C 98 % 1019,0 hPa 0,0 l/m 5,5 km/h (1 Bft) NO 39 0 min 0,000 mm 0,5 UV-I 152 W/m -0,3 C 0,0 C 8,0 km/h (2 Bft) 96,15 %
04.11.2016 11:14 0,1 C 98 % 1019,0 hPa 0,0 l/m 4,3 km/h (1 Bft) NO 36 0 min 0,000 mm 0,5 UV-I 160 W/m -0,2 C 0,1 C 6,4 km/h (2 Bft) 97,87 %
04.11.2016 11:16 0,2 C 98 % 1018,9 hPa 0,0 l/m 2,7 km/h (1 Bft) O-NO 63 0 min 0,000 mm 0,5 UV-I 159 W/m -0,1 C 0,2 C 4,8 km/h (1 Bft) 95,83 %
04.11.2016 11:18 0,2 C 98 % 1018,9 hPa 0,0 l/m 6,0 km/h (2 Bft) N-NO 33 0 min 0,000 mm 0,5 UV-I 171 W/m -0,1 C 0,2 C 9,7 km/h (2 Bft) 97,14 %
04.11.2016 11:20 0,3 C 98 % 1018,9 hPa 0,0 l/m 5,1 km/h (1 Bft) N-NO 15 0 min 0,000 mm 0,5 UV-I 177 W/m 0,0 C 0,3 C 6,4 km/h (2 Bft) 94,34 %
04.11.2016 11:22 0,4 C 98 % 1018,8 hPa 0,0 l/m 7,1 km/h (2 Bft) NO 42 0 min 0,000 mm 0,5 UV-I 174 W/m 0,1 C -0,3 C 9,7 km/h (2 Bft) 97,56 %
04.11.2016 11:24 0,4 C 98 % 1018,8 hPa 0,0 l/m 6,7 km/h (2 Bft) NO 43 0 min 0,000 mm 0,6 UV-I 182 W/m 0,1 C 0,1 C 9,7 km/h (2 Bft) 98,21 %
04.11.2016 11:26 0,4 C 98 % 1018,8 hPa 0,0 l/m 8,0 km/h (2 Bft) O-NO 61 0 min 0,000 mm 0,5 UV-I 195 W/m 0,1 C -1,2 C 11,3 km/h (2 Bft) 97,37 %
04.11.2016 11:28 0,3 C 98 % 1018,8 hPa 0,0 l/m 6,0 km/h (2 Bft) O-NO 57 0 min 0,000 mm 0,6 UV-I 207 W/m 0,0 C 0,3 C 9,7 km/h (2 Bft) 97,87 %
04.11.2016 11:30 0,3 C 98 % 1018,8 hPa 0,0 l/m 6,4 km/h (2 Bft) NO 42 0 min 0,000 mm 0,6 UV-I 187 W/m 0,0 C 0,3 C 8,0 km/h (2 Bft) 98,11 %
04.11.2016 11:32 0,2 C 98 % 1018,8 hPa 0,0 l/m 6,6 km/h (2 Bft) NO 43 0 min 0,000 mm 0,6 UV-I 188 W/m -0,1 C 0,0 C 8,0 km/h (2 Bft) 97,37 %
04.11.2016 11:34 0,4 C 98 % 1018,8 hPa 0,0 l/m 5,3 km/h (1 Bft) NO 53 0 min 0,000 mm 0,6 UV-I 206 W/m 0,1 C 0,4 C 8,0 km/h (2 Bft) 96,23 %
04.11.2016 11:36 0,4 C 98 % 1018,8 hPa 0,0 l/m 5,5 km/h (1 Bft) O-NO 63 0 min 0,000 mm 0,7 UV-I 202 W/m 0,1 C 0,4 C 8,0 km/h (2 Bft) 94,34 %
04.11.2016 11:38 0,3 C 98 % 1018,8 hPa 0,0 l/m 4,3 km/h (1 Bft) O-NO 76 0 min 0,000 mm 0,7 UV-I 230 W/m 0,0 C 0,3 C 6,4 km/h (2 Bft) 100,00 %
04.11.2016 11:40 0,3 C 98 % 1018,8 hPa 0,0 l/m 3,3 km/h (1 Bft) O-NO 76 0 min 0,000 mm 0,6 UV-I 192 W/m 0,0 C 0,3 C 4,8 km/h (1 Bft) 98,11 %
04.11.2016 11:42 0,2 C 98 % 1018,8 hPa 0,0 l/m 3,1 km/h (1 Bft) O-NO 59 0 min 0,000 mm 0,6 UV-I 194 W/m -0,1 C 0,2 C 4,8 km/h (1 Bft) 97,87 %
04.11.2016 11:44 0,3 C 98 % 1018,7 hPa 0,0 l/m 4,9 km/h (1 Bft) NO 46 0 min 0,000 mm 0,5 UV-I 153 W/m 0,0 C 0,3 C 8,0 km/h (2 Bft) 100,00 %
04.11.2016 11:46 0,4 C 98 % 1018,8 hPa 0,0 l/m 4,1 km/h (1 Bft) NO 49 0 min 0,000 mm 0,5 UV-I 118 W/m 0,1 C 0,4 C 6,4 km/h (2 Bft) 98,11 %
04.11.2016 11:48 0,4 C 98 % 1018,8 hPa 0,0 l/m 1,1 km/h (1 Bft) NO 47 0 min 0,000 mm 0,5 UV-I 119 W/m 0,1 C 0,4 C 3,2 km/h (1 Bft) 97,87 %
04.11.2016 11:50 0,4 C 98 % 1018,7 hPa 0,0 l/m 1,3 km/h (1 Bft) O 89 0 min 0,000 mm 0,5 UV-I 153 W/m 0,1 C 0,4 C 4,8 km/h (1 Bft) 97,44 %
04.11.2016 11:52 0,4 C 98 % 1018,7 hPa 0,0 l/m 3,4 km/h (1 Bft) NO 56 0 min 0,000 mm 0,5 UV-I 149 W/m 0,1 C 0,4 C 6,4 km/h (2 Bft) 95,12 %
04.11.2016 11:54 0,5 C 98 % 1018,7 hPa 0,0 l/m 2,8 km/h (1 Bft) O-NO 67 0 min 0,000 mm 0,5 UV-I 140 W/m 0,2 C 0,5 C 4,8 km/h (1 Bft) 100,00 %
04.11.2016 11:56 0,3 C 98 % 1018,7 hPa 0,0 l/m 1,8 km/h (1 Bft) O-NO 67 0 min 0,000 mm 0,5 UV-I 138 W/m 0,0 C 0,3 C 4,8 km/h (1 Bft) 97,87 %
04.11.2016 11:58 0,4 C 98 % 1018,7 hPa 0,0 l/m 1,5 km/h (1 Bft) O-NO 67 0 min 0,000 mm 0,5 UV-I 149 W/m 0,1 C 0,4 C 4,8 km/h (1 Bft) 100,00 %
04.11.2016 12:00 0,6 C 98 % 1018,7 hPa 0,0 l/m 3,3 km/h (1 Bft) O-NO 60 0 min 0,051 mm 0,5 UV-I 175 W/m 0,3 C 0,6 C 4,8 km/h (1 Bft) 100,00 %
04.11.2016 12:02 0,7 C 98 % 1018,6 hPa 0,0 l/m 5,0 km/h (1 Bft) O-NO 57 0 min 0,000 mm 0,5 UV-I 152 W/m 0,4 C 0,7 C 8,0 km/h (2 Bft) 100,00 %
04.11.2016 12:04 0,7 C 98 % 1018,6 hPa 0,0 l/m 2,5 km/h (1 Bft) N 9 0 min 0,000 mm 0,5 UV-I 137 W/m 0,4 C 0,7 C 6,4 km/h (2 Bft) 98,00 %
04.11.2016 12:06 0,7 C 98 % 1018,6 hPa 0,0 l/m 1,1 km/h (1 Bft) N-NO 12 0 min 0,000 mm 0,5 UV-I 150 W/m 0,4 C 0,7 C 3,2 km/h (1 Bft) 100,00 %
04.11.2016 12:08 0,8 C 98 % 1018,5 hPa 0,0 l/m 1,3 km/h (1 Bft) N 5 0 min 0,000 mm 0,5 UV-I 190 W/m 0,5 C 0,8 C 3,2 km/h (1 Bft) 100,00 %
04.11.2016 12:10 0,7 C 98 % 1018,4 hPa 0,0 l/m 0,3 km/h (0 Bft) N 5 0 min 0,000 mm 0,5 UV-I 170 W/m 0,4 C 0,7 C 1,6 km/h (1 Bft) 100,00 %
04.11.2016 12:12 0,7 C 98 % 1018,4 hPa 0,0 l/m 2,8 km/h (1 Bft) O-NO 63 0 min 0,000 mm 0,5 UV-I 148 W/m 0,4 C 0,7 C 6,4 km/h (2 Bft) 100,00 %
04.11.2016 12:14 0,8 C 98 % 1018,4 hPa 0,0 l/m 3,8 km/h (1 Bft) O-NO 67 0 min 0,000 mm 0,5 UV-I 148 W/m 0,5 C 0,8 C 4,8 km/h (1 Bft) 100,00 %
04.11.2016 12:16 0,8 C 98 % 1018,4 hPa 0,0 l/m 4,9 km/h (1 Bft) O-NO 69 0 min 0,000 mm 0,5 UV-I 151 W/m 0,5 C 0,8 C 12,9 km/h (3 Bft) 100,00 %
04.11.2016 12:18 0,8 C 98 % 1018,3 hPa 0,0 l/m 7,9 km/h (2 Bft) O-NO 71 0 min 0,000 mm 0,5 UV-I 174 W/m 0,5 C -0,7 C 12,9 km/h (3 Bft) 97,56 %
04.11.2016 12:20 0,9 C 98 % 1018,2 hPa 0,0 l/m 7,4 km/h (2 Bft) O-NO 77 0 min 0,000 mm 0,6 UV-I 192 W/m 0,6 C -0,1 C 11,3 km/h (2 Bft) 100,00 %
04.11.2016 12:22 0,8 C 98 % 1018,3 hPa 0,0 l/m 6,7 km/h (2 Bft) O 82 0 min 0,000 mm 0,7 UV-I 225 W/m 0,5 C 0,5 C 8,0 km/h (2 Bft) 100,00 %
04.11.2016 12:24 0,8 C 98 % 1018,2 hPa 0,0 l/m 4,3 km/h (1 Bft) O-SO 104 0 min 0,000 mm 0,7 UV-I 203 W/m 0,5 C 0,8 C 6,4 km/h (2 Bft) 100,00 %
04.11.2016 12:26 0,7 C 98 % 1018,2 hPa 0,0 l/m 2,6 km/h (1 Bft) O-SO 104 0 min 0,000 mm 0,7 UV-I 182 W/m 0,4 C 0,7 C 4,8 km/h (1 Bft) 100,00 %
04.11.2016 12:28 0,6 C 98 % 1018,2 hPa 0,0 l/m 3,3 km/h (1 Bft) O-NO 71 0 min 0,000 mm 0,7 UV-I 209 W/m 0,3 C 0,6 C 6,4 km/h (2 Bft) 100,00 %
04.11.2016 12:30 0,7 C 98 % 1018,1 hPa 0,0 l/m 6,3 km/h (2 Bft) O-NO 60 0 min 0,000 mm 0,6 UV-I 185 W/m 0,4 C 0,7 C 8,0 km/h (2 Bft) 98,00 %
04.11.2016 12:32 0,9 C 98 % 1018,1 hPa 0,0 l/m 7,7 km/h (2 Bft) O-SO 119 0 min 0,000 mm 0,6 UV-I 187 W/m 0,6 C -0,4 C 11,3 km/h (2 Bft) 97,37 %
04.11.2016 12:34 0,9 C 98 % 1018,1 hPa 0,0 l/m 4,4 km/h (1 Bft) O-NO 72 0 min 0,000 mm 0,7 UV-I 193 W/m 0,6 C 0,9 C 6,4 km/h (2 Bft) 100,00 %
04.11.2016 12:36 1,1 C 98 % 1018,2 hPa 0,0 l/m 5,1 km/h (1 Bft) O-SO 103 0 min 0,000 mm 0,7 UV-I 208 W/m 0,8 C 1,1 C 8,0 km/h (2 Bft) 100,00 %
04.11.2016 12:38 1,1 C 98 % 1018,2 hPa 0,0 l/m 2,5 km/h (1 Bft) O 98 0 min 0,000 mm 0,6 UV-I 202 W/m 0,8 C 1,1 C 4,8 km/h (1 Bft) 100,00 %
04.11.2016 12:40 1,1 C 98 % 1018,2 hPa 0,0 l/m 2,8 km/h (1 Bft) O-SO 105 0 min 0,000 mm 0,6 UV-I 186 W/m 0,8 C 1,1 C 4,8 km/h (1 Bft) 100,00 %
04.11.2016 12:42 1,2 C 98 % 1018,1 hPa 0,0 l/m 1,1 km/h (1 Bft) O 85 0 min 0,000 mm 0,6 UV-I 167 W/m 0,9 C 1,2 C 3,2 km/h (1 Bft) 100,00 %
04.11.2016 12:44 1,2 C 98 % 1018,2 hPa 0,0 l/m 3,5 km/h (1 Bft) O 86 0 min 0,000 mm 0,6 UV-I 163 W/m 0,9 C 1,2 C 6,4 km/h (2 Bft) 98,00 %
04.11.2016 12:46 1,2 C 98 % 1018,1 hPa 0,0 l/m 0,7 km/h (0 Bft) O 86 0 min 0,000 mm 0,5 UV-I 163 W/m 0,9 C 1,2 C 3,2 km/h (1 Bft) 100,00 %
04.11.2016 12:48 1,2 C 98 % 1018,2 hPa 0,0 l/m 3,1 km/h (1 Bft) O-NO 67 0 min 0,000 mm 0,5 UV-I 174 W/m 0,9 C 1,2 C 6,4 km/h (2 Bft) 100,00 %
04.11.2016 12:50 1,3 C 98 % 1018,2 hPa 0,0 l/m 2,8 km/h (1 Bft) O-SO 113 0 min 0,000 mm 0,5 UV-I 173 W/m 1,0 C 1,3 C 4,8 km/h (1 Bft) 97,37 %
04.11.2016 12:52 1,3 C 98 % 1018,1 hPa 0,0 l/m 1,0 km/h (0 Bft) SO 130 0 min 0,000 mm 0,5 UV-I 158 W/m 1,0 C 1,3 C 3,2 km/h (1 Bft) 100,00 %
04.11.2016 12:54 1,3 C 98 % 1018,1 hPa 0,0 l/m 2,5 km/h (1 Bft) SO 128 0 min 0,000 mm 0,5 UV-I 152 W/m 1,0 C 1,3 C 8,0 km/h (2 Bft) 100,00 %
04.11.2016 12:56 1,5 C 98 % 1018,0 hPa 0,0 l/m 4,7 km/h (1 Bft) O-SO 113 0 min 0,000 mm 0,5 UV-I 153 W/m 1,2 C 1,5 C 6,4 km/h (2 Bft) 100,00 %
04.11.2016 12:58 1,5 C 98 % 1017,9 hPa 0,0 l/m 4,3 km/h (1 Bft) SO 127 0 min 0,000 mm 0,5 UV-I 156 W/m 1,2 C 1,5 C 6,4 km/h (2 Bft) 97,87 %
04.11.2016 13:00 1,5 C 98 % 1017,9 hPa 0,0 l/m 3,3 km/h (1 Bft) SO 136 0 min 0,051 mm 0,5 UV-I 155 W/m 1,2 C 1,5 C 9,7 km/h (2 Bft) 100,00 %
04.11.2016 13:02 1,6 C 98 % 1017,9 hPa 0,0 l/m 3,9 km/h (1 Bft) O-SO 120 0 min 0,000 mm 0,5 UV-I 165 W/m 1,3 C 1,6 C 6,4 km/h (2 Bft) 98,21 %
04.11.2016 13:04 1,6 C 98 % 1017,9 hPa 0,0 l/m 3,7 km/h (1 Bft) SO 134 0 min 0,000 mm 0,5 UV-I 194 W/m 1,3 C 1,6 C 6,4 km/h (2 Bft) 95,74 %
04.11.2016 13:06 1,6 C 98 % 1017,8 hPa 0,0 l/m 2,8 km/h (1 Bft) SO 128 0 min 0,000 mm 0,6 UV-I 218 W/m 1,3 C 1,6 C 4,8 km/h (1 Bft) 100,00 %
04.11.2016 13:09 1,7 C 98 % 1017,8 hPa 0,0 l/m 3,2 km/h (1 Bft) SO 136 0 min 0,000 mm 0,5 UV-I 212 W/m 1,4 C 1,7 C 6,4 km/h (2 Bft) 97,73 %
04.11.2016 13:10 1,7 C 98 % 1017,8 hPa 0,0 l/m 2,3 km/h (1 Bft) SO 144 0 min 0,000 mm 0,5 UV-I 213 W/m 1,4 C 1,7 C 3,2 km/h (1 Bft) 96,15 %
04.11.2016 13:12 1,6 C 98 % 1017,8 hPa 0,0 l/m 0,5 km/h (0 Bft) SO 144 0 min 0,000 mm 0,5 UV-I 212 W/m 1,3 C 1,6 C 3,2 km/h (1 Bft) 97,44 %
04.11.2016 13:14 1,8 C 98 % 1017,8 hPa 0,0 l/m 1,1 km/h (1 Bft) SO 144 0 min 0,000 mm 0,5 UV-I 199 W/m 1,5 C 1,8 C 3,2 km/h (1 Bft) 98,11 %
04.11.2016 13:16 1,8 C 98 % 1017,7 hPa 0,0 l/m 1,5 km/h (1 Bft) SO 138 0 min 0,000 mm 0,5 UV-I 196 W/m 1,5 C 1,8 C 4,8 km/h (1 Bft) 97,56 %
04.11.2016 13:18 1,7 C 98 % 1017,7 hPa 0,0 l/m 0,1 km/h (0 Bft) SO 138 0 min 0,000 mm 0,5 UV-I 184 W/m 1,4 C 1,7 C 1,6 km/h (1 Bft) 97,96 %
04.11.2016 13:20 1,8 C 98 % 1017,6 hPa 0,0 l/m 0,0 km/h (0 Bft) SO 138 0 min 0,000 mm 0,5 UV-I 191 W/m 1,5 C 1,8 C 0,0 km/h (0 Bft) 94,34 %
04.11.2016 13:22 1,8 C 98 % 1017,6 hPa 0,0 l/m 0,0 km/h (0 Bft) SO 138 0 min 0,000 mm 0,5 UV-I 195 W/m 1,5 C 1,8 C 0,0 km/h (0 Bft) 97,56 %
04.11.2016 13:24 1,9 C 98 % 1017,6 hPa 0,0 l/m 0,3 km/h (0 Bft) SO 138 2 min 0,000 mm 0,5 UV-I 220 W/m 1,6 C 1,9 C 1,6 km/h (1 Bft) 97,87 %
04.11.2016 13:26 1,9 C 98 % 1017,6 hPa 0,0 l/m 1,6 km/h (1 Bft) SO 138 2 min 0,000 mm 0,5 UV-I 228 W/m 1,6 C 1,9 C 3,2 km/h (1 Bft) 95,74 %
04.11.2016 13:28 2,0 C 98 % 1017,6 hPa 0,0 l/m 0,8 km/h (0 Bft) O 83 2 min 0,000 mm 0,5 UV-I 226 W/m 1,7 C 2,0 C 3,2 km/h (1 Bft) 98,00 %
04.11.2016 13:30 2,1 C 98 % 1017,6 hPa 0,0 l/m 3,7 km/h (1 Bft) O 79 0 min 0,000 mm 0,5 UV-I 189 W/m 1,8 C 2,1 C 4,8 km/h (1 Bft) 97,87 %
04.11.2016 13:32 2,2 C 98 % 1017,6 hPa 0,0 l/m 3,2 km/h (1 Bft) O 79 0 min 0,000 mm 0,5 UV-I 183 W/m 1,9 C 2,2 C 4,8 km/h (1 Bft) 97,87 %
04.11.2016 13:35 2,1 C 98 % 1017,5 hPa 0,0 l/m 2,1 km/h (1 Bft) O 79 0 min 0,000 mm 0,5 UV-I 152 W/m 1,8 C 2,1 C 3,2 km/h (1 Bft) 97,06 %
04.11.2016 13:36 2,1 C 98 % 1017,5 hPa 0,0 l/m 1,5 km/h (1 Bft) O 79 0 min 0,000 mm 0,5 UV-I 144 W/m 1,8 C 2,1 C 3,2 km/h (1 Bft) 100,00 %
04.11.2016 13:38 2,0 C 98 % 1017,5 hPa 0,0 l/m 1,0 km/h (0 Bft) O 79 0 min 0,000 mm 0,5 UV-I 170 W/m 1,7 C 2,0 C 3,2 km/h (1 Bft) 98,11 %
04.11.2016 13:40 2,0 C 97 % 1017,4 hPa 0,0 l/m 0,6 km/h (0 Bft) O 79 0 min 0,000 mm 0,5 UV-I 183 W/m 1,6 C 2,0 C 3,2 km/h (1 Bft) 98,00 %
04.11.2016 13:42 2,0 C 97 % 1017,3 hPa 0,0 l/m 0,3 km/h (0 Bft) O 79 2 min 0,000 mm 0,5 UV-I 223 W/m 1,6 C 2,0 C 1,6 km/h (1 Bft) 100,00 %
04.11.2016 13:45 2,2 C 98 % 1017,3 hPa 0,0 l/m 1,8 km/h (1 Bft) O-SO 117 3 min 0,000 mm 0,5 UV-I 276 W/m 1,9 C 2,2 C 4,8 km/h (1 Bft) 98,46 %
04.11.2016 13:46 2,3 C 98 % 1017,3 hPa 0,0 l/m 0,7 km/h (0 Bft) O-SO 121 1 min 0,000 mm 0,6 UV-I 355 W/m 2,0 C 2,3 C 3,2 km/h (1 Bft) 96,15 %
04.11.2016 13:48 2,3 C 98 % 1017,2 hPa 0,0 l/m 3,4 km/h (1 Bft) O-SO 106 2 min 0,000 mm 0,5 UV-I 236 W/m 2,0 C 2,3 C 6,4 km/h (2 Bft) 100,00 %
04.11.2016 13:50 2,4 C 97 % 1017,3 hPa 0,0 l/m 4,5 km/h (1 Bft) S-SO 152 0 min 0,000 mm 0,5 UV-I 164 W/m 2,0 C 2,4 C 9,7 km/h (2 Bft) 100,00 %
04.11.2016 13:52 2,3 C 97 % 1017,2 hPa 0,0 l/m 2,7 km/h (1 Bft) SO 131 0 min 0,000 mm 0,5 UV-I 155 W/m 1,9 C 2,3 C 4,8 km/h (1 Bft) 100,00 %
04.11.2016 13:54 2,3 C 97 % 1017,2 hPa 0,0 l/m 4,6 km/h (1 Bft) O-SO 109 0 min 0,000 mm 0,5 UV-I 188 W/m 1,9 C 2,3 C 9,7 km/h (2 Bft) 100,00 %
04.11.2016 13:56 2,4 C 97 % 1017,2 hPa 0,0 l/m 4,2 km/h (1 Bft) O-SO 111 0 min 0,000 mm 0,3 UV-I 139 W/m 2,0 C 2,4 C 6,4 km/h (2 Bft) 100,00 %
04.11.2016 13:58 2,4 C 97 % 1017,2 hPa 0,0 l/m 3,7 km/h (1 Bft) O-SO 103 0 min 0,000 mm 0,5 UV-I 161 W/m 2,0 C 2,4 C 4,8 km/h (1 Bft) 100,00 %
04.11.2016 14:00 2,3 C 97 % 1017,2 hPa 0,0 l/m 1,5 km/h (1 Bft) O-SO 103 0 min 0,076 mm 0,5 UV-I 154 W/m 1,9 C 2,3 C 3,2 km/h (1 Bft) 100,00 %
04.11.2016 14:03 2,3 C 97 % 1017,4 hPa 0,0 l/m 0,1 km/h (0 Bft) O-SO 103 0 min 0,000 mm 0,1 UV-I 163 W/m 1,9 C 2,3 C 1,6 km/h (1 Bft) 100,00 %
04.11.2016 14:04 2,4 C 97 % 1017,4 hPa 0,0 l/m 1,8 km/h (1 Bft) O-SO 112 0 min 0,000 mm 0,0 UV-I 157 W/m 2,0 C 2,4 C 3,2 km/h (1 Bft) 100,00 %
04.11.2016 14:06 2,4 C 97 % 1017,4 hPa 0,0 l/m 1,6 km/h (1 Bft) O-SO 119 0 min 0,000 mm 0,0 UV-I 150 W/m 2,0 C 2,4 C 3,2 km/h (1 Bft) 100,00 %
04.11.2016 14:08 2,4 C 97 % 1017,4 hPa 0,0 l/m 1,4 km/h (1 Bft) O-SO 119 0 min 0,000 mm 0,0 UV-I 142 W/m 2,0 C 2,4 C 3,2 km/h (1 Bft) 97,87 %
04.11.2016 14:10 2,4 C 97 % 1017,3 hPa 0,0 l/m 2,7 km/h (1 Bft) SO 146 0 min 0,000 mm 0,0 UV-I 141 W/m 2,0 C 2,4 C 4,8 km/h (1 Bft) 100,00 %
04.11.2016 14:12 2,4 C 97 % 1017,2 hPa 0,0 l/m 2,8 km/h (1 Bft) S-SO 154 0 min 0,000 mm 0,0 UV-I 143 W/m 2,0 C 2,4 C 4,8 km/h (1 Bft) 95,74 %
04.11.2016 14:14 2,5 C 97 % 1017,2 hPa 0,0 l/m 1,1 km/h (1 Bft) S-SO 154 0 min 0,000 mm 0,0 UV-I 122 W/m 2,1 C 2,5 C 3,2 km/h (1 Bft) 100,00 %
04.11.2016 14:16 2,6 C 97 % 1017,2 hPa 0,0 l/m 1,5 km/h (1 Bft) S-SO 154 0 min 0,000 mm 0,0 UV-I 89 W/m 2,2 C 2,6 C 3,2 km/h (1 Bft) 100,00 %
04.11.2016 14:18 2,6 C 96 % 1017,2 hPa 0,0 l/m 0,9 km/h (0 Bft) S-SO 154 0 min 0,000 mm 0,0 UV-I 88 W/m 2,0 C 2,6 C 1,6 km/h (1 Bft) 100,00 %
04.11.2016 14:20 2,6 C 96 % 1017,1 hPa 0,0 l/m 1,0 km/h (0 Bft) S-SO 154 0 min 0,000 mm 0,0 UV-I 89 W/m 2,0 C 2,6 C 3,2 km/h (1 Bft) 100,00 %
04.11.2016 14:22 2,6 C 96 % 1017,1 hPa 0,0 l/m 0,2 km/h (0 Bft) S-SO 154 2 min 0,000 mm 0,0 UV-I 171 W/m 2,0 C 2,6 C 1,6 km/h (1 Bft) 100,00 %
04.11.2016 14:24 2,6 C 96 % 1017,1 hPa 0,0 l/m 0,9 km/h (0 Bft) S-SO 154 0 min 0,000 mm 0,0 UV-I 157 W/m 2,0 C 2,6 C 4,8 km/h (1 Bft) 98,00 %
04.11.2016 14:26 2,6 C 96 % 1017,1 hPa 0,0 l/m 0,6 km/h (0 Bft) S-SO 154 0 min 0,000 mm 0,0 UV-I 142 W/m 2,0 C 2,6 C 1,6 km/h (1 Bft) 100,00 %
04.11.2016 14:28 2,7 C 96 % 1017,1 hPa 0,0 l/m 0,1 km/h (0 Bft) S-SO 154 2 min 0,000 mm 0,0 UV-I 266 W/m 2,1 C 2,7 C 1,6 km/h (1 Bft) 100,00 %
04.11.2016 14:30 2,7 C 96 % 1017,1 hPa 0,0 l/m 0,1 km/h (0 Bft) S-SO 154 2 min 0,000 mm 0,0 UV-I 287 W/m 2,1 C 2,7 C 1,6 km/h (1 Bft) 94,44 %
04.11.2016 14:32 2,7 C 95 % 1017,0 hPa 0,0 l/m 0,2 km/h (0 Bft) S-SO 154 2 min 0,000 mm 0,0 UV-I 231 W/m 2,0 C 2,7 C 1,6 km/h (1 Bft) 100,00 %
04.11.2016 14:34 2,8 C 95 % 1017,0 hPa 0,0 l/m 1,7 km/h (1 Bft) S-SO 154 2 min 0,000 mm 0,0 UV-I 232 W/m 2,1 C 2,8 C 4,8 km/h (1 Bft) 100,00 %
04.11.2016 14:36 2,8 C 95 % 1017,0 hPa 0,0 l/m 2,3 km/h (1 Bft) S-SO 156 2 min 0,000 mm 0,0 UV-I 264 W/m 2,1 C 2,8 C 4,8 km/h (1 Bft) 100,00 %
04.11.2016 14:38 2,8 C 95 % 1016,9 hPa 0,0 l/m 0,9 km/h (0 Bft) S-SO 156 2 min 0,000 mm 0,0 UV-I 261 W/m 2,1 C 2,8 C 3,2 km/h (1 Bft) 100,00 %
04.11.2016 14:40 2,8 C 95 % 1017,0 hPa 0,0 l/m 0,8 km/h (0 Bft) S-SO 156 2 min 0,000 mm 0,0 UV-I 186 W/m 2,1 C 2,8 C 3,2 km/h (1 Bft) 100,00 %
04.11.2016 14:42 2,8 C 94 % 1016,9 hPa 0,0 l/m 1,3 km/h (1 Bft) S-SO 156 2 min 0,000 mm 0,0 UV-I 229 W/m 1,9 C 2,8 C 3,2 km/h (1 Bft) 100,00 %
04.11.2016 14:44 2,8 C 95 % 1016,9 hPa 0,0 l/m 1,2 km/h (1 Bft) S-SO 156 2 min 0,000 mm 0,0 UV-I 211 W/m 2,1 C 2,8 C 3,2 km/h (1 Bft) 100,00 %
04.11.2016 14:46 2,8 C 95 % 1016,9 hPa 0,0 l/m 1,4 km/h (1 Bft) S-SO 156 2 min 0,000 mm 0,0 UV-I 193 W/m 2,1 C 2,8 C 3,2 km/h (1 Bft) 100,00 %
04.11.2016 14:48 2,8 C 95 % 1016,9 hPa 0,0 l/m 2,3 km/h (1 Bft) S-SO 157 2 min 0,000 mm 0,0 UV-I 172 W/m 2,1 C 2,8 C 4,8 km/h (1 Bft) 100,00 %
04.11.2016 14:50 2,8 C 95 % 1016,9 hPa 0,0 l/m 1,1 km/h (1 Bft) S-SO 157 2 min 0,000 mm 0,0 UV-I 170 W/m 2,1 C 2,8 C 3,2 km/h (1 Bft) 97,87 %
04.11.2016 14:52 2,8 C 95 % 1016,8 hPa 0,0 l/m 1,3 km/h (1 Bft) S-SO 157 2 min 0,000 mm 0,0 UV-I 157 W/m 2,1 C 2,8 C 3,2 km/h (1 Bft) 100,00 %
04.11.2016 14:54 2,8 C 95 % 1016,8 hPa 0,0 l/m 3,0 km/h (1 Bft) S-SO 159 2 min 0,000 mm 0,0 UV-I 168 W/m 2,1 C 2,8 C 6,4 km/h (2 Bft) 100,00 %
04.11.2016 14:56 2,9 C 95 % 1016,7 hPa 0,0 l/m 2,3 km/h (1 Bft) S-SO 159 2 min 0,000 mm 0,0 UV-I 191 W/m 2,2 C 2,9 C 6,4 km/h (2 Bft) 100,00 %
04.11.2016 14:58 2,9 C 95 % 1016,7 hPa 0,0 l/m 3,0 km/h (1 Bft) S-SO 159 2 min 0,000 mm 0,0 UV-I 198 W/m 2,2 C 2,9 C 6,4 km/h (2 Bft) 100,00 %
04.11.2016 15:00 3,0 C 95 % 1016,6 hPa 0,0 l/m 2,5 km/h (1 Bft) S-SO 159 2 min 0,076 mm 0,0 UV-I 195 W/m 2,3 C 3,0 C 6,4 km/h (2 Bft) 100,00 %
04.11.2016 15:02 3,0 C 94 % 1016,6 hPa 0,0 l/m 0,6 km/h (0 Bft) S-SO 159 2 min 0,000 mm 0,0 UV-I 204 W/m 2,1 C 3,0 C 1,6 km/h (1 Bft) 100,00 %
04.11.2016 15:04 2,9 C 94 % 1016,6 hPa 0,0 l/m 0,6 km/h (0 Bft) S-SO 159 2 min 0,000 mm 0,0 UV-I 203 W/m 2,0 C 2,9 C 1,6 km/h (1 Bft) 100,00 %
04.11.2016 15:06 2,9 C 94 % 1016,6 hPa 0,0 l/m 1,2 km/h (1 Bft) S-SO 159 0 min 0,000 mm 0,0 UV-I 110 W/m 2,0 C 2,9 C 3,2 km/h (1 Bft) 100,00 %
04.11.2016 15:08 2,9 C 94 % 1016,6 hPa 0,0 l/m 0,2 km/h (0 Bft) S-SO 159 0 min 0,000 mm 0,0 UV-I 117 W/m 2,0 C 2,9 C 1,6 km/h (1 Bft) 100,00 %
04.11.2016 15:10 2,9 C 94 % 1016,5 hPa 0,0 l/m 2,9 km/h (1 Bft) S 169 2 min 0,000 mm 0,0 UV-I 135 W/m 2,0 C 2,9 C 6,4 km/h (2 Bft) 95,74 %
04.11.2016 15:12 3,0 C 94 % 1016,5 hPa 0,0 l/m 1,5 km/h (1 Bft) S 169 2 min 0,000 mm 0,0 UV-I 182 W/m 2,1 C 3,0 C 3,2 km/h (1 Bft) 100,00 %
04.11.2016 15:14 3,1 C 95 % 1016,5 hPa 0,0 l/m 2,1 km/h (1 Bft) S 169 2 min 0,000 mm 0,0 UV-I 179 W/m 2,4 C 3,1 C 6,4 km/h (2 Bft) 100,00 %
04.11.2016 15:16 3,2 C 94 % 1016,4 hPa 0,0 l/m 1,6 km/h (1 Bft) S-SO 160 2 min 0,000 mm 0,0 UV-I 158 W/m 2,3 C 3,2 C 4,8 km/h (1 Bft) 97,37 %
04.11.2016 15:18 3,3 C 94 % 1016,4 hPa 0,0 l/m 2,0 km/h (1 Bft) S 169 2 min 0,000 mm 0,0 UV-I 157 W/m 2,4 C 3,3 C 6,4 km/h (2 Bft) 100,00 %
04.11.2016 15:20 3,3 C 94 % 1016,4 hPa 0,0 l/m 2,5 km/h (1 Bft) S 169 2 min 0,000 mm 0,0 UV-I 162 W/m 2,4 C 3,3 C 6,4 km/h (2 Bft) 100,00 %
04.11.2016 15:22 3,3 C 94 % 1016,4 hPa 0,0 l/m 1,3 km/h (1 Bft) S-SO 153 2 min 0,000 mm 0,0 UV-I 167 W/m 2,4 C 3,3 C 4,8 km/h (1 Bft) 100,00 %
04.11.2016 15:24 3,3 C 94 % 1016,4 hPa 0,0 l/m 0,7 km/h (0 Bft) S-SO 153 2 min 0,000 mm 0,0 UV-I 167 W/m 2,4 C 3,3 C 3,2 km/h (1 Bft) 95,74 %
04.11.2016 15:26 3,3 C 94 % 1016,4 hPa 0,0 l/m 2,3 km/h (1 Bft) S-SO 153 2 min 0,000 mm 0,0 UV-I 166 W/m 2,4 C 3,3 C 3,2 km/h (1 Bft) 100,00 %
04.11.2016 15:28 3,3 C 93 % 1016,2 hPa 0,0 l/m 0,4 km/h (0 Bft) S-SO 153 2 min 0,000 mm 0,0 UV-I 164 W/m 2,3 C 3,3 C 1,6 km/h (1 Bft) 100,00 %
04.11.2016 15:30 3,3 C 94 % 1016,3 hPa 0,0 l/m 0,9 km/h (0 Bft) S-SO 153 2 min 0,000 mm 0,0 UV-I 160 W/m 2,4 C 3,3 C 3,2 km/h (1 Bft) 98,00 %
04.11.2016 15:32 3,4 C 94 % 1016,3 hPa 0,0 l/m 1,6 km/h (1 Bft) S-SO 155 2 min 0,000 mm 0,0 UV-I 156 W/m 2,5 C 3,4 C 3,2 km/h (1 Bft) 100,00 %
04.11.2016 15:34 3,4 C 94 % 1016,3 hPa 0,0 l/m 1,5 km/h (1 Bft) S-SO 156 2 min 0,000 mm 0,0 UV-I 148 W/m 2,5 C 3,4 C 3,2 km/h (1 Bft) 100,00 %
04.11.2016 15:36 3,3 C 93 % 1016,3 hPa 0,0 l/m 1,1 km/h (1 Bft) S-SO 156 2 min 0,000 mm 0,0 UV-I 146 W/m 2,3 C 3,3 C 3,2 km/h (1 Bft) 97,87 %
04.11.2016 15:38 3,4 C 93 % 1016,3 hPa 0,0 l/m 1,5 km/h (1 Bft) S-SO 156 2 min 0,000 mm 0,0 UV-I 139 W/m 2,4 C 3,4 C 3,2 km/h (1 Bft) 100,00 %
04.11.2016 15:40 3,3 C 93 % 1016,3 hPa 0,0 l/m 0,8 km/h (0 Bft) S-SO 156 2 min 0,000 mm 0,0 UV-I 131 W/m 2,3 C 3,3 C 3,2 km/h (1 Bft) 100,00 %
04.11.2016 15:42 3,3 C 93 % 1016,3 hPa 0,0 l/m 0,7 km/h (0 Bft) S-SO 155 2 min 0,000 mm 0,0 UV-I 129 W/m 2,3 C 3,3 C 3,2 km/h (1 Bft) 100,00 %
04.11.2016 15:44 3,3 C 93 % 1016,2 hPa 0,0 l/m 3,1 km/h (1 Bft) SO 134 2 min 0,000 mm 0,0 UV-I 133 W/m 2,3 C 3,3 C 4,8 km/h (1 Bft) 98,11 %
04.11.2016 15:46 3,3 C 93 % 1016,2 hPa 0,0 l/m 2,3 km/h (1 Bft) SO 134 2 min 0,000 mm 0,0 UV-I 122 W/m 2,3 C 3,3 C 3,2 km/h (1 Bft) 100,00 %
04.11.2016 15:48 3,3 C 93 % 1016,1 hPa 0,0 l/m 1,8 km/h (1 Bft) SO 134 2 min 0,000 mm 0,0 UV-I 122 W/m 2,3 C 3,3 C 4,8 km/h (1 Bft) 100,00 %
04.11.2016 15:50 3,3 C 93 % 1016,1 hPa 0,0 l/m 2,6 km/h (1 Bft) SO 127 2 min 0,000 mm 0,0 UV-I 110 W/m 2,3 C 3,3 C 4,8 km/h (1 Bft) 96,88 %
04.11.2016 15:52 3,3 C 94 % 1016,0 hPa 0,0 l/m 3,9 km/h (1 Bft) SO 124 2 min 0,000 mm 0,0 UV-I 104 W/m 2,4 C 3,3 C 4,8 km/h (1 Bft) 97,22 %
04.11.2016 15:54 3,3 C 94 % 1016,0 hPa 0,0 l/m 1,7 km/h (1 Bft) SO 124 2 min 0,000 mm 0,0 UV-I 113 W/m 2,4 C 3,3 C 3,2 km/h (1 Bft) 100,00 %
04.11.2016 15:56 3,3 C 94 % 1015,9 hPa 0,0 l/m 0,4 km/h (0 Bft) SO 124 2 min 0,000 mm 0,0 UV-I 114 W/m 2,4 C 3,3 C 1,6 km/h (1 Bft) 97,96 %
04.11.2016 15:58 3,3 C 94 % 1015,9 hPa 0,0 l/m 1,1 km/h (1 Bft) SO 124 2 min 0,000 mm 0,0 UV-I 105 W/m 2,4 C 3,3 C 3,2 km/h (1 Bft) 98,11 %
04.11.2016 16:00 3,3 C 94 % 1015,9 hPa 0,0 l/m 1,0 km/h (0 Bft) SO 124 2 min 0,051 mm 0,0 UV-I 87 W/m 2,4 C 3,3 C 3,2 km/h (1 Bft) 100,00 %
04.11.2016 16:02 3,2 C 94 % 1015,9 hPa 0,0 l/m 1,2 km/h (1 Bft) SO 125 2 min 0,000 mm 0,0 UV-I 70 W/m 2,3 C 3,2 C 3,2 km/h (1 Bft) 100,00 %
04.11.2016 16:04 3,2 C 94 % 1015,8 hPa 0,0 l/m 1,3 km/h (1 Bft) SO 125 2 min 0,000 mm 0,0 UV-I 65 W/m 2,3 C 3,2 C 3,2 km/h (1 Bft) 100,00 %
04.11.2016 16:06 3,2 C 94 % 1015,8 hPa 0,0 l/m 0,7 km/h (0 Bft) SO 125 2 min 0,000 mm 0,0 UV-I 57 W/m 2,3 C 3,2 C 3,2 km/h (1 Bft) 98,11 %
04.11.2016 16:08 3,1 C 94 % 1015,8 hPa 0,0 l/m 1,5 km/h (1 Bft) SO 125 2 min 0,000 mm 0,0 UV-I 46 W/m 2,2 C 3,1 C 4,8 km/h (1 Bft) 100,00 %
04.11.2016 16:10 3,0 C 94 % 1015,8 hPa 0,0 l/m 1,6 km/h (1 Bft) SO 126 2 min 0,000 mm 0,0 UV-I 39 W/m 2,1 C 3,0 C 3,2 km/h (1 Bft) 97,87 %
04.11.2016 16:12 2,9 C 94 % 1015,7 hPa 0,0 l/m 1,5 km/h (1 Bft) SO 126 2 min 0,000 mm 0,0 UV-I 35 W/m 2,0 C 2,9 C 3,2 km/h (1 Bft) 97,37 %
04.11.2016 16:14 2,9 C 94 % 1015,7 hPa 0,0 l/m 0,7 km/h (0 Bft) SO 126 2 min 0,000 mm 0,0 UV-I 31 W/m 2,0 C 2,9 C 3,2 km/h (1 Bft) 98,00 %
04.11.2016 16:16 2,9 C 94 % 1015,7 hPa 0,0 l/m 0,3 km/h (0 Bft) SO 126 2 min 0,000 mm 0,0 UV-I 28 W/m 2,0 C 2,9 C 1,6 km/h (1 Bft) 96,00 %
04.11.2016 16:18 2,8 C 94 % 1015,7 hPa 0,0 l/m 0,6 km/h (0 Bft) SO 125 2 min 0,000 mm 0,0 UV-I 26 W/m 1,9 C 2,8 C 1,6 km/h (1 Bft) 95,12 %
04.11.2016 16:20 2,8 C 94 % 1015,7 hPa 0,0 l/m 0,4 km/h (0 Bft) SO 125 2 min 0,000 mm 0,0 UV-I 25 W/m 1,9 C 2,8 C 1,6 km/h (1 Bft) 98,11 %
04.11.2016 16:22 2,7 C 94 % 1015,7 hPa 0,0 l/m 0,9 km/h (0 Bft) SO 126 2 min 0,000 mm 0,0 UV-I 23 W/m 1,8 C 2,7 C 3,2 km/h (1 Bft) 97,87 %
04.11.2016 16:24 2,7 C 94 % 1015,7 hPa 0,0 l/m 0,9 km/h (0 Bft) SO 126 2 min 0,000 mm 0,0 UV-I 20 W/m 1,8 C 2,7 C 3,2 km/h (1 Bft) 94,00 %
04.11.2016 16:26 2,7 C 95 % 1015,7 hPa 0,0 l/m 0,3 km/h (0 Bft) SO 126 2 min 0,000 mm 0,0 UV-I 19 W/m 2,0 C 2,7 C 1,6 km/h (1 Bft) 97,87 %
04.11.2016 16:28 2,7 C 95 % 1015,7 hPa 0,0 l/m 0,5 km/h (0 Bft) SO 126 2 min 0,000 mm 0,0 UV-I 17 W/m 2,0 C 2,7 C 1,6 km/h (1 Bft) 97,44 %
04.11.2016 16:30 2,6 C 95 % 1015,6 hPa 0,0 l/m 0,8 km/h (0 Bft) SO 126 0 min 0,000 mm 0,0 UV-I 15 W/m 1,9 C 2,6 C 1,6 km/h (1 Bft) 96,15 %
04.11.2016 16:32 2,6 C 95 % 1015,7 hPa 0,0 l/m 0,0 km/h (0 Bft) SO 126 0 min 0,000 mm 0,0 UV-I 12 W/m 1,9 C 2,6 C 0,0 km/h (0 Bft) 95,83 %
04.11.2016 16:34 2,5 C 95 % 1015,7 hPa 0,0 l/m 0,3 km/h (0 Bft) SO 126 0 min 0,000 mm 0,0 UV-I 11 W/m 1,8 C 2,5 C 3,2 km/h (1 Bft) 94,74 %
04.11.2016 16:36 2,4 C 95 % 1015,7 hPa 0,0 l/m 0,0 km/h (0 Bft) SO 126 0 min 0,000 mm 0,0 UV-I 9 W/m 1,7 C 2,4 C 1,6 km/h (1 Bft) 98,00 %
04.11.2016 16:38 2,4 C 95 % 1015,7 hPa 0,0 l/m 0,1 km/h (0 Bft) SO 126 0 min 0,000 mm 0,0 UV-I 7 W/m 1,7 C 2,4 C 1,6 km/h (1 Bft) 97,87 %
04.11.2016 16:40 2,2 C 95 % 1015,7 hPa 0,0 l/m 0,5 km/h (0 Bft) SO 126 0 min 0,000 mm 0,0 UV-I 7 W/m 1,5 C 2,2 C 1,6 km/h (1 Bft) 98,11 %
04.11.2016 16:42 2,1 C 95 % 1015,7 hPa 0,0 l/m 0,2 km/h (0 Bft) SO 126 0 min 0,000 mm 0,0 UV-I 6 W/m 1,4 C 2,1 C 1,6 km/h (1 Bft) 97,87 %
04.11.2016 16:44 2,0 C 95 % 1015,7 hPa 0,0 l/m 0,0 km/h (0 Bft) SO 126 0 min 0,000 mm 0,0 UV-I 5 W/m 1,3 C 2,0 C 0,0 km/h (0 Bft) 97,87 %
04.11.2016 16:46 1,9 C 95 % 1015,6 hPa 0,0 l/m 0,0 km/h (0 Bft) SO 126 0 min 0,000 mm 0,0 UV-I 5 W/m 1,2 C 1,9 C 1,6 km/h (1 Bft) 95,12 %
04.11.2016 16:48 1,7 C 94 % 1015,5 hPa 0,0 l/m 0,0 km/h (0 Bft) SO 126 0 min 0,000 mm 0,0 UV-I 5 W/m 0,8 C 1,7 C 0,0 km/h (0 Bft) 96,23 %
04.11.2016 16:50 1,6 C 95 % 1015,6 hPa 0,0 l/m 0,2 km/h (0 Bft) SO 126 0 min 0,000 mm 0,0 UV-I 5 W/m 0,9 C 1,6 C 1,6 km/h (1 Bft) 97,73 %
04.11.2016 16:52 1,6 C 95 % 1015,6 hPa 0,0 l/m 0,0 km/h (0 Bft) SO 126 0 min 0,000 mm 0,0 UV-I 2 W/m 0,9 C 1,6 C 0,0 km/h (0 Bft) 98,00 %
04.11.2016 16:54 1,6 C 96 % 1015,6 hPa 0,0 l/m 0,2 km/h (0 Bft) SO 126 0 min 0,000 mm 0,0 UV-I 0 W/m 1,0 C 1,6 C 1,6 km/h (1 Bft) 97,87 %
04.11.2016 16:56 1,6 C 96 % 1015,5 hPa 0,0 l/m 1,1 km/h (1 Bft) SO 126 0 min 0,000 mm 0,0 UV-I 0 W/m 1,0 C 1,6 C 3,2 km/h (1 Bft) 97,56 %
04.11.2016 16:58 1,5 C 96 % 1015,5 hPa 0,0 l/m 1,2 km/h (1 Bft) SO 126 0 min 0,000 mm 0,0 UV-I 0 W/m 0,9 C 1,5 C 3,2 km/h (1 Bft) 94,00 %
04.11.2016 17:00 1,4 C 95 % 1015,5 hPa 0,0 l/m 0,4 km/h (0 Bft) SO 126 0 min 0,000 mm 0,0 UV-I 0 W/m 0,7 C 1,4 C 1,6 km/h (1 Bft) 97,14 %
04.11.2016 17:02 1,4 C 96 % 1015,5 hPa 0,0 l/m 1,0 km/h (0 Bft) SO 126 0 min 0,000 mm 0,0 UV-I 0 W/m 0,8 C 1,4 C 1,6 km/h (1 Bft) 98,21 %
04.11.2016 17:04 1,3 C 96 % 1015,5 hPa 0,0 l/m 0,0 km/h (0 Bft) SO 126 0 min 0,000 mm 0,0 UV-I 0 W/m 0,7 C 1,3 C 0,0 km/h (0 Bft) 97,44 %
04.11.2016 17:06 1,2 C 95 % 1015,5 hPa 0,0 l/m 0,0 km/h (0 Bft) SO 126 0 min 0,000 mm 0,0 UV-I 0 W/m 0,5 C 1,2 C 0,0 km/h (0 Bft) 98,00 %
04.11.2016 17:08 1,2 C 96 % 1015,6 hPa 0,0 l/m 0,0 km/h (0 Bft) SO 126 0 min 0,000 mm 0,0 UV-I 0 W/m 0,6 C 1,2 C 0,0 km/h (0 Bft) 100,00 %
04.11.2016 17:10 1,2 C 96 % 1015,6 hPa 0,0 l/m 0,0 km/h (0 Bft) SO 126 0 min 0,000 mm 0,0 UV-I 0 W/m 0,6 C 1,2 C 0,0 km/h (0 Bft) 100,00 %
04.11.2016 17:12 1,2 C 96 % 1015,6 hPa 0,0 l/m 0,1 km/h (0 Bft) SO 126 0 min 0,000 mm 0,0 UV-I 0 W/m 0,6 C 1,2 C 1,6 km/h (1 Bft) 98,11 %
04.11.2016 17:14 1,2 C 96 % 1015,6 hPa 0,0 l/m 1,1 km/h (1 Bft) SO 126 0 min 0,000 mm 0,0 UV-I 0 W/m 0,6 C 1,2 C 3,2 km/h (1 Bft) 97,44 %
04.11.2016 17:16 1,2 C 96 % 1015,5 hPa 0,0 l/m 0,9 km/h (0 Bft) SO 126 0 min 0,000 mm 0,0 UV-I 0 W/m 0,6 C 1,2 C 1,6 km/h (1 Bft) 98,00 %
04.11.2016 17:18 1,1 C 96 % 1015,5 hPa 0,0 l/m 0,5 km/h (0 Bft) SO 126 0 min 0,000 mm 0,0 UV-I 0 W/m 0,5 C 1,1 C 1,6 km/h (1 Bft) 100,00 %
04.11.2016 17:20 0,8 C 96 % 1015,5 hPa 0,0 l/m 0,8 km/h (0 Bft) SO 126 0 min 0,000 mm 0,0 UV-I 0 W/m 0,2 C 0,8 C 3,2 km/h (1 Bft) 100,00 %
04.11.2016 17:22 0,8 C 96 % 1015,4 hPa 0,0 l/m 0,2 km/h (0 Bft) SO 126 0 min 0,000 mm 0,0 UV-I 0 W/m 0,2 C 0,8 C 1,6 km/h (1 Bft) 100,00 %
04.11.2016 17:24 0,8 C 96 % 1015,5 hPa 0,0 l/m 0,0 km/h (0 Bft) SO 126 0 min 0,000 mm 0,0 UV-I 0 W/m 0,2 C 0,8 C 0,0 km/h (0 Bft) 100,00 %
04.11.2016 17:26 0,8 C 96 % 1015,5 hPa 0,0 l/m 0,0 km/h (0 Bft) SO 126 0 min 0,000 mm 0,0 UV-I 0 W/m 0,2 C 0,8 C 1,6 km/h (1 Bft) 100,00 %
04.11.2016 17:28 0,8 C 96 % 1015,6 hPa 0,0 l/m 0,7 km/h (0 Bft) SO 126 0 min 0,000 mm 0,0 UV-I 0 W/m 0,2 C 0,8 C 1,6 km/h (1 Bft) 100,00 %
04.11.2016 17:30 0,8 C 96 % 1015,5 hPa 0,0 l/m 0,6 km/h (0 Bft) SO 126 0 min 0,000 mm 0,0 UV-I 0 W/m 0,2 C 0,8 C 1,6 km/h (1 Bft) 100,00 %
04.11.2016 17:32 0,7 C 96 % 1015,5 hPa 0,0 l/m 0,4 km/h (0 Bft) SO 126 0 min 0,000 mm 0,0 UV-I 0 W/m 0,1 C 0,7 C 1,6 km/h (1 Bft) 100,00 %
04.11.2016 17:34 0,6 C 96 % 1015,6 hPa 0,0 l/m 1,2 km/h (1 Bft) SO 126 0 min 0,000 mm 0,0 UV-I 0 W/m 0,0 C 0,6 C 3,2 km/h (1 Bft) 98,00 %
04.11.2016 17:36 0,6 C 96 % 1015,6 hPa 0,0 l/m 0,1 km/h (0 Bft) SO 126 0 min 0,000 mm 0,0 UV-I 0 W/m 0,0 C 0,6 C 1,6 km/h (1 Bft) 100,00 %
04.11.2016 17:38 0,5 C 96 % 1015,7 hPa 0,0 l/m 0,1 km/h (0 Bft) SO 126 0 min 0,000 mm 0,0 UV-I 0 W/m -0,1 C 0,5 C 1,6 km/h (1 Bft) 100,00 %
04.11.2016 17:40 0,6 C 97 % 1015,7 hPa 0,0 l/m 1,6 km/h (1 Bft) SO 126 0 min 0,000 mm 0,0 UV-I 0 W/m 0,2 C 0,6 C 3,2 km/h (1 Bft) 97,37 %
04.11.2016 17:42 0,7 C 97 % 1015,7 hPa 0,0 l/m 0,8 km/h (0 Bft) SO 126 0 min 0,000 mm 0,0 UV-I 0 W/m 0,3 C 0,7 C 1,6 km/h (1 Bft) 100,00 %
04.11.2016 17:44 0,7 C 97 % 1015,7 hPa 0,0 l/m 0,4 km/h (0 Bft) SO 126 0 min 0,000 mm 0,0 UV-I 0 W/m 0,3 C 0,7 C 1,6 km/h (1 Bft) 100,00 %
04.11.2016 17:46 0,8 C 97 % 1015,6 hPa 0,0 l/m 0,9 km/h (0 Bft) SO 126 0 min 0,000 mm 0,0 UV-I 0 W/m 0,4 C 0,8 C 3,2 km/h (1 Bft) 100,00 %
04.11.2016 17:48 0,6 C 96 % 1015,6 hPa 0,0 l/m 0,5 km/h (0 Bft) SO 126 0 min 0,000 mm 0,0 UV-I 0 W/m 0,0 C 0,6 C 1,6 km/h (1 Bft) 100,00 %
04.11.2016 17:50 0,5 C 96 % 1015,6 hPa 0,0 l/m 2,0 km/h (1 Bft) SO 126 0 min 0,000 mm 0,0 UV-I 0 W/m -0,1 C 0,5 C 3,2 km/h (1 Bft) 96,23 %
04.11.2016 17:52 0,5 C 96 % 1015,6 hPa 0,0 l/m 0,5 km/h (0 Bft) SO 126 0 min 0,000 mm 0,0 UV-I 0 W/m -0,1 C 0,5 C 1,6 km/h (1 Bft) 100,00 %
04.11.2016 17:54 0,6 C 97 % 1015,6 hPa 0,0 l/m 0,2 km/h (0 Bft) SO 126 0 min 0,000 mm 0,0 UV-I 0 W/m 0,2 C 0,6 C 1,6 km/h (1 Bft) 100,00 %
04.11.2016 17:56 0,6 C 97 % 1015,6 hPa 0,0 l/m 0,5 km/h (0 Bft) SO 126 0 min 0,000 mm 0,0 UV-I 0 W/m 0,2 C 0,6 C 1,6 km/h (1 Bft) 98,00 %
04.11.2016 17:58 0,6 C 97 % 1015,6 hPa 0,0 l/m 1,0 km/h (0 Bft) SO 126 0 min 0,000 mm 0,0 UV-I 0 W/m 0,2 C 0,6 C 1,6 km/h (1 Bft) 100,00 %
04.11.2016 18:00 0,6 C 97 % 1015,6 hPa 0,0 l/m 0,8 km/h (0 Bft) SO 126 0 min 0,000 mm 0,0 UV-I 0 W/m 0,2 C 0,6 C 1,6 km/h (1 Bft) 100,00 %
04.11.2016 18:02 0,6 C 97 % 1015,6 hPa 0,0 l/m 2,2 km/h (1 Bft) SO 126 0 min 0,000 mm 0,0 UV-I 0 W/m 0,2 C 0,6 C 3,2 km/h (1 Bft) 97,56 %
04.11.2016 18:04 0,6 C 97 % 1015,6 hPa 0,0 l/m 1,5 km/h (1 Bft) SO 126 0 min 0,000 mm 0,0 UV-I 0 W/m 0,2 C 0,6 C 3,2 km/h (1 Bft) 100,00 %
04.11.2016 18:06 0,6 C 97 % 1015,6 hPa 0,0 l/m 0,7 km/h (0 Bft) SO 126 0 min 0,000 mm 0,0 UV-I 0 W/m 0,2 C 0,6 C 1,6 km/h (1 Bft) 100,00 %
04.11.2016 18:08 0,6 C 97 % 1015,6 hPa 0,0 l/m 0,1 km/h (0 Bft) SO 126 0 min 0,000 mm 0,0 UV-I 0 W/m 0,2 C 0,6 C 1,6 km/h (1 Bft) 100,00 %
04.11.2016 18:10 0,4 C 97 % 1015,6 hPa 0,0 l/m 0,0 km/h (0 Bft) SO 126 0 min 0,000 mm 0,0 UV-I 0 W/m -0,0 C 0,4 C 0,0 km/h (0 Bft) 98,11 %
04.11.2016 18:12 0,3 C 97 % 1015,7 hPa 0,0 l/m 0,6 km/h (0 Bft) SO 126 0 min 0,000 mm 0,0 UV-I 0 W/m -0,1 C 0,3 C 3,2 km/h (1 Bft) 100,00 %
04.11.2016 18:14 0,3 C 97 % 1015,7 hPa 0,0 l/m 2,1 km/h (1 Bft) SO 126 0 min 0,000 mm 0,0 UV-I 0 W/m -0,1 C 0,3 C 3,2 km/h (1 Bft) 100,00 %
04.11.2016 18:16 0,4 C 97 % 1015,6 hPa 0,0 l/m 0,9 km/h (0 Bft) SO 126 0 min 0,000 mm 0,0 UV-I 0 W/m -0,0 C 0,4 C 1,6 km/h (1 Bft) 98,57 %
04.11.2016 18:18 0,4 C 97 % 1015,7 hPa 0,0 l/m 0,0 km/h (0 Bft) SO 126 0 min 0,000 mm 0,0 UV-I 0 W/m -0,0 C 0,4 C 1,6 km/h (1 Bft) 100,00 %
04.11.2016 18:20 0,4 C 97 % 1015,6 hPa 0,0 l/m 0,3 km/h (0 Bft) SO 126 0 min 0,000 mm 0,0 UV-I 0 W/m -0,0 C 0,4 C 1,6 km/h (1 Bft) 100,00 %
04.11.2016 18:22 0,4 C 97 % 1015,6 hPa 0,0 l/m 0,1 km/h (0 Bft) SO 126 0 min 0,000 mm 0,0 UV-I 0 W/m -0,0 C 0,4 C 1,6 km/h (1 Bft) 98,00 %
04.11.2016 18:24 0,5 C 97 % 1015,6 hPa 0,0 l/m 0,0 km/h (0 Bft) SO 126 0 min 0,000 mm 0,0 UV-I 0 W/m 0,1 C 0,5 C 0,0 km/h (0 Bft) 100,00 %
04.11.2016 18:26 0,6 C 97 % 1015,6 hPa 0,0 l/m 0,1 km/h (0 Bft) SO 126 0 min 0,000 mm 0,0 UV-I 0 W/m 0,2 C 0,6 C 1,6 km/h (1 Bft) 100,00 %
04.11.2016 18:28 0,5 C 97 % 1015,6 hPa 0,0 l/m 0,5 km/h (0 Bft) SO 125 0 min 0,000 mm 0,0 UV-I 0 W/m 0,1 C 0,5 C 1,6 km/h (1 Bft) 100,00 %
04.11.2016 18:30 0,3 C 97 % 1015,6 hPa 0,0 l/m 0,1 km/h (0 Bft) SO 126 0 min 0,000 mm 0,0 UV-I 0 W/m -0,1 C 0,3 C 1,6 km/h (1 Bft) 95,74 %
04.11.2016 18:33 0,3 C 97 % 1015,6 hPa 0,0 l/m 0,4 km/h (0 Bft) SO 126 0 min 0,000 mm 0,0 UV-I 0 W/m -0,1 C 0,3 C 1,6 km/h (1 Bft) 100,00 %
04.11.2016 18:34 0,3 C 97 % 1015,6 hPa 0,0 l/m 1,2 km/h (1 Bft) SO 126 0 min 0,000 mm 0,0 UV-I 0 W/m -0,1 C 0,3 C 1,6 km/h (1 Bft) 100,00 %
04.11.2016 18:36 0,4 C 97 % 1015,6 hPa 0,0 l/m 0,5 km/h (0 Bft) SO 126 0 min 0,000 mm 0,0 UV-I 0 W/m -0,0 C 0,4 C 1,6 km/h (1 Bft) 91,49 %
04.11.2016 18:38 0,3 C 97 % 1015,6 hPa 0,0 l/m 0,0 km/h (0 Bft) SO 126 0 min 0,000 mm 0,0 UV-I 0 W/m -0,1 C 0,3 C 0,0 km/h (0 Bft) 98,00 %
04.11.2016 18:40 0,2 C 97 % 1015,5 hPa 0,0 l/m 0,2 km/h (0 Bft) SO 126 0 min 0,000 mm 0,0 UV-I 0 W/m -0,2 C 0,2 C 1,6 km/h (1 Bft) 98,11 %
04.11.2016 18:42 0,2 C 97 % 1015,5 hPa 0,0 l/m 0,5 km/h (0 Bft) SO 126 0 min 0,000 mm 0,0 UV-I 0 W/m -0,2 C 0,2 C 1,6 km/h (1 Bft) 97,37 %
04.11.2016 18:44 0,3 C 97 % 1015,5 hPa 0,0 l/m 0,5 km/h (0 Bft) SO 126 0 min 0,000 mm 0,0 UV-I 0 W/m -0,1 C 0,3 C 1,6 km/h (1 Bft) 98,00 %
04.11.2016 18:46 0,2 C 97 % 1015,5 hPa 0,0 l/m 1,8 km/h (1 Bft) SO 125 0 min 0,000 mm 0,0 UV-I 0 W/m -0,2 C 0,2 C 3,2 km/h (1 Bft) 98,00 %
04.11.2016 18:48 0,3 C 97 % 1015,5 hPa 0,0 l/m 1,2 km/h (1 Bft) SO 125 0 min 0,000 mm 0,0 UV-I 0 W/m -0,1 C 0,3 C 3,2 km/h (1 Bft) 97,56 %
04.11.2016 18:50 0,3 C 97 % 1015,5 hPa 0,0 l/m 2,3 km/h (1 Bft) SO 126 0 min 0,000 mm 0,0 UV-I 0 W/m -0,1 C 0,3 C 3,2 km/h (1 Bft) 97,87 %
04.11.2016 18:52 0,3 C 97 % 1015,5 hPa 0,0 l/m 0,5 km/h (0 Bft) SO 126 0 min 0,000 mm 0,0 UV-I 0 W/m -0,1 C 0,3 C 3,2 km/h (1 Bft) 96,00 %
04.11.2016 18:54 0,2 C 97 % 1015,5 hPa 0,0 l/m 1,6 km/h (1 Bft) SO 126 0 min 0,000 mm 0,0 UV-I 0 W/m -0,2 C 0,2 C 3,2 km/h (1 Bft) 97,87 %
04.11.2016 18:56 0,2 C 97 % 1015,5 hPa 0,0 l/m 1,0 km/h (0 Bft) SO 126 0 min 0,000 mm 0,0 UV-I 0 W/m -0,2 C 0,2 C 3,2 km/h (1 Bft) 97,87 %
04.11.2016 18:58 0,2 C 97 % 1015,5 hPa 0,0 l/m 0,9 km/h (0 Bft) SO 126 0 min 0,000 mm 0,0 UV-I 0 W/m -0,2 C 0,2 C 1,6 km/h (1 Bft) 97,56 %
04.11.2016 19:00 0,3 C 97 % 1015,4 hPa 0,0 l/m 0,0 km/h (0 Bft) SO 126 0 min 0,000 mm 0,0 UV-I 0 W/m -0,1 C 0,3 C 0,0 km/h (0 Bft) 94,00 %
04.11.2016 19:02 0,3 C 97 % 1015,4 hPa 0,0 l/m 0,4 km/h (0 Bft) SO 125 0 min 0,000 mm 0,0 UV-I 0 W/m -0,1 C 0,3 C 1,6 km/h (1 Bft) 98,00 %
04.11.2016 19:04 0,4 C 97 % 1015,3 hPa 0,0 l/m 0,0 km/h (0 Bft) SO 126 0 min 0,000 mm 0,0 UV-I 0 W/m -0,0 C 0,4 C 0,0 km/h (0 Bft) 91,49 %
04.11.2016 19:06 0,5 C 97 % 1015,3 hPa 0,0 l/m 0,0 km/h (0 Bft) SO 126 0 min 0,000 mm 0,0 UV-I 0 W/m 0,1 C 0,5 C 0,0 km/h (0 Bft) 96,00 %
04.11.2016 19:08 0,4 C 97 % 1015,3 hPa 0,0 l/m 0,0 km/h (0 Bft) SO 126 0 min 0,000 mm 0,0 UV-I 0 W/m -0,0 C 0,4 C 0,0 km/h (0 Bft) 100,00 %
04.11.2016 19:10 0,4 C 97 % 1015,3 hPa 0,0 l/m 0,0 km/h (0 Bft) SO 126 0 min 0,000 mm 0,0 UV-I 0 W/m -0,0 C 0,4 C 0,0 km/h (0 Bft) 96,00 %
04.11.2016 19:12 0,3 C 97 % 1015,3 hPa 0,0 l/m 0,0 km/h (0 Bft) SO 126 0 min 0,000 mm 0,0 UV-I 0 W/m -0,1 C 0,3 C 0,0 km/h (0 Bft) 98,11 %
04.11.2016 19:14 0,3 C 97 % 1015,2 hPa 0,0 l/m 0,0 km/h (0 Bft) SO 126 0 min 0,000 mm 0,0 UV-I 0 W/m -0,1 C 0,3 C 0,0 km/h (0 Bft) 97,87 %
04.11.2016 19:16 0,3 C 97 % 1015,3 hPa 0,0 l/m 0,0 km/h (0 Bft) SO 126 0 min 0,000 mm 0,0 UV-I 0 W/m -0,1 C 0,3 C 0,0 km/h (0 Bft) 100,00 %
04.11.2016 19:18 0,3 C 97 % 1015,3 hPa 0,0 l/m 0,0 km/h (0 Bft) SO 126 0 min 0,000 mm 0,0 UV-I 0 W/m -0,1 C 0,3 C 1,6 km/h (1 Bft) 96,00 %
04.11.2016 19:20 0,2 C 97 % 1015,2 hPa 0,0 l/m 0,0 km/h (0 Bft) SO 126 0 min 0,000 mm 0,0 UV-I 0 W/m -0,2 C 0,2 C 0,0 km/h (0 Bft) 98,00 %
04.11.2016 19:22 0,0 C 97 % 1015,2 hPa 0,0 l/m 0,2 km/h (0 Bft) SO 126 0 min 0,000 mm 0,0 UV-I 0 W/m -0,4 C 0,0 C 1,6 km/h (1 Bft) 100,00 %
04.11.2016 19:24 -0,1 C 97 % 1015,2 hPa 0,0 l/m 0,1 km/h (0 Bft) SO 126 0 min 0,000 mm 0,0 UV-I 0 W/m -0,5 C -0,1 C 1,6 km/h (1 Bft) 100,00 %
04.11.2016 19:26 0,0 C 97 % 1015,2 hPa 0,0 l/m 0,5 km/h (0 Bft) SO 126 0 min 0,000 mm 0,0 UV-I 0 W/m -0,4 C 0,0 C 1,6 km/h (1 Bft) 98,18 %
04.11.2016 19:28 0,0 C 97 % 1015,2 hPa 0,0 l/m 0,1 km/h (0 Bft) SO 126 0 min 0,000 mm 0,0 UV-I 0 W/m -0,4 C 0,0 C 1,6 km/h (1 Bft) 100,00 %
04.11.2016 19:30 0,0 C 97 % 1015,2 hPa 0,0 l/m 1,1 km/h (1 Bft) O-SO 122 0 min 0,000 mm 0,0 UV-I 0 W/m -0,4 C 0,0 C 4,8 km/h (1 Bft) 100,00 %
04.11.2016 19:32 0,1 C 97 % 1015,1 hPa 0,0 l/m 1,3 km/h (1 Bft) O-SO 122 0 min 0,000 mm 0,0 UV-I 0 W/m -0,3 C 0,1 C 3,2 km/h (1 Bft) 100,00 %
04.11.2016 19:34 0,2 C 97 % 1015,2 hPa 0,0 l/m 2,3 km/h (1 Bft) SO 124 0 min 0,000 mm 0,0 UV-I 0 W/m -0,2 C 0,2 C 3,2 km/h (1 Bft) 96,49 %
04.11.2016 19:36 0,2 C 97 % 1015,2 hPa 0,0 l/m 1,8 km/h (1 Bft) SO 124 0 min 0,000 mm 0,0 UV-I 0 W/m -0,2 C 0,2 C 3,2 km/h (1 Bft) 100,00 %
04.11.2016 19:38 0,1 C 97 % 1015,1 hPa 0,0 l/m 1,6 km/h (1 Bft) SO 124 0 min 0,000 mm 0,0 UV-I 0 W/m -0,3 C 0,1 C 3,2 km/h (1 Bft) 100,00 %
04.11.2016 19:40 0,2 C 97 % 1015,2 hPa 0,0 l/m 2,4 km/h (1 Bft) O-SO 122 0 min 0,000 mm 0,0 UV-I 0 W/m -0,2 C 0,2 C 4,8 km/h (1 Bft) 100,00 %
04.11.2016 19:42 0,3 C 97 % 1015,2 hPa 0,0 l/m 0,5 km/h (0 Bft) O-SO 122 0 min 0,000 mm 0,0 UV-I 0 W/m -0,1 C 0,3 C 3,2 km/h (1 Bft) 100,00 %
04.11.2016 19:44 0,3 C 97 % 1015,2 hPa 0,0 l/m 0,0 km/h (0 Bft) O-SO 122 0 min 0,000 mm 0,0 UV-I 0 W/m -0,1 C 0,3 C 0,0 km/h (0 Bft) 100,00 %
04.11.2016 19:46 0,2 C 97 % 1015,1 hPa 0,0 l/m 0,0 km/h (0 Bft) O-SO 122 0 min 0,000 mm 0,0 UV-I 0 W/m -0,2 C 0,2 C 0,0 km/h (0 Bft) 100,00 %
04.11.2016 19:48 0,2 C 97 % 1015,1 hPa 0,0 l/m 2,2 km/h (1 Bft) O-SO 122 0 min 0,000 mm 0,0 UV-I 0 W/m -0,2 C 0,2 C 3,2 km/h (1 Bft) 100,00 %
04.11.2016 19:50 0,2 C 97 % 1015,1 hPa 0,0 l/m 2,6 km/h (1 Bft) O-SO 110 0 min 0,000 mm 0,0 UV-I 0 W/m -0,2 C 0,2 C 4,8 km/h (1 Bft) 100,00 %
04.11.2016 19:52 0,2 C 97 % 1015,1 hPa 0,0 l/m 3,2 km/h (1 Bft) O-SO 110 0 min 0,000 mm 0,0 UV-I 0 W/m -0,2 C 0,2 C 4,8 km/h (1 Bft) 100,00 %
04.11.2016 19:54 0,4 C 97 % 1015,0 hPa 0,0 l/m 3,9 km/h (1 Bft) O-SO 102 0 min 0,000 mm 0,0 UV-I 0 W/m -0,0 C 0,4 C 6,4 km/h (2 Bft) 100,00 %
04.11.2016 19:56 0,6 C 98 % 1015,1 hPa 0,0 l/m 3,4 km/h (1 Bft) O-SO 102 0 min 0,000 mm 0,0 UV-I 0 W/m 0,3 C 0,6 C 4,8 km/h (1 Bft) 100,00 %
04.11.2016 19:58 0,6 C 98 % 1015,0 hPa 0,0 l/m 2,6 km/h (1 Bft) O-SO 102 0 min 0,000 mm 0,0 UV-I 0 W/m 0,3 C 0,6 C 3,2 km/h (1 Bft) 100,00 %
04.11.2016 20:00 0,6 C 97 % 1015,0 hPa 0,0 l/m 1,7 km/h (1 Bft) O-SO 102 0 min 0,000 mm 0,0 UV-I 0 W/m 0,2 C 0,6 C 3,2 km/h (1 Bft) 96,00 %
04.11.2016 20:02 0,6 C 97 % 1015,0 hPa 0,0 l/m 1,7 km/h (1 Bft) O-SO 102 0 min 0,000 mm 0,0 UV-I 0 W/m 0,2 C 0,6 C 3,2 km/h (1 Bft) 98,00 %
04.11.2016 20:04 0,7 C 98 % 1015,0 hPa 0,0 l/m 0,4 km/h (0 Bft) O-SO 102 0 min 0,000 mm 0,0 UV-I 0 W/m 0,4 C 0,7 C 1,6 km/h (1 Bft) 100,00 %
04.11.2016 20:06 0,7 C 98 % 1015,1 hPa 0,0 l/m 0,2 km/h (0 Bft) O-SO 102 0 min 0,000 mm 0,0 UV-I 0 W/m 0,4 C 0,7 C 1,6 km/h (1 Bft) 100,00 %
04.11.2016 20:08 0,6 C 98 % 1015,1 hPa 0,0 l/m 0,7 km/h (0 Bft) O-SO 102 0 min 0,000 mm 0,0 UV-I 0 W/m 0,3 C 0,6 C 3,2 km/h (1 Bft) 98,00 %
04.11.2016 20:10 0,5 C 97 % 1015,1 hPa 0,0 l/m 1,5 km/h (1 Bft) O-SO 102 0 min 0,000 mm 0,0 UV-I 0 W/m 0,1 C 0,5 C 3,2 km/h (1 Bft) 98,11 %
04.11.2016 20:12 0,5 C 97 % 1015,1 hPa 0,0 l/m 4,9 km/h (1 Bft) O-NO 75 0 min 0,000 mm 0,0 UV-I 0 W/m 0,1 C 0,5 C 8,0 km/h (2 Bft) 100,00 %
04.11.2016 20:14 0,7 C 97 % 1015,1 hPa 0,0 l/m 6,6 km/h (2 Bft) O 82 0 min 0,000 mm 0,0 UV-I 0 W/m 0,3 C 0,5 C 11,3 km/h (2 Bft) 100,00 %
04.11.2016 20:16 0,7 C 98 % 1015,0 hPa 0,0 l/m 7,4 km/h (2 Bft) O-NO 63 0 min 0,000 mm 0,0 UV-I 0 W/m 0,4 C -0,3 C 12,9 km/h (3 Bft) 100,00 %
04.11.2016 20:18 0,8 C 97 % 1015,0 hPa 0,0 l/m 4,8 km/h (1 Bft) O-NO 69 0 min 0,000 mm 0,0 UV-I 0 W/m 0,4 C 0,8 C 8,0 km/h (2 Bft) 100,00 %
04.11.2016 20:20 0,8 C 97 % 1015,0 hPa 0,0 l/m 5,0 km/h (1 Bft) O-NO 78 0 min 0,000 mm 0,0 UV-I 0 W/m 0,4 C 0,8 C 9,7 km/h (2 Bft) 100,00 %
04.11.2016 20:22 0,8 C 97 % 1014,9 hPa 0,0 l/m 6,4 km/h (2 Bft) O-NO 71 0 min 0,000 mm 0,0 UV-I 0 W/m 0,4 C 0,8 C 9,7 km/h (2 Bft) 97,87 %
04.11.2016 20:24 0,8 C 97 % 1014,9 hPa 0,0 l/m 5,1 km/h (1 Bft) O-NO 74 0 min 0,000 mm 0,0 UV-I 0 W/m 0,4 C 0,8 C 8,0 km/h (2 Bft) 100,00 %
04.11.2016 20:26 0,8 C 97 % 1014,9 hPa 0,0 l/m 3,7 km/h (1 Bft) NO 55 0 min 0,000 mm 0,0 UV-I 0 W/m 0,4 C 0,8 C 6,4 km/h (2 Bft) 100,00 %
04.11.2016 20:28 0,8 C 97 % 1014,9 hPa 0,0 l/m 6,3 km/h (2 Bft) O-NO 77 0 min 0,000 mm 0,0 UV-I 0 W/m 0,4 C 0,8 C 8,0 km/h (2 Bft) 96,00 %
04.11.2016 20:30 0,8 C 97 % 1014,9 hPa 0,0 l/m 7,0 km/h (2 Bft) O-NO 73 0 min 0,000 mm 0,0 UV-I 0 W/m 0,4 C 0,2 C 9,7 km/h (2 Bft) 100,00 %
04.11.2016 20:32 0,8 C 97 % 1014,9 hPa 0,0 l/m 5,4 km/h (1 Bft) O-NO 71 0 min 0,000 mm 0,0 UV-I 0 W/m 0,4 C 0,8 C 8,0 km/h (2 Bft) 97,87 %
04.11.2016 20:34 0,8 C 97 % 1014,9 hPa 0,0 l/m 4,3 km/h (1 Bft) O 80 0 min 0,000 mm 0,0 UV-I 0 W/m 0,4 C 0,8 C 6,4 km/h (2 Bft) 98,00 %
04.11.2016 20:36 0,8 C 97 % 1014,9 hPa 0,0 l/m 6,6 km/h (2 Bft) O-NO 75 0 min 0,000 mm 0,0 UV-I 0 W/m 0,4 C 0,6 C 8,0 km/h (2 Bft) 100,00 %
04.11.2016 20:38 0,7 C 97 % 1015,0 hPa 0,0 l/m 4,3 km/h (1 Bft) O 91 0 min 0,000 mm 0,0 UV-I 0 W/m 0,3 C 0,7 C 6,4 km/h (2 Bft) 100,00 %
04.11.2016 20:40 0,7 C 97 % 1015,0 hPa 0,0 l/m 5,7 km/h (1 Bft) O-NO 72 0 min 0,000 mm 0,0 UV-I 0 W/m 0,3 C 0,7 C 8,0 km/h (2 Bft) 100,00 %
04.11.2016 20:42 0,7 C 97 % 1015,0 hPa 0,0 l/m 4,7 km/h (1 Bft) O-NO 67 0 min 0,000 mm 0,0 UV-I 0 W/m 0,3 C 0,7 C 6,4 km/h (2 Bft) 100,00 %
04.11.2016 20:44 0,7 C 98 % 1015,0 hPa 0,0 l/m 3,9 km/h (1 Bft) O-NO 71 0 min 0,000 mm 0,0 UV-I 0 W/m 0,4 C 0,7 C 6,4 km/h (2 Bft) 100,00 %
04.11.2016 20:46 0,7 C 98 % 1015,0 hPa 0,0 l/m 4,7 km/h (1 Bft) O-NO 67 0 min 0,000 mm 0,0 UV-I 0 W/m 0,4 C 0,7 C 6,4 km/h (2 Bft) 100,00 %
04.11.2016 20:48 0,7 C 98 % 1014,9 hPa 0,0 l/m 5,0 km/h (1 Bft) NO 53 0 min 0,000 mm 0,0 UV-I 0 W/m 0,4 C 0,7 C 6,4 km/h (2 Bft) 94,00 %
04.11.2016 20:50 0,7 C 98 % 1014,9 hPa 0,0 l/m 6,3 km/h (2 Bft) O-NO 57 0 min 0,000 mm 0,0 UV-I 0 W/m 0,4 C 0,7 C 8,0 km/h (2 Bft) 98,00 %
04.11.2016 20:52 0,7 C 98 % 1015,0 hPa 0,0 l/m 6,2 km/h (2 Bft) NO 49 0 min 0,000 mm 0,0 UV-I 0 W/m 0,4 C 0,7 C 8,0 km/h (2 Bft) 96,23 %
04.11.2016 20:54 0,7 C 98 % 1015,0 hPa 0,0 l/m 6,9 km/h (2 Bft) NO 45 0 min 0,000 mm 0,0 UV-I 0 W/m 0,4 C 0,2 C 9,7 km/h (2 Bft) 94,74 %
04.11.2016 20:56 0,7 C 98 % 1014,9 hPa 0,0 l/m 6,4 km/h (2 Bft) O-NO 60 0 min 0,000 mm 0,0 UV-I 0 W/m 0,4 C 0,7 C 8,0 km/h (2 Bft) 98,11 %
04.11.2016 20:58 0,7 C 98 % 1014,9 hPa 0,0 l/m 5,6 km/h (1 Bft) O-NO 69 0 min 0,000 mm 0,0 UV-I 0 W/m 0,4 C 0,7 C 8,0 km/h (2 Bft) 97,56 %
04.11.2016 21:00 0,7 C 98 % 1014,9 hPa 0,0 l/m 4,6 km/h (1 Bft) O-NO 66 0 min 0,000 mm 0,0 UV-I 0 W/m 0,4 C 0,7 C 8,0 km/h (2 Bft) 98,11 %
04.11.2016 21:02 0,7 C 98 % 1014,8 hPa 0,0 l/m 4,1 km/h (1 Bft) O-NO 57 0 min 0,000 mm 0,0 UV-I 0 W/m 0,4 C 0,7 C 6,4 km/h (2 Bft) 94,87 %
04.11.2016 21:04 0,7 C 98 % 1014,8 hPa 0,0 l/m 4,3 km/h (1 Bft) NO 43 0 min 0,000 mm 0,0 UV-I 0 W/m 0,4 C 0,7 C 6,4 km/h (2 Bft) 96,23 %
04.11.2016 21:06 0,7 C 98 % 1014,8 hPa 0,0 l/m 4,8 km/h (1 Bft) O-NO 65 0 min 0,000 mm 0,0 UV-I 0 W/m 0,4 C 0,7 C 6,4 km/h (2 Bft) 98,00 %
04.11.2016 21:08 0,7 C 98 % 1014,8 hPa 0,0 l/m 5,0 km/h (1 Bft) O-NO 62 0 min 0,000 mm 0,0 UV-I 0 W/m 0,4 C 0,7 C 8,0 km/h (2 Bft) 97,62 %
04.11.2016 21:10 0,8 C 98 % 1014,8 hPa 0,0 l/m 3,7 km/h (1 Bft) NO 48 0 min 0,000 mm 0,0 UV-I 0 W/m 0,5 C 0,8 C 6,4 km/h (2 Bft) 95,74 %
04.11.2016 21:12 0,8 C 98 % 1014,8 hPa 0,0 l/m 4,4 km/h (1 Bft) O-NO 58 0 min 0,000 mm 0,0 UV-I 0 W/m 0,5 C 0,8 C 6,4 km/h (2 Bft) 97,56 %
04.11.2016 21:14 0,8 C 98 % 1014,7 hPa 0,0 l/m 5,1 km/h (1 Bft) O-NO 60 0 min 0,000 mm 0,0 UV-I 0 W/m 0,5 C 0,8 C 6,4 km/h (2 Bft) 98,31 %
04.11.2016 21:16 0,8 C 98 % 1014,7 hPa 0,0 l/m 4,5 km/h (1 Bft) NO 49 0 min 0,000 mm 0,0 UV-I 0 W/m 0,5 C 0,8 C 6,4 km/h (2 Bft) 97,56 %
04.11.2016 21:18 0,8 C 98 % 1014,7 hPa 0,0 l/m 4,5 km/h (1 Bft) O-NO 58 0 min 0,000 mm 0,0 UV-I 0 W/m 0,5 C 0,8 C 6,4 km/h (2 Bft) 98,00 %
04.11.2016 21:20 0,8 C 98 % 1014,7 hPa 0,0 l/m 5,2 km/h (1 Bft) NO 55 0 min 0,000 mm 0,0 UV-I 0 W/m 0,5 C 0,8 C 8,0 km/h (2 Bft) 96,00 %
04.11.2016 21:22 0,8 C 98 % 1014,7 hPa 0,0 l/m 5,9 km/h (2 Bft) NO 52 0 min 0,000 mm 0,0 UV-I 0 W/m 0,5 C 0,8 C 9,7 km/h (2 Bft) 89,47 %
04.11.2016 21:24 0,8 C 98 % 1014,7 hPa 0,0 l/m 7,7 km/h (2 Bft) NO 50 0 min 0,000 mm 0,0 UV-I 0 W/m 0,5 C -0,5 C 12,9 km/h (3 Bft) 98,21 %
04.11.2016 21:26 0,9 C 98 % 1014,7 hPa 0,0 l/m 5,3 km/h (1 Bft) NO 55 0 min 0,000 mm 0,0 UV-I 0 W/m 0,6 C 0,9 C 8,0 km/h (2 Bft) 94,74 %
04.11.2016 21:28 0,8 C 98 % 1014,7 hPa 0,0 l/m 4,4 km/h (1 Bft) O-NO 65 0 min 0,000 mm 0,0 UV-I 0 W/m 0,5 C 0,8 C 8,0 km/h (2 Bft) 100,00 %
04.11.2016 21:30 0,9 C 98 % 1014,7 hPa 0,0 l/m 5,3 km/h (1 Bft) O-NO 63 0 min 0,000 mm 0,0 UV-I 0 W/m 0,6 C 0,9 C 9,7 km/h (2 Bft) 97,87 %
04.11.2016 21:32 0,9 C 98 % 1014,7 hPa 0,0 l/m 7,8 km/h (2 Bft) O 80 0 min 0,000 mm 0,0 UV-I 0 W/m 0,6 C -0,5 C 12,9 km/h (3 Bft) 97,56 %
04.11.2016 21:34 0,9 C 98 % 1014,7 hPa 0,0 l/m 5,8 km/h (2 Bft) O-NO 74 0 min 0,000 mm 0,0 UV-I 0 W/m 0,6 C 0,9 C 8,0 km/h (2 Bft) 100,00 %
04.11.2016 21:36 0,9 C 98 % 1014,7 hPa 0,0 l/m 4,8 km/h (1 Bft) O 92 0 min 0,000 mm 0,0 UV-I 0 W/m 0,6 C 0,9 C 8,0 km/h (2 Bft) 100,00 %
04.11.2016 21:38 0,9 C 98 % 1014,7 hPa 0,0 l/m 4,7 km/h (1 Bft) O-NO 71 0 min 0,000 mm 0,0 UV-I 0 W/m 0,6 C 0,9 C 6,4 km/h (2 Bft) 100,00 %
04.11.2016 21:40 0,9 C 98 % 1014,8 hPa 0,0 l/m 4,6 km/h (1 Bft) O-NO 71 0 min 0,000 mm 0,0 UV-I 0 W/m 0,6 C 0,9 C 6,4 km/h (2 Bft) 100,00 %
04.11.2016 21:42 1,0 C 98 % 1014,8 hPa 0,0 l/m 6,6 km/h (2 Bft) O-SO 114 0 min 0,000 mm 0,0 UV-I 0 W/m 0,7 C 0,8 C 12,9 km/h (3 Bft) 97,37 %
04.11.2016 21:44 1,0 C 98 % 1014,7 hPa 0,0 l/m 6,7 km/h (2 Bft) O-NO 71 0 min 0,000 mm 0,0 UV-I 0 W/m 0,7 C 0,7 C 12,9 km/h (3 Bft) 100,00 %
04.11.2016 21:46 1,0 C 98 % 1014,7 hPa 0,0 l/m 6,7 km/h (2 Bft) O-NO 73 0 min 0,000 mm 0,0 UV-I 0 W/m 0,7 C 0,7 C 12,9 km/h (3 Bft) 98,00 %
04.11.2016 21:48 1,0 C 98 % 1014,7 hPa 0,0 l/m 5,9 km/h (2 Bft) NO 54 0 min 0,000 mm 0,0 UV-I 0 W/m 0,7 C 1,0 C 8,0 km/h (2 Bft) 100,00 %
04.11.2016 21:50 1,0 C 98 % 1014,7 hPa 0,0 l/m 5,9 km/h (2 Bft) O-NO 77 0 min 0,000 mm 0,0 UV-I 0 W/m 0,7 C 1,0 C 8,0 km/h (2 Bft) 100,00 %
04.11.2016 21:52 1,0 C 98 % 1014,7 hPa 0,0 l/m 4,4 km/h (1 Bft) O-NO 76 0 min 0,000 mm 0,0 UV-I 0 W/m 0,7 C 1,0 C 6,4 km/h (2 Bft) 100,00 %
04.11.2016 21:54 1,1 C 98 % 1014,7 hPa 0,0 l/m 4,7 km/h (1 Bft) O-NO 73 0 min 0,000 mm 0,0 UV-I 0 W/m 0,8 C 1,1 C 6,4 km/h (2 Bft) 98,00 %
04.11.2016 21:56 1,1 C 98 % 1014,7 hPa 0,0 l/m 4,6 km/h (1 Bft) O-NO 73 0 min 0,000 mm 0,0 UV-I 0 W/m 0,8 C 1,1 C 6,4 km/h (2 Bft) 100,00 %
04.11.2016 21:58 1,0 C 98 % 1014,6 hPa 0,0 l/m 5,0 km/h (1 Bft) O-NO 65 0 min 0,000 mm 0,0 UV-I 0 W/m 0,7 C 1,0 C 8,0 km/h (2 Bft) 97,37 %
04.11.2016 22:00 1,0 C 98 % 1014,5 hPa 0,0 l/m 6,0 km/h (2 Bft) O-NO 76 0 min 0,000 mm 0,0 UV-I 0 W/m 0,7 C 1,0 C 9,7 km/h (2 Bft) 100,00 %
04.11.2016 22:02 1,0 C 98 % 1014,5 hPa 0,0 l/m 6,0 km/h (2 Bft) O-NO 78 0 min 0,000 mm 0,0 UV-I 0 W/m 0,7 C 1,0 C 8,0 km/h (2 Bft) 100,00 %
04.11.2016 22:04 1,1 C 98 % 1014,5 hPa 0,0 l/m 4,8 km/h (1 Bft) O-NO 77 0 min 0,000 mm 0,0 UV-I 0 W/m 0,8 C 1,1 C 8,0 km/h (2 Bft) 100,00 %
04.11.2016 22:06 1,1 C 98 % 1014,4 hPa 0,0 l/m 4,7 km/h (1 Bft) O 95 0 min 0,000 mm 0,0 UV-I 0 W/m 0,8 C 1,1 C 6,4 km/h (2 Bft) 100,00 %
04.11.2016 22:08 1,1 C 98 % 1014,5 hPa 0,0 l/m 6,4 km/h (2 Bft) O-NO 74 0 min 0,000 mm 0,0 UV-I 0 W/m 0,8 C 1,1 C 11,3 km/h (2 Bft) 98,11 %
04.11.2016 22:10 1,1 C 98 % 1014,4 hPa 0,0 l/m 4,9 km/h (1 Bft) O 96 0 min 0,000 mm 0,0 UV-I 0 W/m 0,8 C 1,1 C 9,7 km/h (2 Bft) 100,00 %
04.11.2016 22:12 1,1 C 98 % 1014,4 hPa 0,0 l/m 4,1 km/h (1 Bft) O-NO 67 0 min 0,000 mm 0,0 UV-I 0 W/m 0,8 C 1,1 C 6,4 km/h (2 Bft) 100,00 %
04.11.2016 22:14 1,1 C 98 % 1014,4 hPa 0,0 l/m 4,6 km/h (1 Bft) O 88 0 min 0,000 mm 0,0 UV-I 0 W/m 0,8 C 1,1 C 6,4 km/h (2 Bft) 98,39 %
04.11.2016 22:16 1,1 C 98 % 1014,5 hPa 0,0 l/m 5,6 km/h (1 Bft) O-NO 75 0 min 0,000 mm 0,0 UV-I 0 W/m 0,8 C 1,1 C 9,7 km/h (2 Bft) 95,74 %
04.11.2016 22:18 1,1 C 98 % 1014,5 hPa 0,0 l/m 4,4 km/h (1 Bft) O-NO 69 0 min 0,000 mm 0,0 UV-I 0 W/m 0,8 C 1,1 C 6,4 km/h (2 Bft) 100,00 %
04.11.2016 22:20 1,1 C 98 % 1014,4 hPa 0,0 l/m 4,5 km/h (1 Bft) O-NO 59 0 min 0,000 mm 0,0 UV-I 0 W/m 0,8 C 1,1 C 6,4 km/h (2 Bft) 100,00 %
04.11.2016 22:22 1,1 C 98 % 1014,4 hPa 0,0 l/m 5,6 km/h (1 Bft) O-NO 74 0 min 0,000 mm 0,0 UV-I 0 W/m 0,8 C 1,1 C 8,0 km/h (2 Bft) 100,00 %
04.11.2016 22:24 1,1 C 98 % 1014,5 hPa 0,0 l/m 6,3 km/h (2 Bft) NO 51 0 min 0,000 mm 0,0 UV-I 0 W/m 0,8 C 1,1 C 8,0 km/h (2 Bft) 100,00 %
04.11.2016 22:26 1,1 C 98 % 1014,5 hPa 0,0 l/m 3,4 km/h (1 Bft) NO 53 0 min 0,000 mm 0,0 UV-I 0 W/m 0,8 C 1,1 C 6,4 km/h (2 Bft) 100,00 %
04.11.2016 22:28 1,1 C 98 % 1014,5 hPa 0,0 l/m 2,2 km/h (1 Bft) NO 53 0 min 0,000 mm 0,0 UV-I 0 W/m 0,8 C 1,1 C 4,8 km/h (1 Bft) 100,00 %
04.11.2016 22:30 1,1 C 98 % 1014,4 hPa 0,0 l/m 4,7 km/h (1 Bft) O-NO 77 0 min 0,000 mm 0,0 UV-I 0 W/m 0,8 C 1,1 C 6,4 km/h (2 Bft) 100,00 %
04.11.2016 22:32 1,1 C 98 % 1014,3 hPa 0,0 l/m 5,0 km/h (1 Bft) O 84 0 min 0,000 mm 0,0 UV-I 0 W/m 0,8 C 1,1 C 6,4 km/h (2 Bft) 98,11 %
04.11.2016 22:34 1,1 C 98 % 1014,3 hPa 0,0 l/m 6,6 km/h (2 Bft) O-NO 73 0 min 0,000 mm 0,0 UV-I 0 W/m 0,8 C 0,9 C 11,3 km/h (2 Bft) 100,00 %
04.11.2016 22:36 1,2 C 98 % 1014,2 hPa 0,0 l/m 5,8 km/h (2 Bft) O 100 0 min 0,000 mm 0,0 UV-I 0 W/m 0,9 C 1,2 C 9,7 km/h (2 Bft) 100,00 %
04.11.2016 22:38 1,1 C 98 % 1014,2 hPa 0,0 l/m 9,1 km/h (2 Bft) O 81 0 min 0,000 mm 0,0 UV-I 0 W/m 0,8 C -1,5 C 14,5 km/h (3 Bft) 98,00 %
04.11.2016 22:40 1,1 C 98 % 1014,2 hPa 0,0 l/m 8,2 km/h (2 Bft) O 92 0 min 0,000 mm 0,0 UV-I 0 W/m 0,8 C -0,7 C 12,9 km/h (3 Bft) 98,11 %
04.11.2016 22:42 1,1 C 98 % 1014,2 hPa 0,0 l/m 5,6 km/h (1 Bft) O 90 0 min 0,000 mm 0,0 UV-I 0 W/m 0,8 C 1,1 C 8,0 km/h (2 Bft) 100,00 %
04.11.2016 22:44 1,1 C 98 % 1014,3 hPa 0,0 l/m 4,2 km/h (1 Bft) O-NO 71 0 min 0,000 mm 0,0 UV-I 0 W/m 0,8 C 1,1 C 6,4 km/h (2 Bft) 100,00 %
04.11.2016 22:46 1,1 C 98 % 1014,3 hPa 0,0 l/m 5,3 km/h (1 Bft) O 87 0 min 0,000 mm 0,0 UV-I 0 W/m 0,8 C 1,1 C 9,7 km/h (2 Bft) 100,00 %
04.11.2016 22:48 1,2 C 98 % 1014,2 hPa 0,0 l/m 5,2 km/h (1 Bft) O-NO 74 0 min 0,000 mm 0,0 UV-I 0 W/m 0,9 C 1,2 C 9,7 km/h (2 Bft) 100,00 %
04.11.2016 22:50 1,1 C 98 % 1014,2 hPa 0,0 l/m 6,4 km/h (2 Bft) NO 49 0 min 0,000 mm 0,0 UV-I 0 W/m 0,8 C 1,1 C 9,7 km/h (2 Bft) 100,00 %
04.11.2016 22:52 1,1 C 98 % 1014,2 hPa 0,0 l/m 6,3 km/h (2 Bft) O-NO 57 0 min 0,000 mm 0,0 UV-I 0 W/m 0,8 C 1,1 C 8,0 km/h (2 Bft) 97,14 %
04.11.2016 22:54 1,1 C 98 % 1014,2 hPa 0,0 l/m 6,8 km/h (2 Bft) O-NO 60 0 min 0,000 mm 0,0 UV-I 0 W/m 0,8 C 0,7 C 9,7 km/h (2 Bft) 96,43 %
04.11.2016 22:56 1,1 C 98 % 1014,2 hPa 0,0 l/m 6,0 km/h (2 Bft) O-NO 72 0 min 0,000 mm 0,0 UV-I 0 W/m 0,8 C 1,1 C 8,0 km/h (2 Bft) 97,56 %
04.11.2016 22:58 1,1 C 98 % 1014,2 hPa 0,0 l/m 5,7 km/h (1 Bft) NO 55 0 min 0,000 mm 0,0 UV-I 0 W/m 0,8 C 1,1 C 8,0 km/h (2 Bft) 96,00 %
04.11.2016 23:00 1,1 C 98 % 1014,2 hPa 0,0 l/m 6,4 km/h (2 Bft) N-NO 22 0 min 0,000 mm 0,0 UV-I 0 W/m 0,8 C 1,1 C 11,3 km/h (2 Bft) 98,11 %
04.11.2016 23:02 1,1 C 98 % 1014,0 hPa 0,0 l/m 8,0 km/h (2 Bft) O-NO 75 0 min 0,000 mm 0,0 UV-I 0 W/m 0,8 C -0,5 C 11,3 km/h (2 Bft) 97,22 %
04.11.2016 23:04 1,2 C 98 % 1014,0 hPa 0,0 l/m 7,2 km/h (2 Bft) O-NO 61 0 min 0,000 mm 0,0 UV-I 0 W/m 0,9 C 0,4 C 12,9 km/h (3 Bft) 98,00 %
04.11.2016 23:06 1,2 C 98 % 1014,0 hPa 0,0 l/m 5,5 km/h (1 Bft) NO 46 0 min 0,000 mm 0,0 UV-I 0 W/m 0,9 C 1,2 C 8,0 km/h (2 Bft) 98,00 %
04.11.2016 23:08 1,2 C 98 % 1014,0 hPa 0,0 l/m 7,9 km/h (2 Bft) NO 40 0 min 0,000 mm 0,0 UV-I 0 W/m 0,9 C -0,3 C 9,7 km/h (2 Bft) 97,73 %
04.11.2016 23:10 1,2 C 98 % 1014,0 hPa 0,0 l/m 7,9 km/h (2 Bft) O-NO 57 0 min 0,000 mm 0,0 UV-I 0 W/m 0,9 C -0,3 C 11,3 km/h (2 Bft) 94,64 %
04.11.2016 23:12 1,2 C 98 % 1014,0 hPa 0,0 l/m 6,9 km/h (2 Bft) NO 56 0 min 0,000 mm 0,0 UV-I 0 W/m 0,9 C 0,7 C 11,3 km/h (2 Bft) 96,55 %
04.11.2016 23:14 1,2 C 98 % 1014,1 hPa 0,0 l/m 5,8 km/h (2 Bft) NO 56 0 min 0,000 mm 0,0 UV-I 0 W/m 0,9 C 1,2 C 8,0 km/h (2 Bft) 96,92 %
04.11.2016 23:16 1,2 C 98 % 1014,1 hPa 0,0 l/m 4,3 km/h (1 Bft) NO 49 0 min 0,000 mm 0,0 UV-I 0 W/m 0,9 C 1,2 C 6,4 km/h (2 Bft) 97,14 %
04.11.2016 23:18 1,2 C 98 % 1014,1 hPa 0,0 l/m 7,0 km/h (2 Bft) O-NO 76 0 min 0,000 mm 0,0 UV-I 0 W/m 0,9 C 0,6 C 11,3 km/h (2 Bft) 97,87 %
04.11.2016 23:20 1,2 C 98 % 1014,1 hPa 0,0 l/m 5,8 km/h (2 Bft) O 85 0 min 0,000 mm 0,0 UV-I 0 W/m 0,9 C 1,2 C 9,7 km/h (2 Bft) 95,92 %
04.11.2016 23:23 1,3 C 98 % 1013,9 hPa 0,0 l/m 5,0 km/h (1 Bft) O 82 0 min 0,000 mm 0,0 UV-I 0 W/m 1,0 C 1,3 C 11,3 km/h (2 Bft) 96,05 %
04.11.2016 23:24 1,2 C 98 % 1013,9 hPa 0,0 l/m 5,2 km/h (1 Bft) O 84 0 min 0,000 mm 0,0 UV-I 0 W/m 0,9 C 1,2 C 6,4 km/h (2 Bft) 100,00 %
04.11.2016 23:26 1,2 C 98 % 1014,0 hPa 0,0 l/m 5,4 km/h (1 Bft) O-NO 69 0 min 0,000 mm 0,0 UV-I 0 W/m 0,9 C 1,2 C 11,3 km/h (2 Bft) 98,00 %
04.11.2016 23:28 1,2 C 98 % 1014,1 hPa 0,0 l/m 4,6 km/h (1 Bft) NO 55 0 min 0,000 mm 0,0 UV-I 0 W/m 0,9 C 1,2 C 6,4 km/h (2 Bft) 97,37 %
04.11.2016 23:30 1,2 C 98 % 1014,1 hPa 0,0 l/m 4,7 km/h (1 Bft) O-NO 71 0 min 0,000 mm 0,0 UV-I 0 W/m 0,9 C 1,2 C 6,4 km/h (2 Bft) 98,00 %
04.11.2016 23:32 1,2 C 98 % 1014,0 hPa 0,0 l/m 6,3 km/h (2 Bft) O-NO 74 0 min 0,000 mm 0,0 UV-I 0 W/m 0,9 C 1,2 C 12,9 km/h (3 Bft) 100,00 %
04.11.2016 23:34 1,2 C 98 % 1014,1 hPa 0,0 l/m 6,1 km/h (2 Bft) O-NO 61 0 min 0,000 mm 0,0 UV-I 0 W/m 0,9 C 1,2 C 11,3 km/h (2 Bft) 100,00 %
04.11.2016 23:36 1,2 C 98 % 1014,0 hPa 0,0 l/m 4,0 km/h (1 Bft) NO 55 0 min 0,000 mm 0,0 UV-I 0 W/m 0,9 C 1,2 C 6,4 km/h (2 Bft) 100,00 %
04.11.2016 23:38 1,2 C 98 % 1014,0 hPa 0,0 l/m 4,6 km/h (1 Bft) O-NO 78 0 min 0,000 mm 0,0 UV-I 0 W/m 0,9 C 1,2 C 8,0 km/h (2 Bft) 95,74 %
04.11.2016 23:40 1,3 C 98 % 1014,0 hPa 0,0 l/m 5,2 km/h (1 Bft) NO 56 0 min 0,000 mm 0,0 UV-I 0 W/m 1,0 C 1,3 C 8,0 km/h (2 Bft) 100,00 %
04.11.2016 23:42 1,3 C 98 % 1014,0 hPa 0,0 l/m 4,0 km/h (1 Bft) NO 55 0 min 0,000 mm 0,0 UV-I 0 W/m 1,0 C 1,3 C 6,4 km/h (2 Bft) 100,00 %
04.11.2016 23:45 1,3 C 98 % 1014,0 hPa 0,0 l/m 3,2 km/h (1 Bft) NO 45 0 min 0,000 mm 0,0 UV-I 0 W/m 1,0 C 1,3 C 6,4 km/h (2 Bft) 97,37 %
04.11.2016 23:48 1,3 C 98 % 1013,9 hPa 0,0 l/m 2,1 km/h (1 Bft) NO 40 0 min 0,000 mm 0,0 UV-I 0 W/m 1,0 C 1,3 C 4,8 km/h (1 Bft) 99,34 %
04.11.2016 23:50 1,3 C 98 % 1013,9 hPa 0,0 l/m 6,0 km/h (2 Bft) NO 44 0 min 0,000 mm 0,0 UV-I 0 W/m 1,0 C 1,3 C 8,0 km/h (2 Bft) 97,22 %
04.11.2016 23:52 1,3 C 98 % 1013,9 hPa 0,0 l/m 6,9 km/h (2 Bft) NO 38 0 min 0,000 mm 0,0 UV-I 0 W/m 1,0 C 0,8 C 9,7 km/h (2 Bft) 100,00 %
04.11.2016 23:54 1,3 C 98 % 1013,9 hPa 0,0 l/m 4,5 km/h (1 Bft) NO 36 0 min 0,000 mm 0,0 UV-I 0 W/m 1,0 C 1,3 C 4,8 km/h (1 Bft) 100,00 %
04.11.2016 23:56 1,3 C 98 % 1013,8 hPa 0,0 l/m 4,8 km/h (1 Bft) O-NO 59 0 min 0,000 mm 0,0 UV-I 0 W/m 1,0 C 1,3 C 8,0 km/h (2 Bft) 100,00 %
04.11.2016 23:58 1,3 C 98 % 1013,8 hPa 0,0 l/m 5,5 km/h (1 Bft) NO 43 0 min 0,000 mm 0,0 UV-I 0 W/m 1,0 C 1,3 C 8,0 km/h (2 Bft) 100,00 %
_ Min-Zeit 07:30 15:28 23:56 - 02:10 - - - - - - 08:02 11:04 03:22 00:02
Minimum _ -1,8 C 93 % 1013,8 hPa - 0,0 km/h (0 Bft) - - - - - - -2,1 C -1,8 C 0,0 km/h (0 Bft) 9,09 %
_ Max-Zeit 15:32 02:04 00:00 09:32 22:38 - - 13:45 14:00 11:04 13:46 15:32 15:32 11:02 00:00
Maximum _ 3,4 C 98 % 1021,6 hPa 0,2 l/m 9,1 km/h
O (2 Bft)
- - 3 min 0,076 mm 0,7 UV-I 355 W/m 2,5 C 3,4 C 14,5 km/h
O-NO (3 Bft)
100,00 %
Durchschnitt _ 0,3 C 97 % 1018,0 hPa #0,2 l/m 2,4 km/h (1 Bft) O-NO - #2:16 h #0,432 mm 0,5 UV-I 124 W/m -0,1 C 0,2 C 4,4 km/h (1 Bft) 98,49 %